<?xml version='1.0' encoding='UTF-8'?>
<gpx version="1.1" creator="https://www.komoot.de" xmlns="http://www.topografix.com/GPX/1/1" xmlns:xsi="http://www.w3.org/2001/XMLSchema-instance" xsi:schemaLocation="http://www.topografix.com/GPX/1/1 http://www.topografix.com/GPX/1/1/gpx.xsd">
  <metadata>
    <name>Kinrooi - Noordbeek</name>
    <author>
      <link href="https://www.komoot.de">
        <text>komoot</text>
        <type>text/html</type>
      </link>
    </author>
  </metadata>
  <trk>
    <name>Kinrooi - Noordbeek</name>
    <trkseg>
      <trkpt lat="51.145563" lon="5.739865">
        <ele>31.677494</ele>
        <time>2022-05-16T21:43:01.220Z</time>
      </trkpt>
      <trkpt lat="51.145481" lon="5.739865">
        <ele>31.677494</ele>
        <time>2022-05-16T21:43:02.774Z</time>
      </trkpt>
      <trkpt lat="51.144965" lon="5.740614">
        <ele>31.677494</ele>
        <time>2022-05-16T21:43:15.907Z</time>
      </trkpt>
      <trkpt lat="51.144782" lon="5.740907">
        <ele>31.623858</ele>
        <time>2022-05-16T21:43:20.823Z</time>
      </trkpt>
      <trkpt lat="51.144741" lon="5.740992">
        <ele>31.598078</ele>
        <time>2022-05-16T21:43:22.046Z</time>
      </trkpt>
      <trkpt lat="51.144678" lon="5.741120">
        <ele>31.558960</ele>
        <time>2022-05-16T21:43:23.932Z</time>
      </trkpt>
      <trkpt lat="51.144334" lon="5.741709">
        <ele>31.365467</ele>
        <time>2022-05-16T21:43:33.373Z</time>
      </trkpt>
      <trkpt lat="51.144324" lon="5.741854">
        <ele>31.330392</ele>
        <time>2022-05-16T21:43:35.051Z</time>
      </trkpt>
      <trkpt lat="51.144040" lon="5.741906">
        <ele>31.220829</ele>
        <time>2022-05-16T21:43:40.443Z</time>
      </trkpt>
      <trkpt lat="51.143990" lon="5.741928">
        <ele>31.200949</ele>
        <time>2022-05-16T21:43:41.424Z</time>
      </trkpt>
      <trkpt lat="51.144019" lon="5.742049">
        <ele>31.169804</ele>
        <time>2022-05-16T21:43:42.459Z</time>
      </trkpt>
      <trkpt lat="51.143993" lon="5.743198">
        <ele>30.945840</ele>
        <time>2022-05-16T21:43:52.402Z</time>
      </trkpt>
      <trkpt lat="51.143961" lon="5.743827">
        <ele>30.878131</ele>
        <time>2022-05-16T21:43:58.154Z</time>
      </trkpt>
      <trkpt lat="51.143899" lon="5.743876">
        <ele>30.866296</ele>
        <time>2022-05-16T21:43:59.586Z</time>
      </trkpt>
      <trkpt lat="51.143838" lon="5.744300">
        <ele>30.819623</ele>
        <time>2022-05-16T21:44:04.963Z</time>
      </trkpt>
      <trkpt lat="51.143113" lon="5.745372">
        <ele>30.620834</ele>
        <time>2022-05-16T21:44:24.493Z</time>
      </trkpt>
      <trkpt lat="51.141885" lon="5.747219">
        <ele>30.036625</ele>
        <time>2022-05-16T21:44:56.592Z</time>
      </trkpt>
      <trkpt lat="51.140753" lon="5.748961">
        <ele>29.255801</ele>
        <time>2022-05-16T21:45:25.289Z</time>
      </trkpt>
      <trkpt lat="51.140615" lon="5.749164">
        <ele>29.178205</ele>
        <time>2022-05-16T21:45:28.683Z</time>
      </trkpt>
      <trkpt lat="51.138768" lon="5.751886">
        <ele>29.606716</ele>
        <time>2022-05-16T21:46:20.992Z</time>
      </trkpt>
      <trkpt lat="51.137165" lon="5.754351">
        <ele>30.493269</ele>
        <time>2022-05-16T21:47:11.891Z</time>
      </trkpt>
      <trkpt lat="51.136383" lon="5.755523">
        <ele>30.670330</ele>
        <time>2022-05-16T21:47:32.955Z</time>
      </trkpt>
      <trkpt lat="51.136416" lon="5.755579">
        <ele>30.664702</ele>
        <time>2022-05-16T21:47:33.845Z</time>
      </trkpt>
      <trkpt lat="51.136061" lon="5.756112">
        <ele>30.607766</ele>
        <time>2022-05-16T21:47:40.860Z</time>
      </trkpt>
      <trkpt lat="51.135890" lon="5.756368">
        <ele>30.580378</ele>
        <time>2022-05-16T21:47:44.089Z</time>
      </trkpt>
      <trkpt lat="51.135185" lon="5.757437">
        <ele>30.544890</ele>
        <time>2022-05-16T21:47:58.408Z</time>
      </trkpt>
      <trkpt lat="51.135108" lon="5.757546">
        <ele>30.553303</ele>
        <time>2022-05-16T21:47:59.849Z</time>
      </trkpt>
      <trkpt lat="51.135146" lon="5.757609">
        <ele>30.557782</ele>
        <time>2022-05-16T21:48:01.024Z</time>
      </trkpt>
      <trkpt lat="51.135232" lon="5.757918">
        <ele>30.575109</ele>
        <time>2022-05-16T21:48:05.460Z</time>
      </trkpt>
      <trkpt lat="51.134851" lon="5.759335">
        <ele>30.654128</ele>
        <time>2022-05-16T21:48:25.767Z</time>
      </trkpt>
      <trkpt lat="51.134573" lon="5.760665">
        <ele>30.553836</ele>
        <time>2022-05-16T21:48:43.368Z</time>
      </trkpt>
      <trkpt lat="51.134089" lon="5.764011">
        <ele>29.787662</ele>
        <time>2022-05-16T21:49:24.884Z</time>
      </trkpt>
      <trkpt lat="51.133977" lon="5.767138">
        <ele>28.302802</ele>
        <time>2022-05-16T21:49:58.914Z</time>
      </trkpt>
      <trkpt lat="51.133890" lon="5.769798">
        <ele>27.514675</ele>
        <time>2022-05-16T21:50:30.106Z</time>
      </trkpt>
      <trkpt lat="51.133784" lon="5.770307">
        <ele>27.405516</ele>
        <time>2022-05-16T21:50:36.888Z</time>
      </trkpt>
      <trkpt lat="51.133619" lon="5.770777">
        <ele>27.330869</ele>
        <time>2022-05-16T21:50:43.699Z</time>
      </trkpt>
      <trkpt lat="51.133603" lon="5.770823">
        <ele>27.334016</ele>
        <time>2022-05-16T21:50:44.378Z</time>
      </trkpt>
      <trkpt lat="51.133528" lon="5.771044">
        <ele>27.349051</ele>
        <time>2022-05-16T21:50:47.565Z</time>
      </trkpt>
      <trkpt lat="51.133496" lon="5.771128">
        <ele>27.354931</ele>
        <time>2022-05-16T21:50:48.825Z</time>
      </trkpt>
      <trkpt lat="51.132577" lon="5.773439">
        <ele>27.613860</ele>
        <time>2022-05-16T21:51:24.032Z</time>
      </trkpt>
      <trkpt lat="51.132248" lon="5.774274">
        <ele>27.904894</ele>
        <time>2022-05-16T21:51:37.504Z</time>
      </trkpt>
      <trkpt lat="51.131359" lon="5.776913">
        <ele>28.904910</ele>
        <time>2022-05-16T21:52:20.732Z</time>
      </trkpt>
      <trkpt lat="51.130571" lon="5.778720">
        <ele>29.354317</ele>
        <time>2022-05-16T21:52:51.463Z</time>
      </trkpt>
      <trkpt lat="51.130149" lon="5.779841">
        <ele>29.276467</ele>
        <time>2022-05-16T21:53:07.503Z</time>
      </trkpt>
      <trkpt lat="51.129431" lon="5.781397">
        <ele>28.677561</ele>
        <time>2022-05-16T21:53:29.369Z</time>
      </trkpt>
      <trkpt lat="51.129362" lon="5.781525">
        <ele>28.600921</ele>
        <time>2022-05-16T21:53:31.238Z</time>
      </trkpt>
      <trkpt lat="51.129147" lon="5.782044">
        <ele>28.318470</ele>
        <time>2022-05-16T21:53:38.093Z</time>
      </trkpt>
      <trkpt lat="51.128829" lon="5.783081">
        <ele>27.874234</ele>
        <time>2022-05-16T21:53:50.947Z</time>
      </trkpt>
      <trkpt lat="51.128305" lon="5.785805">
        <ele>27.473682</ele>
        <time>2022-05-16T21:54:25.272Z</time>
      </trkpt>
      <trkpt lat="51.127832" lon="5.788685">
        <ele>28.499930</ele>
        <time>2022-05-16T21:55:07.802Z</time>
      </trkpt>
      <trkpt lat="51.127572" lon="5.790306">
        <ele>29.394449</ele>
        <time>2022-05-16T21:55:33.604Z</time>
      </trkpt>
      <trkpt lat="51.127544" lon="5.790482">
        <ele>29.491524</ele>
        <time>2022-05-16T21:55:36.298Z</time>
      </trkpt>
      <trkpt lat="51.127192" lon="5.790565">
        <ele>29.794661</ele>
        <time>2022-05-16T21:55:44.643Z</time>
      </trkpt>
      <trkpt lat="51.127062" lon="5.790561">
        <ele>29.819927</ele>
        <time>2022-05-16T21:55:47.648Z</time>
      </trkpt>
      <trkpt lat="51.126612" lon="5.790529">
        <ele>29.824423</ele>
        <time>2022-05-16T21:55:57.449Z</time>
      </trkpt>
      <trkpt lat="51.125990" lon="5.790037">
        <ele>29.831354</ele>
        <time>2022-05-16T21:56:11.294Z</time>
      </trkpt>
      <trkpt lat="51.125674" lon="5.790073">
        <ele>29.834516</ele>
        <time>2022-05-16T21:56:17.387Z</time>
      </trkpt>
      <trkpt lat="51.124912" lon="5.790239">
        <ele>29.558367</ele>
        <time>2022-05-16T21:56:31.662Z</time>
      </trkpt>
      <trkpt lat="51.124693" lon="5.790425">
        <ele>29.428862</ele>
        <time>2022-05-16T21:56:36.077Z</time>
      </trkpt>
      <trkpt lat="51.124214" lon="5.790298">
        <ele>29.175463</ele>
        <time>2022-05-16T21:56:42.194Z</time>
      </trkpt>
      <trkpt lat="51.124155" lon="5.790282">
        <ele>29.144232</ele>
        <time>2022-05-16T21:56:42.980Z</time>
      </trkpt>
      <trkpt lat="51.123721" lon="5.789873">
        <ele>28.898588</ele>
        <time>2022-05-16T21:56:49.811Z</time>
      </trkpt>
      <trkpt lat="51.123503" lon="5.789464">
        <ele>28.901928</ele>
        <time>2022-05-16T21:56:54.575Z</time>
      </trkpt>
      <trkpt lat="51.123411" lon="5.789110">
        <ele>28.904313</ele>
        <time>2022-05-16T21:56:58.054Z</time>
      </trkpt>
      <trkpt lat="51.123307" lon="5.789122">
        <ele>28.905347</ele>
        <time>2022-05-16T21:56:59.613Z</time>
      </trkpt>
      <trkpt lat="51.123022" lon="5.788914">
        <ele>28.908456</ele>
        <time>2022-05-16T21:57:04.270Z</time>
      </trkpt>
      <trkpt lat="51.122781" lon="5.788922">
        <ele>28.910846</ele>
        <time>2022-05-16T21:57:07.950Z</time>
      </trkpt>
      <trkpt lat="51.122471" lon="5.788904">
        <ele>28.913923</ele>
        <time>2022-05-16T21:57:12.774Z</time>
      </trkpt>
      <trkpt lat="51.121987" lon="5.788658">
        <ele>28.996864</ele>
        <time>2022-05-16T21:57:21.122Z</time>
      </trkpt>
      <trkpt lat="51.120606" lon="5.787592">
        <ele>29.415371</ele>
        <time>2022-05-16T21:57:45.908Z</time>
      </trkpt>
      <trkpt lat="51.119941" lon="5.787218">
        <ele>29.294953</ele>
        <time>2022-05-16T21:57:56.147Z</time>
      </trkpt>
      <trkpt lat="51.118722" lon="5.786670">
        <ele>29.137461</ele>
        <time>2022-05-16T21:58:13.449Z</time>
      </trkpt>
      <trkpt lat="51.118045" lon="5.786937">
        <ele>29.225812</ele>
        <time>2022-05-16T21:58:23.296Z</time>
      </trkpt>
      <trkpt lat="51.116803" lon="5.786572">
        <ele>29.526077</ele>
        <time>2022-05-16T21:58:44.223Z</time>
      </trkpt>
      <trkpt lat="51.116488" lon="5.786580">
        <ele>29.688953</ele>
        <time>2022-05-16T21:58:49.725Z</time>
      </trkpt>
      <trkpt lat="51.116092" lon="5.786693">
        <ele>29.896944</ele>
        <time>2022-05-16T21:58:56.718Z</time>
      </trkpt>
      <trkpt lat="51.115638" lon="5.786839">
        <ele>30.136397</ele>
        <time>2022-05-16T21:59:04.650Z</time>
      </trkpt>
      <trkpt lat="51.114606" lon="5.786888">
        <ele>30.323960</ele>
        <time>2022-05-16T21:59:21.509Z</time>
      </trkpt>
      <trkpt lat="51.114476" lon="5.786901">
        <ele>30.333015</ele>
        <time>2022-05-16T21:59:24.219Z</time>
      </trkpt>
      <trkpt lat="51.114354" lon="5.786924">
        <ele>30.341556</ele>
        <time>2022-05-16T21:59:26.707Z</time>
      </trkpt>
      <trkpt lat="51.113868" lon="5.786871">
        <ele>30.375420</ele>
        <time>2022-05-16T21:59:33.543Z</time>
      </trkpt>
      <trkpt lat="51.113663" lon="5.786713">
        <ele>30.391252</ele>
        <time>2022-05-16T21:59:36.661Z</time>
      </trkpt>
      <trkpt lat="51.113094" lon="5.786068">
        <ele>30.338241</ele>
        <time>2022-05-16T21:59:46.406Z</time>
      </trkpt>
      <trkpt lat="51.111983" lon="5.785512">
        <ele>30.235029</ele>
        <time>2022-05-16T22:00:03.773Z</time>
      </trkpt>
      <trkpt lat="51.111722" lon="5.785290">
        <ele>30.217895</ele>
        <time>2022-05-16T22:00:08.030Z</time>
      </trkpt>
      <trkpt lat="51.111484" lon="5.785047">
        <ele>30.201524</ele>
        <time>2022-05-16T22:00:12.009Z</time>
      </trkpt>
      <trkpt lat="51.110819" lon="5.784435">
        <ele>30.157047</ele>
        <time>2022-05-16T22:00:23.004Z</time>
      </trkpt>
      <trkpt lat="51.110083" lon="5.783852">
        <ele>30.262589</ele>
        <time>2022-05-16T22:00:35.434Z</time>
      </trkpt>
      <trkpt lat="51.109907" lon="5.783749">
        <ele>30.327848</ele>
        <time>2022-05-16T22:00:38.308Z</time>
      </trkpt>
      <trkpt lat="51.109718" lon="5.783659">
        <ele>30.396505</ele>
        <time>2022-05-16T22:00:41.216Z</time>
      </trkpt>
      <trkpt lat="51.109587" lon="5.783602">
        <ele>30.443768</ele>
        <time>2022-05-16T22:00:43.385Z</time>
      </trkpt>
      <trkpt lat="51.109323" lon="5.783476">
        <ele>30.539688</ele>
        <time>2022-05-16T22:00:47.684Z</time>
      </trkpt>
      <trkpt lat="51.108788" lon="5.783167">
        <ele>30.737754</ele>
        <time>2022-05-16T22:00:57.834Z</time>
      </trkpt>
      <trkpt lat="51.108048" lon="5.782569">
        <ele>31.131004</ele>
        <time>2022-05-16T22:01:13.223Z</time>
      </trkpt>
      <trkpt lat="51.107652" lon="5.782522">
        <ele>31.322819</ele>
        <time>2022-05-16T22:01:19.733Z</time>
      </trkpt>
      <trkpt lat="51.106931" lon="5.782593">
        <ele>31.579590</ele>
        <time>2022-05-16T22:01:30.692Z</time>
      </trkpt>
      <trkpt lat="51.106238" lon="5.782604">
        <ele>31.238343</ele>
        <time>2022-05-16T22:01:40.676Z</time>
      </trkpt>
      <trkpt lat="51.105642" lon="5.782633">
        <ele>30.944738</ele>
        <time>2022-05-16T22:01:48.211Z</time>
      </trkpt>
      <trkpt lat="51.105130" lon="5.782896">
        <ele>30.653342</ele>
        <time>2022-05-16T22:01:54.719Z</time>
      </trkpt>
      <trkpt lat="51.104995" lon="5.783077">
        <ele>30.528469</ele>
        <time>2022-05-16T22:01:57.064Z</time>
      </trkpt>
      <trkpt lat="51.104471" lon="5.784271">
        <ele>29.881219</ele>
        <time>2022-05-16T22:02:08.886Z</time>
      </trkpt>
      <trkpt lat="51.103917" lon="5.783801">
        <ele>29.442373</ele>
        <time>2022-05-16T22:02:16.887Z</time>
      </trkpt>
      <trkpt lat="51.103873" lon="5.785093">
        <ele>28.967380</ele>
        <time>2022-05-16T22:02:31.773Z</time>
      </trkpt>
      <trkpt lat="51.103792" lon="5.785633">
        <ele>28.763567</ele>
        <time>2022-05-16T22:02:38.257Z</time>
      </trkpt>
      <trkpt lat="51.103654" lon="5.786373">
        <ele>28.480182</ele>
        <time>2022-05-16T22:02:47.011Z</time>
      </trkpt>
      <trkpt lat="51.103434" lon="5.787134">
        <ele>28.308118</ele>
        <time>2022-05-16T22:02:56.731Z</time>
      </trkpt>
      <trkpt lat="51.103366" lon="5.787372">
        <ele>28.265535</ele>
        <time>2022-05-16T22:02:59.812Z</time>
      </trkpt>
      <trkpt lat="51.103215" lon="5.787895">
        <ele>28.171788</ele>
        <time>2022-05-16T22:03:06.863Z</time>
      </trkpt>
      <trkpt lat="51.103144" lon="5.787795">
        <ele>28.147205</ele>
        <time>2022-05-16T22:03:08.796Z</time>
      </trkpt>
      <trkpt lat="51.103099" lon="5.787732">
        <ele>28.131665</ele>
        <time>2022-05-16T22:03:10.017Z</time>
      </trkpt>
      <trkpt lat="51.102689" lon="5.787438">
        <ele>28.015045</ele>
        <time>2022-05-16T22:03:16.465Z</time>
      </trkpt>
      <trkpt lat="51.102498" lon="5.787447">
        <ele>27.965486</ele>
        <time>2022-05-16T22:03:19.161Z</time>
      </trkpt>
      <trkpt lat="51.102353" lon="5.787481">
        <ele>27.967684</ele>
        <time>2022-05-16T22:03:22.076Z</time>
      </trkpt>
      <trkpt lat="51.101821" lon="5.787604">
        <ele>28.081021</ele>
        <time>2022-05-16T22:03:29.977Z</time>
      </trkpt>
      <trkpt lat="51.101565" lon="5.787663">
        <ele>28.135555</ele>
        <time>2022-05-16T22:03:34.268Z</time>
      </trkpt>
      <trkpt lat="51.100925" lon="5.787794">
        <ele>28.271596</ele>
        <time>2022-05-16T22:03:45.244Z</time>
      </trkpt>
      <trkpt lat="51.100302" lon="5.787924">
        <ele>28.273448</ele>
        <time>2022-05-16T22:03:54.810Z</time>
      </trkpt>
      <trkpt lat="51.100084" lon="5.787974">
        <ele>28.239234</ele>
        <time>2022-05-16T22:03:57.951Z</time>
      </trkpt>
      <trkpt lat="51.099913" lon="5.788026">
        <ele>28.212191</ele>
        <time>2022-05-16T22:04:00.364Z</time>
      </trkpt>
      <trkpt lat="51.099890" lon="5.788033">
        <ele>28.208553</ele>
        <time>2022-05-16T22:04:00.699Z</time>
      </trkpt>
      <trkpt lat="51.099759" lon="5.788076">
        <ele>28.187776</ele>
        <time>2022-05-16T22:04:02.514Z</time>
      </trkpt>
      <trkpt lat="51.099676" lon="5.788094">
        <ele>28.174763</ele>
        <time>2022-05-16T22:04:03.649Z</time>
      </trkpt>
      <trkpt lat="51.099572" lon="5.788116">
        <ele>28.158466</ele>
        <time>2022-05-16T22:04:05.112Z</time>
      </trkpt>
      <trkpt lat="51.099519" lon="5.788043">
        <ele>28.147581</ele>
        <time>2022-05-16T22:04:06.095Z</time>
      </trkpt>
      <trkpt lat="51.099483" lon="5.788036">
        <ele>28.141947</ele>
        <time>2022-05-16T22:04:06.589Z</time>
      </trkpt>
      <trkpt lat="51.099429" lon="5.788071">
        <ele>28.132890</ele>
        <time>2022-05-16T22:04:07.366Z</time>
      </trkpt>
      <trkpt lat="51.099403" lon="5.788129">
        <ele>28.125939</ele>
        <time>2022-05-16T22:04:07.971Z</time>
      </trkpt>
      <trkpt lat="51.099424" lon="5.788286">
        <ele>28.110280</ele>
        <time>2022-05-16T22:04:09.340Z</time>
      </trkpt>
      <trkpt lat="51.099461" lon="5.788323">
        <ele>28.103493</ele>
        <time>2022-05-16T22:04:09.981Z</time>
      </trkpt>
      <trkpt lat="51.099491" lon="5.788485">
        <ele>28.087017</ele>
        <time>2022-05-16T22:04:11.450Z</time>
      </trkpt>
      <trkpt lat="51.099539" lon="5.789075">
        <ele>28.063024</ele>
        <time>2022-05-16T22:04:16.695Z</time>
      </trkpt>
      <trkpt lat="51.099536" lon="5.789300">
        <ele>28.077572</ele>
        <time>2022-05-16T22:04:18.700Z</time>
      </trkpt>
      <trkpt lat="51.099541" lon="5.789368">
        <ele>28.081997</ele>
        <time>2022-05-16T22:04:19.323Z</time>
      </trkpt>
      <trkpt lat="51.099546" lon="5.789421">
        <ele>28.085462</ele>
        <time>2022-05-16T22:04:19.831Z</time>
      </trkpt>
      <trkpt lat="51.099585" lon="5.789689">
        <ele>28.103244</ele>
        <time>2022-05-16T22:04:22.219Z</time>
      </trkpt>
      <trkpt lat="51.099610" lon="5.790886">
        <ele>28.180661</ele>
        <time>2022-05-16T22:04:32.892Z</time>
      </trkpt>
      <trkpt lat="51.099580" lon="5.791852">
        <ele>28.290067</ele>
        <time>2022-05-16T22:04:43.352Z</time>
      </trkpt>
      <trkpt lat="51.099491" lon="5.792840">
        <ele>28.707185</ele>
        <time>2022-05-16T22:04:55.092Z</time>
      </trkpt>
      <trkpt lat="51.099452" lon="5.793076">
        <ele>28.809169</ele>
        <time>2022-05-16T22:04:58.155Z</time>
      </trkpt>
      <trkpt lat="51.099254" lon="5.794306">
        <ele>29.339817</ele>
        <time>2022-05-16T22:05:11.924Z</time>
      </trkpt>
      <trkpt lat="51.099091" lon="5.795018">
        <ele>29.316097</ele>
        <time>2022-05-16T22:05:19.351Z</time>
      </trkpt>
      <trkpt lat="51.099077" lon="5.795077">
        <ele>29.302565</ele>
        <time>2022-05-16T22:05:19.949Z</time>
      </trkpt>
      <trkpt lat="51.098960" lon="5.795577">
        <ele>29.188087</ele>
        <time>2022-05-16T22:05:24.874Z</time>
      </trkpt>
      <trkpt lat="51.098971" lon="5.795833">
        <ele>29.133035</ele>
        <time>2022-05-16T22:05:26.910Z</time>
      </trkpt>
      <trkpt lat="51.098866" lon="5.795881">
        <ele>29.095713</ele>
        <time>2022-05-16T22:05:28.362Z</time>
      </trkpt>
      <trkpt lat="51.098797" lon="5.795893">
        <ele>29.072000</ele>
        <time>2022-05-16T22:05:29.331Z</time>
      </trkpt>
      <trkpt lat="51.098804" lon="5.795990">
        <ele>29.051052</ele>
        <time>2022-05-16T22:05:30.426Z</time>
      </trkpt>
      <trkpt lat="51.098850" lon="5.796360">
        <ele>28.970129</ele>
        <time>2022-05-16T22:05:34.615Z</time>
      </trkpt>
      <trkpt lat="51.098860" lon="5.796474">
        <ele>28.945433</ele>
        <time>2022-05-16T22:05:35.963Z</time>
      </trkpt>
      <trkpt lat="51.098495" lon="5.797545">
        <ele>28.691467</ele>
        <time>2022-05-16T22:05:49.645Z</time>
      </trkpt>
      <trkpt lat="51.098423" lon="5.797693">
        <ele>28.653555</ele>
        <time>2022-05-16T22:05:51.753Z</time>
      </trkpt>
      <trkpt lat="51.097994" lon="5.798311">
        <ele>28.467008</ele>
        <time>2022-05-16T22:06:02.985Z</time>
      </trkpt>
      <trkpt lat="51.097283" lon="5.799360">
        <ele>28.210205</ele>
        <time>2022-05-16T22:06:22.074Z</time>
      </trkpt>
      <trkpt lat="51.097181" lon="5.799456">
        <ele>28.197780</ele>
        <time>2022-05-16T22:06:23.874Z</time>
      </trkpt>
      <trkpt lat="51.097065" lon="5.799529">
        <ele>28.184700</ele>
        <time>2022-05-16T22:06:25.845Z</time>
      </trkpt>
      <trkpt lat="51.096930" lon="5.799468">
        <ele>28.169984</ele>
        <time>2022-05-16T22:06:27.858Z</time>
      </trkpt>
      <trkpt lat="51.096012" lon="5.798880">
        <ele>28.066221</ele>
        <time>2022-05-16T22:06:42.356Z</time>
      </trkpt>
      <trkpt lat="51.095201" lon="5.798051">
        <ele>27.857344</ele>
        <time>2022-05-16T22:06:55.720Z</time>
      </trkpt>
      <trkpt lat="51.095004" lon="5.797822">
        <ele>27.798661</ele>
        <time>2022-05-16T22:06:59.185Z</time>
      </trkpt>
      <trkpt lat="51.094734" lon="5.797508">
        <ele>27.718219</ele>
        <time>2022-05-16T22:07:03.962Z</time>
      </trkpt>
      <trkpt lat="51.094707" lon="5.796953">
        <ele>27.634107</ele>
        <time>2022-05-16T22:07:08.858Z</time>
      </trkpt>
      <trkpt lat="51.094639" lon="5.796824">
        <ele>27.606287</ele>
        <time>2022-05-16T22:07:10.289Z</time>
      </trkpt>
      <trkpt lat="51.094556" lon="5.796801">
        <ele>27.579205</ele>
        <time>2022-05-16T22:07:11.505Z</time>
      </trkpt>
      <trkpt lat="51.094452" lon="5.796764">
        <ele>27.544950</ele>
        <time>2022-05-16T22:07:12.964Z</time>
      </trkpt>
      <trkpt lat="51.094301" lon="5.796717">
        <ele>27.495492</ele>
        <time>2022-05-16T22:07:15.026Z</time>
      </trkpt>
      <trkpt lat="51.093847" lon="5.796508">
        <ele>27.343576</ele>
        <time>2022-05-16T22:07:20.962Z</time>
      </trkpt>
      <trkpt lat="51.093815" lon="5.796490">
        <ele>27.332667</ele>
        <time>2022-05-16T22:07:21.419Z</time>
      </trkpt>
      <trkpt lat="51.093637" lon="5.796374">
        <ele>27.270841</ele>
        <time>2022-05-16T22:07:24.945Z</time>
      </trkpt>
      <trkpt lat="51.093481" lon="5.796246">
        <ele>27.214428</ele>
        <time>2022-05-16T22:07:28.259Z</time>
      </trkpt>
      <trkpt lat="51.093454" lon="5.796313">
        <ele>27.198357</ele>
        <time>2022-05-16T22:07:29.243Z</time>
      </trkpt>
      <trkpt lat="51.093370" lon="5.796476">
        <ele>27.155789</ele>
        <time>2022-05-16T22:07:31.801Z</time>
      </trkpt>
      <trkpt lat="51.093362" lon="5.796571">
        <ele>27.136438</ele>
        <time>2022-05-16T22:07:33.048Z</time>
      </trkpt>
      <trkpt lat="51.093416" lon="5.797064">
        <ele>27.041752</ele>
        <time>2022-05-16T22:07:39.390Z</time>
      </trkpt>
      <trkpt lat="51.093457" lon="5.797059">
        <ele>27.067745</ele>
        <time>2022-05-16T22:07:40.088Z</time>
      </trkpt>
      <trkpt lat="51.093382" lon="5.797409">
        <ele>27.214560</ele>
        <time>2022-05-16T22:07:43.690Z</time>
      </trkpt>
      <trkpt lat="51.093258" lon="5.797667">
        <ele>27.343537</ele>
        <time>2022-05-16T22:07:46.977Z</time>
      </trkpt>
      <trkpt lat="51.093001" lon="5.798102">
        <ele>27.580635</ele>
        <time>2022-05-16T22:07:53.414Z</time>
      </trkpt>
      <trkpt lat="51.092087" lon="5.799629">
        <ele>28.403367</ele>
        <time>2022-05-16T22:08:17.833Z</time>
      </trkpt>
      <trkpt lat="51.091808" lon="5.800090">
        <ele>28.642179</ele>
        <time>2022-05-16T22:08:25.769Z</time>
      </trkpt>
      <trkpt lat="51.091526" lon="5.800394">
        <ele>28.844447</ele>
        <time>2022-05-16T22:08:31.983Z</time>
      </trkpt>
      <trkpt lat="51.091282" lon="5.800516">
        <ele>28.996343</ele>
        <time>2022-05-16T22:08:36.103Z</time>
      </trkpt>
      <trkpt lat="51.090860" lon="5.800521">
        <ele>29.239892</ele>
        <time>2022-05-16T22:08:42.442Z</time>
      </trkpt>
      <trkpt lat="51.090245" lon="5.800527">
        <ele>28.991999</ele>
        <time>2022-05-16T22:08:50.625Z</time>
      </trkpt>
      <trkpt lat="51.090238" lon="5.800397">
        <ele>28.958967</ele>
        <time>2022-05-16T22:08:52.228Z</time>
      </trkpt>
      <trkpt lat="51.089984" lon="5.800460">
        <ele>28.855352</ele>
        <time>2022-05-16T22:08:55.609Z</time>
      </trkpt>
      <trkpt lat="51.089580" lon="5.800771">
        <ele>28.674475</ele>
        <time>2022-05-16T22:09:01.666Z</time>
      </trkpt>
      <trkpt lat="51.087774" lon="5.802618">
        <ele>27.787045</ele>
        <time>2022-05-16T22:09:30.123Z</time>
      </trkpt>
      <trkpt lat="51.085358" lon="5.805184">
        <ele>27.372341</ele>
        <time>2022-05-16T22:10:12.018Z</time>
      </trkpt>
      <trkpt lat="51.084146" lon="5.807311">
        <ele>27.102053</ele>
        <time>2022-05-16T22:10:37.771Z</time>
      </trkpt>
      <trkpt lat="51.084056" lon="5.807391">
        <ele>27.085154</ele>
        <time>2022-05-16T22:10:39.153Z</time>
      </trkpt>
      <trkpt lat="51.083515" lon="5.806295">
        <ele>26.927059</ele>
        <time>2022-05-16T22:10:56.608Z</time>
      </trkpt>
      <trkpt lat="51.083168" lon="5.805230">
        <ele>26.759665</ele>
        <time>2022-05-16T22:11:11.301Z</time>
      </trkpt>
      <trkpt lat="51.083147" lon="5.804322">
        <ele>26.632889</ele>
        <time>2022-05-16T22:11:22.341Z</time>
      </trkpt>
      <trkpt lat="51.083151" lon="5.804289">
        <ele>26.628200</ele>
        <time>2022-05-16T22:11:22.702Z</time>
      </trkpt>
      <trkpt lat="51.083228" lon="5.803599">
        <ele>26.539152</ele>
        <time>2022-05-16T22:11:31.053Z</time>
      </trkpt>
      <trkpt lat="51.082973" lon="5.803567">
        <ele>26.491753</ele>
        <time>2022-05-16T22:11:34.574Z</time>
      </trkpt>
      <trkpt lat="51.082614" lon="5.803835">
        <ele>26.418278</ele>
        <time>2022-05-16T22:11:40.069Z</time>
      </trkpt>
      <trkpt lat="51.082116" lon="5.804189">
        <ele>26.317214</ele>
        <time>2022-05-16T22:11:47.729Z</time>
      </trkpt>
      <trkpt lat="51.079767" lon="5.805638">
        <ele>26.414890</ele>
        <time>2022-05-16T22:12:25.877Z</time>
      </trkpt>
      <trkpt lat="51.078595" lon="5.806181">
        <ele>26.562018</ele>
        <time>2022-05-16T22:12:44.356Z</time>
      </trkpt>
      <trkpt lat="51.078151" lon="5.806208">
        <ele>26.663555</ele>
        <time>2022-05-16T22:12:51.359Z</time>
      </trkpt>
      <trkpt lat="51.077697" lon="5.806018">
        <ele>26.821036</ele>
        <time>2022-05-16T22:12:58.981Z</time>
      </trkpt>
      <trkpt lat="51.077527" lon="5.806077">
        <ele>26.879407</ele>
        <time>2022-05-16T22:13:01.846Z</time>
      </trkpt>
      <trkpt lat="51.076125" lon="5.807491">
        <ele>27.394637</ele>
        <time>2022-05-16T22:13:29.113Z</time>
      </trkpt>
      <trkpt lat="51.075807" lon="5.807650">
        <ele>27.487415</ele>
        <time>2022-05-16T22:13:34.359Z</time>
      </trkpt>
      <trkpt lat="51.075242" lon="5.807782">
        <ele>27.646364</ele>
        <time>2022-05-16T22:13:43.147Z</time>
      </trkpt>
      <trkpt lat="51.074635" lon="5.807876">
        <ele>27.881162</ele>
        <time>2022-05-16T22:13:52.467Z</time>
      </trkpt>
      <trkpt lat="51.073768" lon="5.807661">
        <ele>28.254127</ele>
        <time>2022-05-16T22:14:06.543Z</time>
      </trkpt>
      <trkpt lat="51.072749" lon="5.807549">
        <ele>28.983867</ele>
        <time>2022-05-16T22:14:25.369Z</time>
      </trkpt>
      <trkpt lat="51.071825" lon="5.807174">
        <ele>29.907665</ele>
        <time>2022-05-16T22:14:43.818Z</time>
      </trkpt>
      <trkpt lat="51.070964" lon="5.807264">
        <ele>30.304476</ele>
        <time>2022-05-16T22:14:59.490Z</time>
      </trkpt>
      <trkpt lat="51.070781" lon="5.807109">
        <ele>30.343163</ele>
        <time>2022-05-16T22:15:02.893Z</time>
      </trkpt>
      <trkpt lat="51.070684" lon="5.806741">
        <ele>30.389960</ele>
        <time>2022-05-16T22:15:06.837Z</time>
      </trkpt>
      <trkpt lat="51.070403" lon="5.806586">
        <ele>30.445462</ele>
        <time>2022-05-16T22:15:11.208Z</time>
      </trkpt>
      <trkpt lat="51.069587" lon="5.806353">
        <ele>30.324668</ele>
        <time>2022-05-16T22:15:22.228Z</time>
      </trkpt>
      <trkpt lat="51.068248" lon="5.806159">
        <ele>29.508833</ele>
        <time>2022-05-16T22:15:39.283Z</time>
      </trkpt>
      <trkpt lat="51.066495" lon="5.804739">
        <ele>28.914500</ele>
        <time>2022-05-16T22:16:06.358Z</time>
      </trkpt>
      <trkpt lat="51.065768" lon="5.804340">
        <ele>29.046360</ele>
        <time>2022-05-16T22:16:18.121Z</time>
      </trkpt>
      <trkpt lat="51.064937" lon="5.804008">
        <ele>29.193269</ele>
        <time>2022-05-16T22:16:31.927Z</time>
      </trkpt>
      <trkpt lat="51.064167" lon="5.803832">
        <ele>29.380784</ele>
        <time>2022-05-16T22:16:44.424Z</time>
      </trkpt>
      <trkpt lat="51.063766" lon="5.803966">
        <ele>29.484313</ele>
        <time>2022-05-16T22:16:50.921Z</time>
      </trkpt>
      <trkpt lat="51.063638" lon="5.804162">
        <ele>29.529197</ele>
        <time>2022-05-16T22:16:54.624Z</time>
      </trkpt>
      <trkpt lat="51.063483" lon="5.804486">
        <ele>29.593856</ele>
        <time>2022-05-16T22:16:59.987Z</time>
      </trkpt>
      <trkpt lat="51.063348" lon="5.804977">
        <ele>29.674634</ele>
        <time>2022-05-16T22:17:07.025Z</time>
      </trkpt>
      <trkpt lat="51.062776" lon="5.804228">
        <ele>29.795220</ele>
        <time>2022-05-16T22:17:22.398Z</time>
      </trkpt>
      <trkpt lat="51.061677" lon="5.804789">
        <ele>29.987290</ele>
        <time>2022-05-16T22:17:46.318Z</time>
      </trkpt>
      <trkpt lat="51.061431" lon="5.803682">
        <ele>30.128836</ele>
        <time>2022-05-16T22:18:02.690Z</time>
      </trkpt>
      <trkpt lat="51.061414" lon="5.803663">
        <ele>30.132821</ele>
        <time>2022-05-16T22:18:03.108Z</time>
      </trkpt>
      <trkpt lat="51.061235" lon="5.803652">
        <ele>30.167180</ele>
        <time>2022-05-16T22:18:06.889Z</time>
      </trkpt>
      <trkpt lat="51.060427" lon="5.803602">
        <ele>30.247311</ele>
        <time>2022-05-16T22:18:23.402Z</time>
      </trkpt>
      <trkpt lat="51.059827" lon="5.803580">
        <ele>29.874535</ele>
        <time>2022-05-16T22:18:34.929Z</time>
      </trkpt>
      <trkpt lat="51.059270" lon="5.803490">
        <ele>29.526787</ele>
        <time>2022-05-16T22:18:45.226Z</time>
      </trkpt>
      <trkpt lat="51.058431" lon="5.802918">
        <ele>28.915730</ele>
        <time>2022-05-16T22:19:00.621Z</time>
      </trkpt>
      <trkpt lat="51.058173" lon="5.802619">
        <ele>28.679052</ele>
        <time>2022-05-16T22:19:06.141Z</time>
      </trkpt>
      <trkpt lat="51.057546" lon="5.801675">
        <ele>28.038963</ele>
        <time>2022-05-16T22:19:21.732Z</time>
      </trkpt>
      <trkpt lat="51.056952" lon="5.800692">
        <ele>28.050418</ele>
        <time>2022-05-16T22:19:38.514Z</time>
      </trkpt>
      <trkpt lat="51.056481" lon="5.799717">
        <ele>28.300791</ele>
        <time>2022-05-16T22:19:55.691Z</time>
      </trkpt>
      <trkpt lat="51.055611" lon="5.796467">
        <ele>29.652355</ele>
        <time>2022-05-16T22:20:47.502Z</time>
      </trkpt>
      <trkpt lat="51.055250" lon="5.795283">
        <ele>29.543866</ele>
        <time>2022-05-16T22:21:04.807Z</time>
      </trkpt>
      <trkpt lat="51.053695" lon="5.792797">
        <ele>28.903288</ele>
        <time>2022-05-16T22:21:45.612Z</time>
      </trkpt>
      <trkpt lat="51.052761" lon="5.791892">
        <ele>28.704872</ele>
        <time>2022-05-16T22:22:06.763Z</time>
      </trkpt>
      <trkpt lat="51.052263" lon="5.791425">
        <ele>28.743180</ele>
        <time>2022-05-16T22:22:18.624Z</time>
      </trkpt>
      <trkpt lat="51.051762" lon="5.790930">
        <ele>28.782262</ele>
        <time>2022-05-16T22:22:31.024Z</time>
      </trkpt>
      <trkpt lat="51.051518" lon="5.790903">
        <ele>28.857841</ele>
        <time>2022-05-16T22:22:36.290Z</time>
      </trkpt>
      <trkpt lat="51.051246" lon="5.790745">
        <ele>28.995556</ele>
        <time>2022-05-16T22:22:42.658Z</time>
      </trkpt>
      <trkpt lat="51.050394" lon="5.789947">
        <ele>29.465777</ele>
        <time>2022-05-16T22:23:05.034Z</time>
      </trkpt>
      <trkpt lat="51.050377" lon="5.789870">
        <ele>29.490176</ele>
        <time>2022-05-16T22:23:06.192Z</time>
      </trkpt>
      <trkpt lat="51.049545" lon="5.789555">
        <ele>29.855328</ele>
        <time>2022-05-16T22:23:25.111Z</time>
      </trkpt>
      <trkpt lat="51.047569" lon="5.787982">
        <ele>30.463748</ele>
        <time>2022-05-16T22:24:13.000Z</time>
      </trkpt>
      <trkpt lat="51.046918" lon="5.787686">
        <ele>30.539115</ele>
        <time>2022-05-16T22:24:26.275Z</time>
      </trkpt>
      <trkpt lat="51.046408" lon="5.787453">
        <ele>30.508629</ele>
        <time>2022-05-16T22:24:36.520Z</time>
      </trkpt>
      <trkpt lat="51.045410" lon="5.787390">
        <ele>30.365181</ele>
        <time>2022-05-16T22:24:55.925Z</time>
      </trkpt>
      <trkpt lat="51.044870" lon="5.787090">
        <ele>30.338271</ele>
        <time>2022-05-16T22:25:07.364Z</time>
      </trkpt>
      <trkpt lat="51.044280" lon="5.786510">
        <ele>30.549144</ele>
        <time>2022-05-16T22:25:22.047Z</time>
      </trkpt>
      <trkpt lat="51.043680" lon="5.785280">
        <ele>30.846726</ele>
        <time>2022-05-16T22:25:43.239Z</time>
      </trkpt>
      <trkpt lat="51.043420" lon="5.784880">
        <ele>31.085551</ele>
        <time>2022-05-16T22:25:51.344Z</time>
      </trkpt>
      <trkpt lat="51.041207" lon="5.784797">
        <ele>32.538966</ele>
        <time>2022-05-16T22:26:42.699Z</time>
      </trkpt>
      <trkpt lat="51.041320" lon="5.783785">
        <ele>32.955494</ele>
        <time>2022-05-16T22:26:53.751Z</time>
      </trkpt>
      <trkpt lat="51.041340" lon="5.783115">
        <ele>33.218399</ele>
        <time>2022-05-16T22:27:01.056Z</time>
      </trkpt>
      <trkpt lat="51.041199" lon="5.781350">
        <ele>33.708563</ele>
        <time>2022-05-16T22:27:20.250Z</time>
      </trkpt>
      <trkpt lat="51.041287" lon="5.780628">
        <ele>33.911176</ele>
        <time>2022-05-16T22:27:27.824Z</time>
      </trkpt>
      <trkpt lat="51.040970" lon="5.780500">
        <ele>33.946935</ele>
        <time>2022-05-16T22:27:34.552Z</time>
      </trkpt>
      <trkpt lat="51.040630" lon="5.780210">
        <ele>33.844302</ele>
        <time>2022-05-16T22:27:42.100Z</time>
      </trkpt>
      <trkpt lat="51.040460" lon="5.779930">
        <ele>33.779197</ele>
        <time>2022-05-16T22:27:46.677Z</time>
      </trkpt>
      <trkpt lat="51.039570" lon="5.778010">
        <ele>33.464772</ele>
        <time>2022-05-16T22:28:14.684Z</time>
      </trkpt>
      <trkpt lat="51.038830" lon="5.776430">
        <ele>33.351464</ele>
        <time>2022-05-16T22:28:39.632Z</time>
      </trkpt>
      <trkpt lat="51.038610" lon="5.775694">
        <ele>33.383782</ele>
        <time>2022-05-16T22:28:50.902Z</time>
      </trkpt>
      <trkpt lat="51.038095" lon="5.776258">
        <ele>33.439883</ele>
        <time>2022-05-16T22:29:00.947Z</time>
      </trkpt>
      <trkpt lat="51.037905" lon="5.776502">
        <ele>33.461794</ele>
        <time>2022-05-16T22:29:04.567Z</time>
      </trkpt>
      <trkpt lat="51.037213" lon="5.777206">
        <ele>33.416024</ele>
        <time>2022-05-16T22:29:16.253Z</time>
      </trkpt>
      <trkpt lat="51.036790" lon="5.777516">
        <ele>33.288884</ele>
        <time>2022-05-16T22:29:22.556Z</time>
      </trkpt>
      <trkpt lat="51.036129" lon="5.777831">
        <ele>33.100519</ele>
        <time>2022-05-16T22:29:31.948Z</time>
      </trkpt>
      <trkpt lat="51.035540" lon="5.778010">
        <ele>33.038576</ele>
        <time>2022-05-16T22:29:40.259Z</time>
      </trkpt>
      <trkpt lat="51.035266" lon="5.778088">
        <ele>33.061548</ele>
        <time>2022-05-16T22:29:44.200Z</time>
      </trkpt>
      <trkpt lat="51.035050" lon="5.778153">
        <ele>33.079690</ele>
        <time>2022-05-16T22:29:47.385Z</time>
      </trkpt>
      <trkpt lat="51.033160" lon="5.778940">
        <ele>33.570450</ele>
        <time>2022-05-16T22:30:19.117Z</time>
      </trkpt>
      <trkpt lat="51.032899" lon="5.779040">
        <ele>33.686772</ele>
        <time>2022-05-16T22:30:23.848Z</time>
      </trkpt>
      <trkpt lat="51.029670" lon="5.780080">
        <ele>34.986320</ele>
        <time>2022-05-16T22:31:18.395Z</time>
      </trkpt>
      <trkpt lat="51.028890" lon="5.780480">
        <ele>35.231667</ele>
        <time>2022-05-16T22:31:31.280Z</time>
      </trkpt>
      <trkpt lat="51.028251" lon="5.781029">
        <ele>35.231837</ele>
        <time>2022-05-16T22:31:41.911Z</time>
      </trkpt>
      <trkpt lat="51.027882" lon="5.781298">
        <ele>35.218191</ele>
        <time>2022-05-16T22:31:47.771Z</time>
      </trkpt>
      <trkpt lat="51.027610" lon="5.781473">
        <ele>35.208327</ele>
        <time>2022-05-16T22:31:52.029Z</time>
      </trkpt>
      <trkpt lat="51.027140" lon="5.781770">
        <ele>35.188420</ele>
        <time>2022-05-16T22:31:59.512Z</time>
      </trkpt>
      <trkpt lat="51.026793" lon="5.780574">
        <ele>35.119751</ele>
        <time>2022-05-16T22:32:11.495Z</time>
      </trkpt>
      <trkpt lat="51.026777" lon="5.780511">
        <ele>35.116209</ele>
        <time>2022-05-16T22:32:12.105Z</time>
      </trkpt>
      <trkpt lat="51.026722" lon="5.780310">
        <ele>35.104781</ele>
        <time>2022-05-16T22:32:14.063Z</time>
      </trkpt>
      <trkpt lat="51.026704" lon="5.780232">
        <ele>35.100449</ele>
        <time>2022-05-16T22:32:14.806Z</time>
      </trkpt>
      <trkpt lat="51.026696" lon="5.780204">
        <ele>35.098846</ele>
        <time>2022-05-16T22:32:15.080Z</time>
      </trkpt>
      <trkpt lat="51.026479" lon="5.779484">
        <ele>35.057221</ele>
        <time>2022-05-16T22:32:22.397Z</time>
      </trkpt>
      <trkpt lat="51.026213" lon="5.779025">
        <ele>34.960973</ele>
        <time>2022-05-16T22:32:28.077Z</time>
      </trkpt>
      <trkpt lat="51.025959" lon="5.778718">
        <ele>34.848263</ele>
        <time>2022-05-16T22:32:32.601Z</time>
      </trkpt>
      <trkpt lat="51.025620" lon="5.778340">
        <ele>34.701994</ele>
        <time>2022-05-16T22:32:38.334Z</time>
      </trkpt>
      <trkpt lat="51.025491" lon="5.778226">
        <ele>34.649858</ele>
        <time>2022-05-16T22:32:40.358Z</time>
      </trkpt>
      <trkpt lat="51.025050" lon="5.777890">
        <ele>34.477109</ele>
        <time>2022-05-16T22:32:46.874Z</time>
      </trkpt>
      <trkpt lat="51.024512" lon="5.777631">
        <ele>34.164969</ele>
        <time>2022-05-16T22:32:54.074Z</time>
      </trkpt>
      <trkpt lat="51.023960" lon="5.777520">
        <ele>33.797110</ele>
        <time>2022-05-16T22:33:01.013Z</time>
      </trkpt>
      <trkpt lat="51.023090" lon="5.777563">
        <ele>33.221635</ele>
        <time>2022-05-16T22:33:12.208Z</time>
      </trkpt>
      <trkpt lat="51.022931" lon="5.777594">
        <ele>33.206544</ele>
        <time>2022-05-16T22:33:14.378Z</time>
      </trkpt>
      <trkpt lat="51.022878" lon="5.777467">
        <ele>33.198538</ele>
        <time>2022-05-16T22:33:15.666Z</time>
      </trkpt>
      <trkpt lat="51.022814" lon="5.777482">
        <ele>33.193136</ele>
        <time>2022-05-16T22:33:16.527Z</time>
      </trkpt>
      <trkpt lat="51.020674" lon="5.778305">
        <ele>33.231568</ele>
        <time>2022-05-16T22:33:49.705Z</time>
      </trkpt>
      <trkpt lat="51.020646" lon="5.778310">
        <ele>33.237904</ele>
        <time>2022-05-16T22:33:50.145Z</time>
      </trkpt>
      <trkpt lat="51.019927" lon="5.778327">
        <ele>33.399596</ele>
        <time>2022-05-16T22:34:01.753Z</time>
      </trkpt>
      <trkpt lat="51.018438" lon="5.777936">
        <ele>33.822128</ele>
        <time>2022-05-16T22:34:25.894Z</time>
      </trkpt>
      <trkpt lat="51.016925" lon="5.777700">
        <ele>34.283835</ele>
        <time>2022-05-16T22:34:50.209Z</time>
      </trkpt>
      <trkpt lat="51.016416" lon="5.777543">
        <ele>34.444256</ele>
        <time>2022-05-16T22:34:58.537Z</time>
      </trkpt>
      <trkpt lat="51.015501" lon="5.776857">
        <ele>34.715347</ele>
        <time>2022-05-16T22:35:15.051Z</time>
      </trkpt>
      <trkpt lat="51.014173" lon="5.776162">
        <ele>34.968395</ele>
        <time>2022-05-16T22:35:36.921Z</time>
      </trkpt>
      <trkpt lat="51.012797" lon="5.775210">
        <ele>34.770125</ele>
        <time>2022-05-16T22:35:58.223Z</time>
      </trkpt>
      <trkpt lat="51.012560" lon="5.775065">
        <ele>34.783262</ele>
        <time>2022-05-16T22:36:01.679Z</time>
      </trkpt>
      <trkpt lat="51.012289" lon="5.774781">
        <ele>34.821294</ele>
        <time>2022-05-16T22:36:06.178Z</time>
      </trkpt>
      <trkpt lat="51.011812" lon="5.774127">
        <ele>34.895103</ele>
        <time>2022-05-16T22:36:15.253Z</time>
      </trkpt>
      <trkpt lat="51.011635" lon="5.773803">
        <ele>34.926734</ele>
        <time>2022-05-16T22:36:19.209Z</time>
      </trkpt>
      <trkpt lat="51.011377" lon="5.773418">
        <ele>34.968198</ele>
        <time>2022-05-16T22:36:24.679Z</time>
      </trkpt>
      <trkpt lat="51.009616" lon="5.772094">
        <ele>38.007944</ele>
        <time>2022-05-16T22:37:05.451Z</time>
      </trkpt>
      <trkpt lat="51.009329" lon="5.772031">
        <ele>38.870077</ele>
        <time>2022-05-16T22:37:13.562Z</time>
      </trkpt>
      <trkpt lat="51.009048" lon="5.772102">
        <ele>39.716750</ele>
        <time>2022-05-16T22:37:20.123Z</time>
      </trkpt>
      <trkpt lat="51.008987" lon="5.772178">
        <ele>39.947394</ele>
        <time>2022-05-16T22:37:23.651Z</time>
      </trkpt>
      <trkpt lat="51.009038" lon="5.772388">
        <ele>40.368850</ele>
        <time>2022-05-16T22:37:27.694Z</time>
      </trkpt>
      <trkpt lat="51.008400" lon="5.772700">
        <ele>42.355188</ele>
        <time>2022-05-16T22:37:47.490Z</time>
      </trkpt>
      <trkpt lat="51.008100" lon="5.772690">
        <ele>43.146165</ele>
        <time>2022-05-16T22:37:56.258Z</time>
      </trkpt>
      <trkpt lat="51.007130" lon="5.772410">
        <ele>44.805327</ele>
        <time>2022-05-16T22:38:19.242Z</time>
      </trkpt>
      <trkpt lat="51.006866" lon="5.772317">
        <ele>45.260408</ele>
        <time>2022-05-16T22:38:24.234Z</time>
      </trkpt>
      <trkpt lat="51.006493" lon="5.772242">
        <ele>45.893149</ele>
        <time>2022-05-16T22:38:30.773Z</time>
      </trkpt>
      <trkpt lat="51.005931" lon="5.772297">
        <ele>46.066045</ele>
        <time>2022-05-16T22:38:39.632Z</time>
      </trkpt>
      <trkpt lat="51.005702" lon="5.772318">
        <ele>46.078376</ele>
        <time>2022-05-16T22:38:42.902Z</time>
      </trkpt>
      <trkpt lat="51.005629" lon="5.772280">
        <ele>46.082505</ele>
        <time>2022-05-16T22:38:43.891Z</time>
      </trkpt>
      <trkpt lat="51.005230" lon="5.772010">
        <ele>46.105816</ele>
        <time>2022-05-16T22:38:49.627Z</time>
      </trkpt>
      <trkpt lat="51.005230" lon="5.772010">
        <ele>46.105816</ele>
        <time>2022-05-16T22:38:49.674Z</time>
      </trkpt>
      <trkpt lat="51.004870" lon="5.771930">
        <ele>46.125357</ele>
        <time>2022-05-16T22:38:55.049Z</time>
      </trkpt>
      <trkpt lat="51.004861" lon="5.771757">
        <ele>46.131228</ele>
        <time>2022-05-16T22:38:56.669Z</time>
      </trkpt>
      <trkpt lat="51.004784" lon="5.770789">
        <ele>46.289291</ele>
        <time>2022-05-16T22:39:06.903Z</time>
      </trkpt>
      <trkpt lat="51.004793" lon="5.770640">
        <ele>46.317752</ele>
        <time>2022-05-16T22:39:08.331Z</time>
      </trkpt>
      <trkpt lat="51.004871" lon="5.770090">
        <ele>46.424951</ele>
        <time>2022-05-16T22:39:14.205Z</time>
      </trkpt>
      <trkpt lat="51.004629" lon="5.769936">
        <ele>46.503720</ele>
        <time>2022-05-16T22:39:19.926Z</time>
      </trkpt>
      <trkpt lat="51.004524" lon="5.769866">
        <ele>46.538126</ele>
        <time>2022-05-16T22:39:22.229Z</time>
      </trkpt>
      <trkpt lat="51.003960" lon="5.769540">
        <ele>46.707792</ele>
        <time>2022-05-16T22:39:35.191Z</time>
      </trkpt>
      <trkpt lat="51.003490" lon="5.769580">
        <ele>46.807224</ele>
        <time>2022-05-16T22:39:45.532Z</time>
      </trkpt>
      <trkpt lat="51.003319" lon="5.769697">
        <ele>46.846555</ele>
        <time>2022-05-16T22:39:49.637Z</time>
      </trkpt>
      <trkpt lat="51.002980" lon="5.770000">
        <ele>46.928721</ele>
        <time>2022-05-16T22:39:55.658Z</time>
      </trkpt>
      <trkpt lat="51.002529" lon="5.770045">
        <ele>47.024185</ele>
        <time>2022-05-16T22:40:02.303Z</time>
      </trkpt>
      <trkpt lat="51.001660" lon="5.770020">
        <ele>47.096651</ele>
        <time>2022-05-16T22:40:14.849Z</time>
      </trkpt>
      <trkpt lat="51.000100" lon="5.769890">
        <ele>47.196816</ele>
        <time>2022-05-16T22:40:47.361Z</time>
      </trkpt>
      <trkpt lat="50.999920" lon="5.769896">
        <ele>47.213711</ele>
        <time>2022-05-16T22:40:51.178Z</time>
      </trkpt>
      <trkpt lat="50.999823" lon="5.769900">
        <ele>47.222817</ele>
        <time>2022-05-16T22:40:53.206Z</time>
      </trkpt>
      <trkpt lat="50.999656" lon="5.769920">
        <ele>47.238533</ele>
        <time>2022-05-16T22:40:56.704Z</time>
      </trkpt>
      <trkpt lat="50.999545" lon="5.769935">
        <ele>47.248987</ele>
        <time>2022-05-16T22:40:59.039Z</time>
      </trkpt>
      <trkpt lat="50.999360" lon="5.769960">
        <ele>47.266411</ele>
        <time>2022-05-16T22:41:02.890Z</time>
      </trkpt>
      <trkpt lat="50.999190" lon="5.769990">
        <ele>47.282462</ele>
        <time>2022-05-16T22:41:06.447Z</time>
      </trkpt>
      <trkpt lat="50.999022" lon="5.770018">
        <ele>47.298314</ele>
        <time>2022-05-16T22:41:09.916Z</time>
      </trkpt>
      <trkpt lat="50.997340" lon="5.770300">
        <ele>47.034399</ele>
        <time>2022-05-16T22:41:43.135Z</time>
      </trkpt>
      <trkpt lat="50.997070" lon="5.770280">
        <ele>46.980124</ele>
        <time>2022-05-16T22:41:48.326Z</time>
      </trkpt>
      <trkpt lat="50.996735" lon="5.770139">
        <ele>46.847352</ele>
        <time>2022-05-16T22:41:54.805Z</time>
      </trkpt>
      <trkpt lat="50.995670" lon="5.769534">
        <ele>46.337346</ele>
        <time>2022-05-16T22:42:15.664Z</time>
      </trkpt>
      <trkpt lat="50.995386" lon="5.769392">
        <ele>46.203092</ele>
        <time>2022-05-16T22:42:21.218Z</time>
      </trkpt>
      <trkpt lat="50.994240" lon="5.768820">
        <ele>45.648626</ele>
        <time>2022-05-16T22:42:43.761Z</time>
      </trkpt>
      <trkpt lat="50.994014" lon="5.768932">
        <ele>45.539078</ele>
        <time>2022-05-16T22:42:48.188Z</time>
      </trkpt>
      <trkpt lat="50.993749" lon="5.768538">
        <ele>45.371134</ele>
        <time>2022-05-16T22:42:55.090Z</time>
      </trkpt>
      <trkpt lat="50.993468" lon="5.768385">
        <ele>45.142963</ele>
        <time>2022-05-16T22:43:00.757Z</time>
      </trkpt>
      <trkpt lat="50.992959" lon="5.768096">
        <ele>44.623436</ele>
        <time>2022-05-16T22:43:10.401Z</time>
      </trkpt>
      <trkpt lat="50.992918" lon="5.768042">
        <ele>44.572248</ele>
        <time>2022-05-16T22:43:11.340Z</time>
      </trkpt>
      <trkpt lat="50.992265" lon="5.767253">
        <ele>43.783733</ele>
        <time>2022-05-16T22:43:25.212Z</time>
      </trkpt>
      <trkpt lat="50.992449" lon="5.766707">
        <ele>43.424476</ele>
        <time>2022-05-16T22:43:31.745Z</time>
      </trkpt>
      <trkpt lat="50.992354" lon="5.765763">
        <ele>42.895657</ele>
        <time>2022-05-16T22:43:42.176Z</time>
      </trkpt>
      <trkpt lat="50.992323" lon="5.765358">
        <ele>42.669975</ele>
        <time>2022-05-16T22:43:46.779Z</time>
      </trkpt>
      <trkpt lat="50.992260" lon="5.765165">
        <ele>42.549711</ele>
        <time>2022-05-16T22:43:49.275Z</time>
      </trkpt>
      <trkpt lat="50.991872" lon="5.764511">
        <ele>42.052566</ele>
        <time>2022-05-16T22:43:59.382Z</time>
      </trkpt>
      <trkpt lat="50.991875" lon="5.764483">
        <ele>42.036854</ele>
        <time>2022-05-16T22:43:59.672Z</time>
      </trkpt>
      <trkpt lat="50.991594" lon="5.764102">
        <ele>41.834364</ele>
        <time>2022-05-16T22:44:06.540Z</time>
      </trkpt>
      <trkpt lat="50.991457" lon="5.763954">
        <ele>41.748815</ele>
        <time>2022-05-16T22:44:09.685Z</time>
      </trkpt>
      <trkpt lat="50.991152" lon="5.763650">
        <ele>41.562891</ele>
        <time>2022-05-16T22:44:16.159Z</time>
      </trkpt>
      <trkpt lat="50.991054" lon="5.763550">
        <ele>41.502747</ele>
        <time>2022-05-16T22:44:17.588Z</time>
      </trkpt>
      <trkpt lat="50.990273" lon="5.762735">
        <ele>41.045446</ele>
        <time>2022-05-16T22:44:30.436Z</time>
      </trkpt>
      <trkpt lat="50.990143" lon="5.762582">
        <ele>40.997359</ele>
        <time>2022-05-16T22:44:32.438Z</time>
      </trkpt>
      <trkpt lat="50.990112" lon="5.762545">
        <ele>40.985835</ele>
        <time>2022-05-16T22:44:32.910Z</time>
      </trkpt>
      <trkpt lat="50.989590" lon="5.762770">
        <ele>40.825073</ele>
        <time>2022-05-16T22:44:40.261Z</time>
      </trkpt>
      <trkpt lat="50.988680" lon="5.763660">
        <ele>40.511925</ele>
        <time>2022-05-16T22:44:55.407Z</time>
      </trkpt>
      <trkpt lat="50.988280" lon="5.763900">
        <ele>40.399967</ele>
        <time>2022-05-16T22:45:01.672Z</time>
      </trkpt>
      <trkpt lat="50.987613" lon="5.764132">
        <ele>40.221182</ele>
        <time>2022-05-16T22:45:11.187Z</time>
      </trkpt>
      <trkpt lat="50.986802" lon="5.763510">
        <ele>40.008574</ele>
        <time>2022-05-16T22:45:23.133Z</time>
      </trkpt>
      <trkpt lat="50.983815" lon="5.761060">
        <ele>39.677996</ele>
        <time>2022-05-16T22:46:11.643Z</time>
      </trkpt>
      <trkpt lat="50.982123" lon="5.759701">
        <ele>40.350430</ele>
        <time>2022-05-16T22:46:43.926Z</time>
      </trkpt>
      <trkpt lat="50.977370" lon="5.755820">
        <ele>39.631141</ele>
        <time>2022-05-16T22:47:59.250Z</time>
      </trkpt>
      <trkpt lat="50.973291" lon="5.752640">
        <ele>40.883609</ele>
        <time>2022-05-16T22:49:11.143Z</time>
      </trkpt>
      <trkpt lat="50.972420" lon="5.751930">
        <ele>41.628928</ele>
        <time>2022-05-16T22:49:28.817Z</time>
      </trkpt>
      <trkpt lat="50.971970" lon="5.751770">
        <ele>42.285859</ele>
        <time>2022-05-16T22:49:38.118Z</time>
      </trkpt>
      <trkpt lat="50.971815" lon="5.751487">
        <ele>42.622320</ele>
        <time>2022-05-16T22:49:43.121Z</time>
      </trkpt>
      <trkpt lat="50.971331" lon="5.750075">
        <ele>44.061355</ele>
        <time>2022-05-16T22:50:04.939Z</time>
      </trkpt>
      <trkpt lat="50.971264" lon="5.750158">
        <ele>44.180988</ele>
        <time>2022-05-16T22:50:07.549Z</time>
      </trkpt>
      <trkpt lat="50.971159" lon="5.750173">
        <ele>44.329412</ele>
        <time>2022-05-16T22:50:10.414Z</time>
      </trkpt>
      <trkpt lat="50.970980" lon="5.750097">
        <ele>44.590273</ele>
        <time>2022-05-16T22:50:15.481Z</time>
      </trkpt>
      <trkpt lat="50.968750" lon="5.748960">
        <ele>47.088513</ele>
        <time>2022-05-16T22:51:14.208Z</time>
      </trkpt>
      <trkpt lat="50.968660" lon="5.748998">
        <ele>47.152340</ele>
        <time>2022-05-16T22:51:16.100Z</time>
      </trkpt>
      <trkpt lat="50.968556" lon="5.749042">
        <ele>47.226106</ele>
        <time>2022-05-16T22:51:18.235Z</time>
      </trkpt>
      <trkpt lat="50.968307" lon="5.749134">
        <ele>47.401323</ele>
        <time>2022-05-16T22:51:23.546Z</time>
      </trkpt>
      <trkpt lat="50.968269" lon="5.749246">
        <ele>47.456233</ele>
        <time>2022-05-16T22:51:25.117Z</time>
      </trkpt>
      <trkpt lat="50.968781" lon="5.749644">
        <ele>47.313435</ele>
        <time>2022-05-16T22:51:36.086Z</time>
      </trkpt>
      <trkpt lat="50.968726" lon="5.749749">
        <ele>47.261566</ele>
        <time>2022-05-16T22:51:37.628Z</time>
      </trkpt>
      <trkpt lat="50.968275" lon="5.749462">
        <ele>46.968553</ele>
        <time>2022-05-16T22:51:46.350Z</time>
      </trkpt>
      <trkpt lat="50.968014" lon="5.749297">
        <ele>46.799136</ele>
        <time>2022-05-16T22:51:51.315Z</time>
      </trkpt>
      <trkpt lat="50.967215" lon="5.748963">
        <ele>46.229936</ele>
        <time>2022-05-16T22:52:05.992Z</time>
      </trkpt>
      <trkpt lat="50.966637" lon="5.748837">
        <ele>45.737551</ele>
        <time>2022-05-16T22:52:16.748Z</time>
      </trkpt>
      <trkpt lat="50.965849" lon="5.748829">
        <ele>45.072496</ele>
        <time>2022-05-16T22:52:30.576Z</time>
      </trkpt>
      <trkpt lat="50.964857" lon="5.749033">
        <ele>44.217724</ele>
        <time>2022-05-16T22:52:47.475Z</time>
      </trkpt>
      <trkpt lat="50.964124" lon="5.749397">
        <ele>43.560194</ele>
        <time>2022-05-16T22:53:01.345Z</time>
      </trkpt>
      <trkpt lat="50.963562" lon="5.749765">
        <ele>43.468592</ele>
        <time>2022-05-16T22:53:12.943Z</time>
      </trkpt>
      <trkpt lat="50.962836" lon="5.750451">
        <ele>43.559840</ele>
        <time>2022-05-16T22:53:30.465Z</time>
      </trkpt>
      <trkpt lat="50.962663" lon="5.750519">
        <ele>43.579089</ele>
        <time>2022-05-16T22:53:34.076Z</time>
      </trkpt>
      <trkpt lat="50.962159" lon="5.751346">
        <ele>43.790906</ele>
        <time>2022-05-16T22:53:50.932Z</time>
      </trkpt>
      <trkpt lat="50.961465" lon="5.752340">
        <ele>44.208619</ele>
        <time>2022-05-16T22:54:11.607Z</time>
      </trkpt>
      <trkpt lat="50.958725" lon="5.756305">
        <ele>45.577717</ele>
        <time>2022-05-16T22:55:30.525Z</time>
      </trkpt>
      <trkpt lat="50.958528" lon="5.756424">
        <ele>45.675257</ele>
        <time>2022-05-16T22:55:35.500Z</time>
      </trkpt>
      <trkpt lat="50.957988" lon="5.757247">
        <ele>46.535906</ele>
        <time>2022-05-16T22:55:53.990Z</time>
      </trkpt>
      <trkpt lat="50.955818" lon="5.759975">
        <ele>50.089702</ele>
        <time>2022-05-16T22:57:06.745Z</time>
      </trkpt>
      <trkpt lat="50.954886" lon="5.760643">
        <ele>50.381624</ele>
        <time>2022-05-16T22:57:28.091Z</time>
      </trkpt>
      <trkpt lat="50.953939" lon="5.760988">
        <ele>50.385627</ele>
        <time>2022-05-16T22:57:46.323Z</time>
      </trkpt>
      <trkpt lat="50.953042" lon="5.760965">
        <ele>50.579358</ele>
        <time>2022-05-16T22:58:04.409Z</time>
      </trkpt>
      <trkpt lat="50.952235" lon="5.760723">
        <ele>50.763624</ele>
        <time>2022-05-16T22:58:22.498Z</time>
      </trkpt>
      <trkpt lat="50.952098" lon="5.760643">
        <ele>50.802228</ele>
        <time>2022-05-16T22:58:25.919Z</time>
      </trkpt>
      <trkpt lat="50.951318" lon="5.760095">
        <ele>51.152406</ele>
        <time>2022-05-16T22:58:45.623Z</time>
      </trkpt>
      <trkpt lat="50.951289" lon="5.760184">
        <ele>51.178320</ele>
        <time>2022-05-16T22:58:46.935Z</time>
      </trkpt>
      <trkpt lat="50.950724" lon="5.759824">
        <ele>51.428261</ele>
        <time>2022-05-16T22:59:00.540Z</time>
      </trkpt>
      <trkpt lat="50.950160" lon="5.759290">
        <ele>50.920265</ele>
        <time>2022-05-16T22:59:13.874Z</time>
      </trkpt>
      <trkpt lat="50.949213" lon="5.757953">
        <ele>49.062528</ele>
        <time>2022-05-16T22:59:34.196Z</time>
      </trkpt>
      <trkpt lat="50.949043" lon="5.757629">
        <ele>48.482527</ele>
        <time>2022-05-16T22:59:38.106Z</time>
      </trkpt>
      <trkpt lat="50.948875" lon="5.757307">
        <ele>47.759073</ele>
        <time>2022-05-16T22:59:41.974Z</time>
      </trkpt>
      <trkpt lat="50.948253" lon="5.756036">
        <ele>44.974133</ele>
        <time>2022-05-16T22:59:56.790Z</time>
      </trkpt>
      <trkpt lat="50.947622" lon="5.754778">
        <ele>43.341451</ele>
        <time>2022-05-16T23:00:12.456Z</time>
      </trkpt>
      <trkpt lat="50.946937" lon="5.753871">
        <ele>42.492519</ele>
        <time>2022-05-16T23:00:29.477Z</time>
      </trkpt>
      <trkpt lat="50.946012" lon="5.752901">
        <ele>42.307468</ele>
        <time>2022-05-16T23:00:52.958Z</time>
      </trkpt>
      <trkpt lat="50.944933" lon="5.752001">
        <ele>42.385205</ele>
        <time>2022-05-16T23:01:17.701Z</time>
      </trkpt>
      <trkpt lat="50.944319" lon="5.751360">
        <ele>42.386669</ele>
        <time>2022-05-16T23:01:32.151Z</time>
      </trkpt>
      <trkpt lat="50.939056" lon="5.748912">
        <ele>42.953155</ele>
        <time>2022-05-16T23:03:25.592Z</time>
      </trkpt>
      <trkpt lat="50.937827" lon="5.748331">
        <ele>43.173557</ele>
        <time>2022-05-16T23:03:52.540Z</time>
      </trkpt>
      <trkpt lat="50.936669" lon="5.748040">
        <ele>43.394892</ele>
        <time>2022-05-16T23:04:17.208Z</time>
      </trkpt>
      <trkpt lat="50.934808" lon="5.747160">
        <ele>43.576742</ele>
        <time>2022-05-16T23:04:57.425Z</time>
      </trkpt>
      <trkpt lat="50.931558" lon="5.745624">
        <ele>42.360214</ele>
        <time>2022-05-16T23:06:02.247Z</time>
      </trkpt>
      <trkpt lat="50.931436" lon="5.745434">
        <ele>42.248607</ele>
        <time>2022-05-16T23:06:05.327Z</time>
      </trkpt>
      <trkpt lat="50.931385" lon="5.745268">
        <ele>42.122987</ele>
        <time>2022-05-16T23:06:07.132Z</time>
      </trkpt>
      <trkpt lat="50.931401" lon="5.745030">
        <ele>41.960173</ele>
        <time>2022-05-16T23:06:09.824Z</time>
      </trkpt>
      <trkpt lat="50.931848" lon="5.743106">
        <ele>40.565319</ele>
        <time>2022-05-16T23:06:31.351Z</time>
      </trkpt>
      <trkpt lat="50.931919" lon="5.742386">
        <ele>40.291564</ele>
        <time>2022-05-16T23:06:39.832Z</time>
      </trkpt>
      <trkpt lat="50.931904" lon="5.741996">
        <ele>40.226650</ele>
        <time>2022-05-16T23:06:44.423Z</time>
      </trkpt>
      <trkpt lat="50.931767" lon="5.741377">
        <ele>40.117654</ele>
        <time>2022-05-16T23:06:52.346Z</time>
      </trkpt>
      <trkpt lat="50.931521" lon="5.740628">
        <ele>39.977333</ele>
        <time>2022-05-16T23:07:02.704Z</time>
      </trkpt>
      <trkpt lat="50.931376" lon="5.740517">
        <ele>39.934894</ele>
        <time>2022-05-16T23:07:06.068Z</time>
      </trkpt>
      <trkpt lat="50.931289" lon="5.740471">
        <ele>39.910720</ele>
        <time>2022-05-16T23:07:07.982Z</time>
      </trkpt>
      <trkpt lat="50.930804" lon="5.739752">
        <ele>40.297164</ele>
        <time>2022-05-16T23:07:22.357Z</time>
      </trkpt>
      <trkpt lat="50.930563" lon="5.739503">
        <ele>40.498788</ele>
        <time>2022-05-16T23:07:29.040Z</time>
      </trkpt>
      <trkpt lat="50.929971" lon="5.739098">
        <ele>40.950763</ele>
        <time>2022-05-16T23:07:44.620Z</time>
      </trkpt>
      <trkpt lat="50.929253" lon="5.738776">
        <ele>41.375778</ele>
        <time>2022-05-16T23:08:02.594Z</time>
      </trkpt>
      <trkpt lat="50.928961" lon="5.738833">
        <ele>41.519542</ele>
        <time>2022-05-16T23:08:09.594Z</time>
      </trkpt>
      <trkpt lat="50.928855" lon="5.738859">
        <ele>41.571956</ele>
        <time>2022-05-16T23:08:11.955Z</time>
      </trkpt>
      <trkpt lat="50.928643" lon="5.738891">
        <ele>41.676019</ele>
        <time>2022-05-16T23:08:16.869Z</time>
      </trkpt>
      <trkpt lat="50.928189" lon="5.738724">
        <ele>41.903755</ele>
        <time>2022-05-16T23:08:26.574Z</time>
      </trkpt>
      <trkpt lat="50.927937" lon="5.738743">
        <ele>42.027036</ele>
        <time>2022-05-16T23:08:31.788Z</time>
      </trkpt>
      <trkpt lat="50.927803" lon="5.738713">
        <ele>42.008301</ele>
        <time>2022-05-16T23:08:34.240Z</time>
      </trkpt>
      <trkpt lat="50.927541" lon="5.739339">
        <ele>41.933301</ele>
        <time>2022-05-16T23:08:43.152Z</time>
      </trkpt>
      <trkpt lat="50.927338" lon="5.739759">
        <ele>41.880475</ele>
        <time>2022-05-16T23:08:49.326Z</time>
      </trkpt>
      <trkpt lat="50.927094" lon="5.739951">
        <ele>41.837346</ele>
        <time>2022-05-16T23:08:52.945Z</time>
      </trkpt>
      <trkpt lat="50.926565" lon="5.739899">
        <ele>41.753418</ele>
        <time>2022-05-16T23:09:00.213Z</time>
      </trkpt>
      <trkpt lat="50.925344" lon="5.739731">
        <ele>43.125599</ele>
        <time>2022-05-16T23:09:23.530Z</time>
      </trkpt>
      <trkpt lat="50.924209" lon="5.739585">
        <ele>44.184032</ele>
        <time>2022-05-16T23:09:48.965Z</time>
      </trkpt>
      <trkpt lat="50.924139" lon="5.739584">
        <ele>44.227054</ele>
        <time>2022-05-16T23:09:50.491Z</time>
      </trkpt>
      <trkpt lat="50.924068" lon="5.739626">
        <ele>44.273623</ele>
        <time>2022-05-16T23:09:52.130Z</time>
      </trkpt>
      <trkpt lat="50.924010" lon="5.739667">
        <ele>44.312647</ele>
        <time>2022-05-16T23:09:53.465Z</time>
      </trkpt>
      <trkpt lat="50.923687" lon="5.739854">
        <ele>44.523961</ele>
        <time>2022-05-16T23:10:00.055Z</time>
      </trkpt>
      <trkpt lat="50.923371" lon="5.739770">
        <ele>44.720875</ele>
        <time>2022-05-16T23:10:04.441Z</time>
      </trkpt>
      <trkpt lat="50.922710" lon="5.739253">
        <ele>44.570467</ele>
        <time>2022-05-16T23:10:13.574Z</time>
      </trkpt>
      <trkpt lat="50.922308" lon="5.738645">
        <ele>43.863451</ele>
        <time>2022-05-16T23:10:20.152Z</time>
      </trkpt>
      <trkpt lat="50.922101" lon="5.738598">
        <ele>43.597270</ele>
        <time>2022-05-16T23:10:22.363Z</time>
      </trkpt>
      <trkpt lat="50.921878" lon="5.738684">
        <ele>43.305139</ele>
        <time>2022-05-16T23:10:25.165Z</time>
      </trkpt>
      <trkpt lat="50.920885" lon="5.737545">
        <ele>42.688978</ele>
        <time>2022-05-16T23:10:39.523Z</time>
      </trkpt>
      <trkpt lat="50.916193" lon="5.732675">
        <ele>42.707379</ele>
        <time>2022-05-16T23:12:07.326Z</time>
      </trkpt>
      <trkpt lat="50.914637" lon="5.731068">
        <ele>42.613959</ele>
        <time>2022-05-16T23:12:33.426Z</time>
      </trkpt>
      <trkpt lat="50.914135" lon="5.730552">
        <ele>42.552792</ele>
        <time>2022-05-16T23:12:42.301Z</time>
      </trkpt>
      <trkpt lat="50.913290" lon="5.729680">
        <ele>42.546655</ele>
        <time>2022-05-16T23:12:57.915Z</time>
      </trkpt>
      <trkpt lat="50.912280" lon="5.728760">
        <ele>42.524355</ele>
        <time>2022-05-16T23:13:15.061Z</time>
      </trkpt>
      <trkpt lat="50.910236" lon="5.727124">
        <ele>42.319944</ele>
        <time>2022-05-16T23:13:46.884Z</time>
      </trkpt>
      <trkpt lat="50.907985" lon="5.725426">
        <ele>43.223500</ele>
        <time>2022-05-16T23:14:28.606Z</time>
      </trkpt>
      <trkpt lat="50.907737" lon="5.725261">
        <ele>43.357591</ele>
        <time>2022-05-16T23:14:33.361Z</time>
      </trkpt>
      <trkpt lat="50.906720" lon="5.724370">
        <ele>43.736758</ele>
        <time>2022-05-16T23:14:52.536Z</time>
      </trkpt>
      <trkpt lat="50.906411" lon="5.724081">
        <ele>43.843874</ele>
        <time>2022-05-16T23:14:57.961Z</time>
      </trkpt>
      <trkpt lat="50.906105" lon="5.723661">
        <ele>43.964713</ele>
        <time>2022-05-16T23:15:04.088Z</time>
      </trkpt>
      <trkpt lat="50.905945" lon="5.723630">
        <ele>43.999176</ele>
        <time>2022-05-16T23:15:06.495Z</time>
      </trkpt>
      <trkpt lat="50.905857" lon="5.723848">
        <ele>44.030301</ele>
        <time>2022-05-16T23:15:09.106Z</time>
      </trkpt>
      <trkpt lat="50.905615" lon="5.724619">
        <ele>44.133861</ele>
        <time>2022-05-16T23:15:17.897Z</time>
      </trkpt>
      <trkpt lat="50.905324" lon="5.725199">
        <ele>44.222986</ele>
        <time>2022-05-16T23:15:25.499Z</time>
      </trkpt>
      <trkpt lat="50.904838" lon="5.725545">
        <ele>44.315035</ele>
        <time>2022-05-16T23:15:33.354Z</time>
      </trkpt>
      <trkpt lat="50.904288" lon="5.725514">
        <ele>44.267636</ele>
        <time>2022-05-16T23:15:41.715Z</time>
      </trkpt>
      <trkpt lat="50.902734" lon="5.725048">
        <ele>44.146340</ele>
        <time>2022-05-16T23:16:04.297Z</time>
      </trkpt>
      <trkpt lat="50.902011" lon="5.724901">
        <ele>44.113131</ele>
        <time>2022-05-16T23:16:14.402Z</time>
      </trkpt>
      <trkpt lat="50.901922" lon="5.724592">
        <ele>44.103371</ele>
        <time>2022-05-16T23:16:17.644Z</time>
      </trkpt>
      <trkpt lat="50.901380" lon="5.723970">
        <ele>44.147659</ele>
        <time>2022-05-16T23:16:28.336Z</time>
      </trkpt>
      <trkpt lat="50.899640" lon="5.722860">
        <ele>44.740434</ele>
        <time>2022-05-16T23:16:59.079Z</time>
      </trkpt>
      <trkpt lat="50.898886" lon="5.722637">
        <ele>44.738344</ele>
        <time>2022-05-16T23:17:10.408Z</time>
      </trkpt>
      <trkpt lat="50.898251" lon="5.722701">
        <ele>44.736611</ele>
        <time>2022-05-16T23:17:19.479Z</time>
      </trkpt>
      <trkpt lat="50.898184" lon="5.722903">
        <ele>44.735250</ele>
        <time>2022-05-16T23:17:22.290Z</time>
      </trkpt>
      <trkpt lat="50.898044" lon="5.722957">
        <ele>44.714193</ele>
        <time>2022-05-16T23:17:25.067Z</time>
      </trkpt>
      <trkpt lat="50.897771" lon="5.722947">
        <ele>44.674283</ele>
        <time>2022-05-16T23:17:30.426Z</time>
      </trkpt>
      <trkpt lat="50.897450" lon="5.722827">
        <ele>44.626082</ele>
        <time>2022-05-16T23:17:36.855Z</time>
      </trkpt>
      <trkpt lat="50.896794" lon="5.722285">
        <ele>44.517971</ele>
        <time>2022-05-16T23:17:51.419Z</time>
      </trkpt>
      <trkpt lat="50.896512" lon="5.722145">
        <ele>44.474784</ele>
        <time>2022-05-16T23:17:57.349Z</time>
      </trkpt>
      <trkpt lat="50.896237" lon="5.722174">
        <ele>44.514839</ele>
        <time>2022-05-16T23:18:02.785Z</time>
      </trkpt>
      <trkpt lat="50.896090" lon="5.722190">
        <ele>44.537821</ele>
        <time>2022-05-16T23:18:05.713Z</time>
      </trkpt>
      <trkpt lat="50.895870" lon="5.722360">
        <ele>44.575995</ele>
        <time>2022-05-16T23:18:10.654Z</time>
      </trkpt>
      <trkpt lat="50.895062" lon="5.723512">
        <ele>44.745489</ele>
        <time>2022-05-16T23:18:33.423Z</time>
      </trkpt>
      <trkpt lat="50.894086" lon="5.724936">
        <ele>45.728393</ele>
        <time>2022-05-16T23:19:04.015Z</time>
      </trkpt>
      <trkpt lat="50.893590" lon="5.725670">
        <ele>46.198784</ele>
        <time>2022-05-16T23:19:20.939Z</time>
      </trkpt>
      <trkpt lat="50.893450" lon="5.725950">
        <ele>46.298483</ele>
        <time>2022-05-16T23:19:26.187Z</time>
      </trkpt>
      <trkpt lat="50.893315" lon="5.726475">
        <ele>46.456682</ele>
        <time>2022-05-16T23:19:34.237Z</time>
      </trkpt>
      <trkpt lat="50.893271" lon="5.726761">
        <ele>46.538825</ele>
        <time>2022-05-16T23:19:38.369Z</time>
      </trkpt>
      <trkpt lat="50.893315" lon="5.727069">
        <ele>46.626945</ele>
        <time>2022-05-16T23:19:42.576Z</time>
      </trkpt>
      <trkpt lat="50.893260" lon="5.727271">
        <ele>46.688337</ele>
        <time>2022-05-16T23:19:45.534Z</time>
      </trkpt>
      <trkpt lat="50.893235" lon="5.727427">
        <ele>46.733250</ele>
        <time>2022-05-16T23:19:47.575Z</time>
      </trkpt>
      <trkpt lat="50.892497" lon="5.727035">
        <ele>46.767827</ele>
        <time>2022-05-16T23:20:03.823Z</time>
      </trkpt>
      <trkpt lat="50.892046" lon="5.726718">
        <ele>46.536777</ele>
        <time>2022-05-16T23:20:13.262Z</time>
      </trkpt>
      <trkpt lat="50.891685" lon="5.726374">
        <ele>46.339514</ele>
        <time>2022-05-16T23:20:20.370Z</time>
      </trkpt>
      <trkpt lat="50.891351" lon="5.725916">
        <ele>46.132690</ele>
        <time>2022-05-16T23:20:28.124Z</time>
      </trkpt>
      <trkpt lat="50.891308" lon="5.725872">
        <ele>46.108721</ele>
        <time>2022-05-16T23:20:29.055Z</time>
      </trkpt>
      <trkpt lat="50.891163" lon="5.725692">
        <ele>46.079405</ele>
        <time>2022-05-16T23:20:32.488Z</time>
      </trkpt>
      <trkpt lat="50.890808" lon="5.725493">
        <ele>46.064315</ele>
        <time>2022-05-16T23:20:39.812Z</time>
      </trkpt>
      <trkpt lat="50.890543" lon="5.725495">
        <ele>46.053696</ele>
        <time>2022-05-16T23:20:43.712Z</time>
      </trkpt>
      <trkpt lat="50.890230" lon="5.725584">
        <ele>46.040952</ele>
        <time>2022-05-16T23:20:48.871Z</time>
      </trkpt>
      <trkpt lat="50.889197" lon="5.726102">
        <ele>46.161047</ele>
        <time>2022-05-16T23:21:05.559Z</time>
      </trkpt>
      <trkpt lat="50.888182" lon="5.726626">
        <ele>46.580896</ele>
        <time>2022-05-16T23:21:24.270Z</time>
      </trkpt>
      <trkpt lat="50.887682" lon="5.726971">
        <ele>46.694435</ele>
        <time>2022-05-16T23:21:32.673Z</time>
      </trkpt>
      <trkpt lat="50.886978" lon="5.727491">
        <ele>46.590379</ele>
        <time>2022-05-16T23:21:43.773Z</time>
      </trkpt>
      <trkpt lat="50.885919" lon="5.728127">
        <ele>46.464210</ele>
        <time>2022-05-16T23:21:59.310Z</time>
      </trkpt>
      <trkpt lat="50.885725" lon="5.728301">
        <ele>46.453213</ele>
        <time>2022-05-16T23:22:02.436Z</time>
      </trkpt>
      <trkpt lat="50.885687" lon="5.728444">
        <ele>46.448383</ele>
        <time>2022-05-16T23:22:03.765Z</time>
      </trkpt>
      <trkpt lat="50.885608" lon="5.728444">
        <ele>46.444485</ele>
        <time>2022-05-16T23:22:05.302Z</time>
      </trkpt>
      <trkpt lat="50.885454" lon="5.728433">
        <ele>46.436879</ele>
        <time>2022-05-16T23:22:08.426Z</time>
      </trkpt>
      <trkpt lat="50.885927" lon="5.730378">
        <ele>46.543173</ele>
        <time>2022-05-16T23:22:28.538Z</time>
      </trkpt>
      <trkpt lat="50.886257" lon="5.731227">
        <ele>46.801396</ele>
        <time>2022-05-16T23:22:38.509Z</time>
      </trkpt>
      <trkpt lat="50.886759" lon="5.732518">
        <ele>47.208077</ele>
        <time>2022-05-16T23:22:55.289Z</time>
      </trkpt>
      <trkpt lat="50.886984" lon="5.732878">
        <ele>47.367333</ele>
        <time>2022-05-16T23:23:01.032Z</time>
      </trkpt>
      <trkpt lat="50.887008" lon="5.732926">
        <ele>47.386581</ele>
        <time>2022-05-16T23:23:01.665Z</time>
      </trkpt>
      <trkpt lat="50.887118" lon="5.733173">
        <ele>47.481596</ele>
        <time>2022-05-16T23:23:05.985Z</time>
      </trkpt>
      <trkpt lat="50.887156" lon="5.733255">
        <ele>47.513571</ele>
        <time>2022-05-16T23:23:07.484Z</time>
      </trkpt>
      <trkpt lat="50.887504" lon="5.734366">
        <ele>47.903382</ele>
        <time>2022-05-16T23:23:24.607Z</time>
      </trkpt>
      <trkpt lat="50.887515" lon="5.734534">
        <ele>47.956460</ele>
        <time>2022-05-16T23:23:26.801Z</time>
      </trkpt>
      <trkpt lat="50.887555" lon="5.734758">
        <ele>48.026591</ele>
        <time>2022-05-16T23:23:29.949Z</time>
      </trkpt>
      <trkpt lat="50.887620" lon="5.734953">
        <ele>48.053746</ele>
        <time>2022-05-16T23:23:32.897Z</time>
      </trkpt>
      <trkpt lat="50.887687" lon="5.735017">
        <ele>48.069013</ele>
        <time>2022-05-16T23:23:34.549Z</time>
      </trkpt>
      <trkpt lat="50.888319" lon="5.736261">
        <ele>48.265669</ele>
        <time>2022-05-16T23:23:55.848Z</time>
      </trkpt>
      <trkpt lat="50.888487" lon="5.736591">
        <ele>48.317879</ele>
        <time>2022-05-16T23:24:01.292Z</time>
      </trkpt>
      <trkpt lat="50.889412" lon="5.738372">
        <ele>48.733443</ele>
        <time>2022-05-16T23:24:31.670Z</time>
      </trkpt>
      <trkpt lat="50.888457" lon="5.738461">
        <ele>49.090213</ele>
        <time>2022-05-16T23:24:53.322Z</time>
      </trkpt>
      <trkpt lat="50.887514" lon="5.738366">
        <ele>49.565111</ele>
        <time>2022-05-16T23:25:13.934Z</time>
      </trkpt>
      <trkpt lat="50.887473" lon="5.738790">
        <ele>49.701113</ele>
        <time>2022-05-16T23:25:19.896Z</time>
      </trkpt>
      <trkpt lat="50.887307" lon="5.739381">
        <ele>49.865587</ele>
        <time>2022-05-16T23:25:29.105Z</time>
      </trkpt>
      <trkpt lat="50.887209" lon="5.739802">
        <ele>49.926904</ele>
        <time>2022-05-16T23:25:35.535Z</time>
      </trkpt>
      <trkpt lat="50.887149" lon="5.740087">
        <ele>49.967958</ele>
        <time>2022-05-16T23:25:39.790Z</time>
      </trkpt>
      <trkpt lat="50.886665" lon="5.740186">
        <ele>50.073660</ele>
        <time>2022-05-16T23:25:47.743Z</time>
      </trkpt>
      <trkpt lat="50.886607" lon="5.740818">
        <ele>50.160926</ele>
        <time>2022-05-16T23:25:55.930Z</time>
      </trkpt>
      <trkpt lat="50.886528" lon="5.741131">
        <ele>50.206991</ele>
        <time>2022-05-16T23:26:00.189Z</time>
      </trkpt>
      <trkpt lat="50.886441" lon="5.741298">
        <ele>50.198839</ele>
        <time>2022-05-16T23:26:02.711Z</time>
      </trkpt>
      <trkpt lat="50.886240" lon="5.741985">
        <ele>49.982062</ele>
        <time>2022-05-16T23:26:11.390Z</time>
      </trkpt>
      <trkpt lat="50.886100" lon="5.742183">
        <ele>49.896927</ele>
        <time>2022-05-16T23:26:14.838Z</time>
      </trkpt>
      <trkpt lat="50.885833" lon="5.743039">
        <ele>49.623576</ele>
        <time>2022-05-16T23:26:26.144Z</time>
      </trkpt>
      <trkpt lat="50.885663" lon="5.743325">
        <ele>49.511090</ele>
        <time>2022-05-16T23:26:30.734Z</time>
      </trkpt>
      <trkpt lat="50.885497" lon="5.743606">
        <ele>49.409261</ele>
        <time>2022-05-16T23:26:35.271Z</time>
      </trkpt>
      <trkpt lat="50.885357" lon="5.743824">
        <ele>49.421519</ele>
        <time>2022-05-16T23:26:38.884Z</time>
      </trkpt>
      <trkpt lat="50.884994" lon="5.744403">
        <ele>49.453685</ele>
        <time>2022-05-16T23:26:48.844Z</time>
      </trkpt>
      <trkpt lat="50.884707" lon="5.745146">
        <ele>49.488015</ele>
        <time>2022-05-16T23:26:59.933Z</time>
      </trkpt>
      <trkpt lat="50.884617" lon="5.745378">
        <ele>49.498747</ele>
        <time>2022-05-16T23:27:03.850Z</time>
      </trkpt>
      <trkpt lat="50.884152" lon="5.746157">
        <ele>49.812419</ele>
        <time>2022-05-16T23:27:19.696Z</time>
      </trkpt>
      <trkpt lat="50.884202" lon="5.746238">
        <ele>49.876258</ele>
        <time>2022-05-16T23:27:21.219Z</time>
      </trkpt>
      <trkpt lat="50.883749" lon="5.746990">
        <ele>50.461980</ele>
        <time>2022-05-16T23:27:32.648Z</time>
      </trkpt>
      <trkpt lat="50.883698" lon="5.746909">
        <ele>50.526447</ele>
        <time>2022-05-16T23:27:34.266Z</time>
      </trkpt>
      <trkpt lat="50.883534" lon="5.747258">
        <ele>50.771594</ele>
        <time>2022-05-16T23:27:41.081Z</time>
      </trkpt>
      <trkpt lat="50.883451" lon="5.747435">
        <ele>50.895831</ele>
        <time>2022-05-16T23:27:44.441Z</time>
      </trkpt>
      <trkpt lat="50.883290" lon="5.748030">
        <ele>51.285399</ele>
        <time>2022-05-16T23:27:54.972Z</time>
      </trkpt>
      <trkpt lat="50.883257" lon="5.748342">
        <ele>51.496686</ele>
        <time>2022-05-16T23:28:00.230Z</time>
      </trkpt>
      <trkpt lat="50.883219" lon="5.748699">
        <ele>51.738490</ele>
        <time>2022-05-16T23:28:05.986Z</time>
      </trkpt>
      <trkpt lat="50.883198" lon="5.749483">
        <ele>52.262582</ele>
        <time>2022-05-16T23:28:18.398Z</time>
      </trkpt>
      <trkpt lat="50.883177" lon="5.750268">
        <ele>52.787342</ele>
        <time>2022-05-16T23:28:30.136Z</time>
      </trkpt>
      <trkpt lat="50.883155" lon="5.750403">
        <ele>52.880465</ele>
        <time>2022-05-16T23:28:32.195Z</time>
      </trkpt>
      <trkpt lat="50.883127" lon="5.750584">
        <ele>53.004933</ele>
        <time>2022-05-16T23:28:34.904Z</time>
      </trkpt>
      <trkpt lat="50.883019" lon="5.751244">
        <ele>53.158905</ele>
        <time>2022-05-16T23:28:44.532Z</time>
      </trkpt>
      <trkpt lat="50.882925" lon="5.751493">
        <ele>53.216739</ele>
        <time>2022-05-16T23:28:48.797Z</time>
      </trkpt>
      <trkpt lat="50.882937" lon="5.751587">
        <ele>53.235854</ele>
        <time>2022-05-16T23:28:55.676Z</time>
      </trkpt>
      <trkpt lat="50.882840" lon="5.751642">
        <ele>53.268399</ele>
        <time>2022-05-16T23:28:57.277Z</time>
      </trkpt>
      <trkpt lat="50.882437" lon="5.751564">
        <ele>53.396657</ele>
        <time>2022-05-16T23:29:04.010Z</time>
      </trkpt>
      <trkpt lat="50.882368" lon="5.751515">
        <ele>53.420543</ele>
        <time>2022-05-16T23:29:05.280Z</time>
      </trkpt>
      <trkpt lat="50.882126" lon="5.751320">
        <ele>53.506305</ele>
        <time>2022-05-16T23:29:09.332Z</time>
      </trkpt>
      <trkpt lat="50.881749" lon="5.750987">
        <ele>53.525161</ele>
        <time>2022-05-16T23:29:15.491Z</time>
      </trkpt>
      <trkpt lat="50.881138" lon="5.750431">
        <ele>53.149921</ele>
        <time>2022-05-16T23:29:24.758Z</time>
      </trkpt>
      <trkpt lat="50.881070" lon="5.750349">
        <ele>53.104413</ele>
        <time>2022-05-16T23:29:25.898Z</time>
      </trkpt>
      <trkpt lat="50.881024" lon="5.750292">
        <ele>53.073314</ele>
        <time>2022-05-16T23:29:26.675Z</time>
      </trkpt>
      <trkpt lat="50.880733" lon="5.749547">
        <ele>52.778874</ele>
        <time>2022-05-16T23:29:33.983Z</time>
      </trkpt>
      <trkpt lat="50.880123" lon="5.747760">
        <ele>52.138768</ele>
        <time>2022-05-16T23:29:49.999Z</time>
      </trkpt>
      <trkpt lat="50.880075" lon="5.747610">
        <ele>52.086673</ele>
        <time>2022-05-16T23:29:51.308Z</time>
      </trkpt>
      <trkpt lat="50.880006" lon="5.747393">
        <ele>52.011407</ele>
        <time>2022-05-16T23:29:53.167Z</time>
      </trkpt>
      <trkpt lat="50.879154" lon="5.744974">
        <ele>52.879530</ele>
        <time>2022-05-16T23:30:20.912Z</time>
      </trkpt>
      <trkpt lat="50.878712" lon="5.744207">
        <ele>53.568654</ele>
        <time>2022-05-16T23:30:36.806Z</time>
      </trkpt>
      <trkpt lat="50.878648" lon="5.743925">
        <ele>53.938120</ele>
        <time>2022-05-16T23:30:41.594Z</time>
      </trkpt>
      <trkpt lat="50.878523" lon="5.743980">
        <ele>54.191595</ele>
        <time>2022-05-16T23:30:45.400Z</time>
      </trkpt>
      <trkpt lat="50.878013" lon="5.744709">
        <ele>55.533510</ele>
        <time>2022-05-16T23:31:03.241Z</time>
      </trkpt>
      <trkpt lat="50.877705" lon="5.745101">
        <ele>56.305342</ele>
        <time>2022-05-16T23:31:13.347Z</time>
      </trkpt>
      <trkpt lat="50.877690" lon="5.745330">
        <ele>56.589186</ele>
        <time>2022-05-16T23:31:17.809Z</time>
      </trkpt>
      <trkpt lat="50.878013" lon="5.746887">
        <ele>59.465781</ele>
        <time>2022-05-16T23:31:50.579Z</time>
      </trkpt>
      <trkpt lat="50.877821" lon="5.746971">
        <ele>60.050942</ele>
        <time>2022-05-16T23:31:57.047Z</time>
      </trkpt>
      <trkpt lat="50.877422" lon="5.747205">
        <ele>61.300821</ele>
        <time>2022-05-16T23:32:08.175Z</time>
      </trkpt>
      <trkpt lat="50.877103" lon="5.747383">
        <ele>62.294158</ele>
        <time>2022-05-16T23:32:19.110Z</time>
      </trkpt>
      <trkpt lat="50.877063" lon="5.747388">
        <ele>62.411774</ele>
        <time>2022-05-16T23:32:20.457Z</time>
      </trkpt>
      <trkpt lat="50.876997" lon="5.747398">
        <ele>62.606122</ele>
        <time>2022-05-16T23:32:22.623Z</time>
      </trkpt>
      <trkpt lat="50.876863" lon="5.747434">
        <ele>63.004520</ele>
        <time>2022-05-16T23:32:27.047Z</time>
      </trkpt>
      <trkpt lat="50.876737" lon="5.746763">
        <ele>64.299406</ele>
        <time>2022-05-16T23:32:41.232Z</time>
      </trkpt>
      <trkpt lat="50.876483" lon="5.745404">
        <ele>66.921001</ele>
        <time>2022-05-16T23:33:05.794Z</time>
      </trkpt>
      <trkpt lat="50.876392" lon="5.745095">
        <ele>67.464471</ele>
        <time>2022-05-16T23:33:10.039Z</time>
      </trkpt>
      <trkpt lat="50.876102" lon="5.744329">
        <ele>67.423571</ele>
        <time>2022-05-16T23:33:21.654Z</time>
      </trkpt>
      <trkpt lat="50.874819" lon="5.742074">
        <ele>66.463645</ele>
        <time>2022-05-16T23:33:56.623Z</time>
      </trkpt>
      <trkpt lat="50.873618" lon="5.741402">
        <ele>64.626568</ele>
        <time>2022-05-16T23:34:17.543Z</time>
      </trkpt>
      <trkpt lat="50.873216" lon="5.740707">
        <ele>63.020774</ele>
        <time>2022-05-16T23:34:26.607Z</time>
      </trkpt>
      <trkpt lat="50.873151" lon="5.740508">
        <ele>62.639114</ele>
        <time>2022-05-16T23:34:28.631Z</time>
      </trkpt>
      <trkpt lat="50.873166" lon="5.739911">
        <ele>61.621472</ele>
        <time>2022-05-16T23:34:34.212Z</time>
      </trkpt>
      <trkpt lat="50.873079" lon="5.739458">
        <ele>60.814960</ele>
        <time>2022-05-16T23:34:38.558Z</time>
      </trkpt>
      <trkpt lat="50.872528" lon="5.739602">
        <ele>59.369272</ele>
        <time>2022-05-16T23:34:46.641Z</time>
      </trkpt>
      <trkpt lat="50.871518" lon="5.740072">
        <ele>56.709724</ele>
        <time>2022-05-16T23:35:02.268Z</time>
      </trkpt>
      <trkpt lat="50.871471" lon="5.740094">
        <ele>56.585905</ele>
        <time>2022-05-16T23:35:03.102Z</time>
      </trkpt>
      <trkpt lat="50.870424" lon="5.740215">
        <ele>55.029363</ele>
        <time>2022-05-16T23:35:21.133Z</time>
      </trkpt>
      <trkpt lat="50.869701" lon="5.740149">
        <ele>54.317657</ele>
        <time>2022-05-16T23:35:33.746Z</time>
      </trkpt>
      <trkpt lat="50.868971" lon="5.740062">
        <ele>53.811735</ele>
        <time>2022-05-16T23:35:47.209Z</time>
      </trkpt>
      <trkpt lat="50.868091" lon="5.739956">
        <ele>53.457289</ele>
        <time>2022-05-16T23:36:04.135Z</time>
      </trkpt>
      <trkpt lat="50.868018" lon="5.739958">
        <ele>53.427967</ele>
        <time>2022-05-16T23:36:05.486Z</time>
      </trkpt>
      <trkpt lat="50.867695" lon="5.739914">
        <ele>53.297765</ele>
        <time>2022-05-16T23:36:11.426Z</time>
      </trkpt>
      <trkpt lat="50.866652" lon="5.739549">
        <ele>53.129065</ele>
        <time>2022-05-16T23:36:31.979Z</time>
      </trkpt>
      <trkpt lat="50.866330" lon="5.739436">
        <ele>53.090259</ele>
        <time>2022-05-16T23:36:38.680Z</time>
      </trkpt>
      <trkpt lat="50.865756" lon="5.739238">
        <ele>53.042309</ele>
        <time>2022-05-16T23:36:50.654Z</time>
      </trkpt>
      <trkpt lat="50.864952" lon="5.738990">
        <ele>53.437928</ele>
        <time>2022-05-16T23:37:07.485Z</time>
      </trkpt>
      <trkpt lat="50.864901" lon="5.738980">
        <ele>53.462749</ele>
        <time>2022-05-16T23:37:08.599Z</time>
      </trkpt>
      <trkpt lat="50.863725" lon="5.738702">
        <ele>54.242694</ele>
        <time>2022-05-16T23:37:36.541Z</time>
      </trkpt>
      <trkpt lat="50.863425" lon="5.738644">
        <ele>54.598573</ele>
        <time>2022-05-16T23:37:44.294Z</time>
      </trkpt>
      <trkpt lat="50.863380" lon="5.738636">
        <ele>54.651894</ele>
        <time>2022-05-16T23:37:45.398Z</time>
      </trkpt>
      <trkpt lat="50.863342" lon="5.738607">
        <ele>54.701560</ele>
        <time>2022-05-16T23:37:46.480Z</time>
      </trkpt>
      <trkpt lat="50.862906" lon="5.738624">
        <ele>55.215118</ele>
        <time>2022-05-16T23:37:57.499Z</time>
      </trkpt>
      <trkpt lat="50.862391" lon="5.738687">
        <ele>55.823349</ele>
        <time>2022-05-16T23:38:10.824Z</time>
      </trkpt>
      <trkpt lat="50.861868" lon="5.738761">
        <ele>56.193344</ele>
        <time>2022-05-16T23:38:24.428Z</time>
      </trkpt>
      <trkpt lat="50.861092" lon="5.738980">
        <ele>56.585125</ele>
        <time>2022-05-16T23:38:42.616Z</time>
      </trkpt>
      <trkpt lat="50.860739" lon="5.738981">
        <ele>56.760584</ele>
        <time>2022-05-16T23:38:49.565Z</time>
      </trkpt>
      <trkpt lat="50.860110" lon="5.738904">
        <ele>56.742443</ele>
        <time>2022-05-16T23:39:01.280Z</time>
      </trkpt>
      <trkpt lat="50.860015" lon="5.738903">
        <ele>56.696523</ele>
        <time>2022-05-16T23:39:02.955Z</time>
      </trkpt>
      <trkpt lat="50.859606" lon="5.738921">
        <ele>56.498750</ele>
        <time>2022-05-16T23:39:10.425Z</time>
      </trkpt>
      <trkpt lat="50.858380" lon="5.738930">
        <ele>56.063067</ele>
        <time>2022-05-16T23:39:33.015Z</time>
      </trkpt>
      <trkpt lat="50.857259" lon="5.738827">
        <ele>56.173244</ele>
        <time>2022-05-16T23:39:56.573Z</time>
      </trkpt>
      <trkpt lat="50.856516" lon="5.738720">
        <ele>56.450556</ele>
        <time>2022-05-16T23:40:12.945Z</time>
      </trkpt>
      <trkpt lat="50.854751" lon="5.742051">
        <ele>58.458051</ele>
        <time>2022-05-16T23:41:17.166Z</time>
      </trkpt>
      <trkpt lat="50.854704" lon="5.742134">
        <ele>58.512162</ele>
        <time>2022-05-16T23:41:18.891Z</time>
      </trkpt>
      <trkpt lat="50.854649" lon="5.742199">
        <ele>58.564915</ele>
        <time>2022-05-16T23:41:20.554Z</time>
      </trkpt>
      <trkpt lat="50.852083" lon="5.744817">
        <ele>60.173212</ele>
        <time>2022-05-16T23:42:12.440Z</time>
      </trkpt>
      <trkpt lat="50.851346" lon="5.745482">
        <ele>60.495779</ele>
        <time>2022-05-16T23:42:25.580Z</time>
      </trkpt>
      <trkpt lat="50.850651" lon="5.745968">
        <ele>60.912524</ele>
        <time>2022-05-16T23:42:37.820Z</time>
      </trkpt>
      <trkpt lat="50.850583" lon="5.746013">
        <ele>60.954202</ele>
        <time>2022-05-16T23:42:38.982Z</time>
      </trkpt>
      <trkpt lat="50.850398" lon="5.746328">
        <ele>61.107810</ele>
        <time>2022-05-16T23:42:43.263Z</time>
      </trkpt>
      <trkpt lat="50.850327" lon="5.746859">
        <ele>61.301608</ele>
        <time>2022-05-16T23:42:48.690Z</time>
      </trkpt>
      <trkpt lat="50.850265" lon="5.747074">
        <ele>61.386002</ele>
        <time>2022-05-16T23:42:51.397Z</time>
      </trkpt>
      <trkpt lat="50.849896" lon="5.747751">
        <ele>62.337942</ele>
        <time>2022-05-16T23:43:02.519Z</time>
      </trkpt>
      <trkpt lat="50.849563" lon="5.748596">
        <ele>64.049891</ele>
        <time>2022-05-16T23:43:17.989Z</time>
      </trkpt>
      <trkpt lat="50.849533" lon="5.748679">
        <ele>64.214262</ele>
        <time>2022-05-16T23:43:19.528Z</time>
      </trkpt>
      <trkpt lat="50.848465" lon="5.750924">
        <ele>69.911930</ele>
        <time>2022-05-16T23:44:12.483Z</time>
      </trkpt>
      <trkpt lat="50.848013" lon="5.751575">
        <ele>72.127217</ele>
        <time>2022-05-16T23:44:31.114Z</time>
      </trkpt>
      <trkpt lat="50.847486" lon="5.752144">
        <ele>73.731275</ele>
        <time>2022-05-16T23:44:48.374Z</time>
      </trkpt>
      <trkpt lat="50.847341" lon="5.752451">
        <ele>74.189406</ele>
        <time>2022-05-16T23:44:54.463Z</time>
      </trkpt>
      <trkpt lat="50.847301" lon="5.754095">
        <ele>76.155350</ele>
        <time>2022-05-16T23:45:15.987Z</time>
      </trkpt>
      <trkpt lat="50.847258" lon="5.755687">
        <ele>76.949028</ele>
        <time>2022-05-16T23:45:32.518Z</time>
      </trkpt>
      <trkpt lat="50.847082" lon="5.757182">
        <ele>77.603685</ele>
        <time>2022-05-16T23:45:49.065Z</time>
      </trkpt>
      <trkpt lat="50.847069" lon="5.757280">
        <ele>77.673060</ele>
        <time>2022-05-16T23:45:50.258Z</time>
      </trkpt>
      <trkpt lat="50.847008" lon="5.758152">
        <ele>78.280867</ele>
        <time>2022-05-16T23:46:00.453Z</time>
      </trkpt>
      <trkpt lat="50.847012" lon="5.758308">
        <ele>78.389031</ele>
        <time>2022-05-16T23:46:02.857Z</time>
      </trkpt>
      <trkpt lat="50.847025" lon="5.758447">
        <ele>78.486379</ele>
        <time>2022-05-16T23:46:05.062Z</time>
      </trkpt>
      <trkpt lat="50.847108" lon="5.759163">
        <ele>78.990706</ele>
        <time>2022-05-16T23:46:14.202Z</time>
      </trkpt>
      <trkpt lat="50.847298" lon="5.760058">
        <ele>79.605386</ele>
        <time>2022-05-16T23:46:26.367Z</time>
      </trkpt>
      <trkpt lat="50.847362" lon="5.760519">
        <ele>79.834595</ele>
        <time>2022-05-16T23:46:32.302Z</time>
      </trkpt>
      <trkpt lat="50.847369" lon="5.761386">
        <ele>80.255644</ele>
        <time>2022-05-16T23:46:42.614Z</time>
      </trkpt>
      <trkpt lat="50.847580" lon="5.762624">
        <ele>80.878331</ele>
        <time>2022-05-16T23:46:55.700Z</time>
      </trkpt>
      <trkpt lat="50.847566" lon="5.763707">
        <ele>82.265446</ele>
        <time>2022-05-16T23:47:06.541Z</time>
      </trkpt>
      <trkpt lat="50.847566" lon="5.763971">
        <ele>82.610890</ele>
        <time>2022-05-16T23:47:10.534Z</time>
      </trkpt>
      <trkpt lat="50.847584" lon="5.764135">
        <ele>82.828702</ele>
        <time>2022-05-16T23:47:13.497Z</time>
      </trkpt>
      <trkpt lat="50.847495" lon="5.765032">
        <ele>84.016831</ele>
        <time>2022-05-16T23:47:27.212Z</time>
      </trkpt>
      <trkpt lat="50.847570" lon="5.765622">
        <ele>85.162831</ele>
        <time>2022-05-16T23:47:39.455Z</time>
      </trkpt>
      <trkpt lat="50.847585" lon="5.765698">
        <ele>85.473868</ele>
        <time>2022-05-16T23:47:41.628Z</time>
      </trkpt>
      <trkpt lat="50.847603" lon="5.765790">
        <ele>85.850095</ele>
        <time>2022-05-16T23:47:44.527Z</time>
      </trkpt>
      <trkpt lat="50.847624" lon="5.765886">
        <ele>86.246957</ele>
        <time>2022-05-16T23:47:47.590Z</time>
      </trkpt>
      <trkpt lat="50.847636" lon="5.765942">
        <ele>86.477958</ele>
        <time>2022-05-16T23:47:49.362Z</time>
      </trkpt>
      <trkpt lat="50.847821" lon="5.766617">
        <ele>89.352323</ele>
        <time>2022-05-16T23:48:08.632Z</time>
      </trkpt>
      <trkpt lat="50.847834" lon="5.766646">
        <ele>89.491250</ele>
        <time>2022-05-16T23:48:09.435Z</time>
      </trkpt>
      <trkpt lat="50.848055" lon="5.767218">
        <ele>92.110712</ele>
        <time>2022-05-16T23:48:26.475Z</time>
      </trkpt>
      <trkpt lat="50.848005" lon="5.767500">
        <ele>93.254855</ele>
        <time>2022-05-16T23:48:33.985Z</time>
      </trkpt>
      <trkpt lat="50.847749" lon="5.768085">
        <ele>95.985170</ele>
        <time>2022-05-16T23:48:54.567Z</time>
      </trkpt>
      <trkpt lat="50.847751" lon="5.768185">
        <ele>96.307132</ele>
        <time>2022-05-16T23:48:57.257Z</time>
      </trkpt>
      <trkpt lat="50.847823" lon="5.768609">
        <ele>97.720054</ele>
        <time>2022-05-16T23:49:08.350Z</time>
      </trkpt>
      <trkpt lat="50.847925" lon="5.768807">
        <ele>98.542393</ele>
        <time>2022-05-16T23:49:14.564Z</time>
      </trkpt>
      <trkpt lat="50.848393" lon="5.768831">
        <ele>100.928928</ele>
        <time>2022-05-16T23:49:30.662Z</time>
      </trkpt>
      <trkpt lat="50.848549" lon="5.769075">
        <ele>102.046374</ele>
        <time>2022-05-16T23:49:39.484Z</time>
      </trkpt>
      <trkpt lat="50.848805" lon="5.769849">
        <ele>104.858129</ele>
        <time>2022-05-16T23:49:54.803Z</time>
      </trkpt>
      <trkpt lat="50.848840" lon="5.770071">
        <ele>105.472060</ele>
        <time>2022-05-16T23:49:59.285Z</time>
      </trkpt>
      <trkpt lat="50.848816" lon="5.770249">
        <ele>105.951696</ele>
        <time>2022-05-16T23:50:01.753Z</time>
      </trkpt>
      <trkpt lat="50.848646" lon="5.770463">
        <ele>106.858036</ele>
        <time>2022-05-16T23:50:08.228Z</time>
      </trkpt>
      <trkpt lat="50.848458" lon="5.770444">
        <ele>107.644293</ele>
        <time>2022-05-16T23:50:13.084Z</time>
      </trkpt>
      <trkpt lat="50.848087" lon="5.769812">
        <ele>109.918367</ele>
        <time>2022-05-16T23:50:31.221Z</time>
      </trkpt>
      <trkpt lat="50.848075" lon="5.769801">
        <ele>109.976235</ele>
        <time>2022-05-16T23:50:31.630Z</time>
      </trkpt>
      <trkpt lat="50.848053" lon="5.769787">
        <ele>110.075192</ele>
        <time>2022-05-16T23:50:32.366Z</time>
      </trkpt>
      <trkpt lat="50.847689" lon="5.769696">
        <ele>111.613240</ele>
        <time>2022-05-16T23:50:44.513Z</time>
      </trkpt>
      <trkpt lat="50.847397" lon="5.769691">
        <ele>112.783054</ele>
        <time>2022-05-16T23:50:54.788Z</time>
      </trkpt>
      <trkpt lat="50.847023" lon="5.769805">
        <ele>114.181029</ele>
        <time>2022-05-16T23:51:08.148Z</time>
      </trkpt>
      <trkpt lat="50.846885" lon="5.769900">
        <ele>114.733344</ele>
        <time>2022-05-16T23:51:13.065Z</time>
      </trkpt>
      <trkpt lat="50.846769" lon="5.770122">
        <ele>115.401177</ele>
        <time>2022-05-16T23:51:18.886Z</time>
      </trkpt>
      <trkpt lat="50.846690" lon="5.770480">
        <ele>116.280079</ele>
        <time>2022-05-16T23:51:25.847Z</time>
      </trkpt>
      <trkpt lat="50.846499" lon="5.771257">
        <ele>118.212495</ele>
        <time>2022-05-16T23:51:40.073Z</time>
      </trkpt>
      <trkpt lat="50.846442" lon="5.771427">
        <ele>118.658590</ele>
        <time>2022-05-16T23:51:43.132Z</time>
      </trkpt>
      <trkpt lat="50.846204" lon="5.772144">
        <ele>119.601181</ele>
        <time>2022-05-16T23:51:55.088Z</time>
      </trkpt>
      <trkpt lat="50.845831" lon="5.772898">
        <ele>120.445263</ele>
        <time>2022-05-16T23:52:07.157Z</time>
      </trkpt>
      <trkpt lat="50.845737" lon="5.773090">
        <ele>120.659360</ele>
        <time>2022-05-16T23:52:10.027Z</time>
      </trkpt>
      <trkpt lat="50.845409" lon="5.773803">
        <ele>121.436748</ele>
        <time>2022-05-16T23:52:19.815Z</time>
      </trkpt>
      <trkpt lat="50.845164" lon="5.774845">
        <ele>122.469419</ele>
        <time>2022-05-16T23:52:33.148Z</time>
      </trkpt>
      <trkpt lat="50.844866" lon="5.776177">
        <ele>123.789608</ele>
        <time>2022-05-16T23:52:52.013Z</time>
      </trkpt>
      <trkpt lat="50.844574" lon="5.778233">
        <ele>126.250150</ele>
        <time>2022-05-16T23:53:22.724Z</time>
      </trkpt>
      <trkpt lat="50.844411" lon="5.779541">
        <ele>127.882028</ele>
        <time>2022-05-16T23:53:41.538Z</time>
      </trkpt>
      <trkpt lat="50.843985" lon="5.782606">
        <ele>131.785465</ele>
        <time>2022-05-16T23:54:25.201Z</time>
      </trkpt>
      <trkpt lat="50.843911" lon="5.783979">
        <ele>133.979281</ele>
        <time>2022-05-16T23:54:47.647Z</time>
      </trkpt>
      <trkpt lat="50.843831" lon="5.785138">
        <ele>135.794127</ele>
        <time>2022-05-16T23:55:07.011Z</time>
      </trkpt>
      <trkpt lat="50.843723" lon="5.785766">
        <ele>136.636730</ele>
        <time>2022-05-16T23:55:17.808Z</time>
      </trkpt>
      <trkpt lat="50.843277" lon="5.788362">
        <ele>139.607797</ele>
        <time>2022-05-16T23:55:55.066Z</time>
      </trkpt>
      <trkpt lat="50.842226" lon="5.787471">
        <ele>140.522124</ele>
        <time>2022-05-16T23:56:14.737Z</time>
      </trkpt>
      <trkpt lat="50.838351" lon="5.786080">
        <ele>141.826591</ele>
        <time>2022-05-16T23:57:19.882Z</time>
      </trkpt>
      <trkpt lat="50.838271" lon="5.786096">
        <ele>141.766256</ele>
        <time>2022-05-16T23:57:20.897Z</time>
      </trkpt>
      <trkpt lat="50.838183" lon="5.786269">
        <ele>141.661288</ele>
        <time>2022-05-16T23:57:22.925Z</time>
      </trkpt>
      <trkpt lat="50.837008" lon="5.785625">
        <ele>140.730922</ele>
        <time>2022-05-16T23:57:37.814Z</time>
      </trkpt>
      <trkpt lat="50.836052" lon="5.784461">
        <ele>140.504160</ele>
        <time>2022-05-16T23:57:52.905Z</time>
      </trkpt>
      <trkpt lat="50.835767" lon="5.785010">
        <ele>140.459891</ele>
        <time>2022-05-16T23:58:00.026Z</time>
      </trkpt>
      <trkpt lat="50.834905" lon="5.787561">
        <ele>142.638745</ele>
        <time>2022-05-16T23:58:38.686Z</time>
      </trkpt>
      <trkpt lat="50.834032" lon="5.790052">
        <ele>144.771575</ele>
        <time>2022-05-16T23:59:15.133Z</time>
      </trkpt>
      <trkpt lat="50.833691" lon="5.790840">
        <ele>145.061488</ele>
        <time>2022-05-16T23:59:25.279Z</time>
      </trkpt>
      <trkpt lat="50.832946" lon="5.792506">
        <ele>144.946482</ele>
        <time>2022-05-16T23:59:43.442Z</time>
      </trkpt>
      <trkpt lat="50.832505" lon="5.793753">
        <ele>144.140577</ele>
        <time>2022-05-16T23:59:54.760Z</time>
      </trkpt>
      <trkpt lat="50.831971" lon="5.794833">
        <ele>143.185465</ele>
        <time>2022-05-17T00:00:05.239Z</time>
      </trkpt>
      <trkpt lat="50.831625" lon="5.796913">
        <ele>139.958693</ele>
        <time>2022-05-17T00:00:20.223Z</time>
      </trkpt>
      <trkpt lat="50.831369" lon="5.797652">
        <ele>138.565801</ele>
        <time>2022-05-17T00:00:25.532Z</time>
      </trkpt>
      <trkpt lat="50.831172" lon="5.798492">
        <ele>136.364615</ele>
        <time>2022-05-17T00:00:30.995Z</time>
      </trkpt>
      <trkpt lat="50.831111" lon="5.798783">
        <ele>135.542032</ele>
        <time>2022-05-17T00:00:32.850Z</time>
      </trkpt>
      <trkpt lat="50.831058" lon="5.799034">
        <ele>134.832002</ele>
        <time>2022-05-17T00:00:34.435Z</time>
      </trkpt>
      <trkpt lat="50.830998" lon="5.799321">
        <ele>134.020940</ele>
        <time>2022-05-17T00:00:36.257Z</time>
      </trkpt>
      <trkpt lat="50.830798" lon="5.800235">
        <ele>131.425815</ele>
        <time>2022-05-17T00:00:42.041Z</time>
      </trkpt>
      <trkpt lat="50.830686" lon="5.800507">
        <ele>130.587656</ele>
        <time>2022-05-17T00:00:44.033Z</time>
      </trkpt>
      <trkpt lat="50.830465" lon="5.800788">
        <ele>130.248382</ele>
        <time>2022-05-17T00:00:46.856Z</time>
      </trkpt>
      <trkpt lat="50.829653" lon="5.801489">
        <ele>129.141348</ele>
        <time>2022-05-17T00:00:57.349Z</time>
      </trkpt>
      <trkpt lat="50.829089" lon="5.802174">
        <ele>128.809552</ele>
        <time>2022-05-17T00:01:10.357Z</time>
      </trkpt>
      <trkpt lat="50.829050" lon="5.802226">
        <ele>128.950056</ele>
        <time>2022-05-17T00:01:11.460Z</time>
      </trkpt>
      <trkpt lat="50.828303" lon="5.802991">
        <ele>131.401620</ele>
        <time>2022-05-17T00:01:34.290Z</time>
      </trkpt>
      <trkpt lat="50.827026" lon="5.803808">
        <ele>136.034966</ele>
        <time>2022-05-17T00:02:15.001Z</time>
      </trkpt>
      <trkpt lat="50.826756" lon="5.804162">
        <ele>137.452489</ele>
        <time>2022-05-17T00:02:25.948Z</time>
      </trkpt>
      <trkpt lat="50.826491" lon="5.804636">
        <ele>139.069221</ele>
        <time>2022-05-17T00:02:38.657Z</time>
      </trkpt>
      <trkpt lat="50.826008" lon="5.806166">
        <ele>143.548417</ele>
        <time>2022-05-17T00:03:13.781Z</time>
      </trkpt>
      <trkpt lat="50.825219" lon="5.807794">
        <ele>148.815505</ele>
        <time>2022-05-17T00:03:54.583Z</time>
      </trkpt>
      <trkpt lat="50.824933" lon="5.808810">
        <ele>151.054684</ele>
        <time>2022-05-17T00:04:14.690Z</time>
      </trkpt>
      <trkpt lat="50.824722" lon="5.809116">
        <ele>151.966611</ele>
        <time>2022-05-17T00:04:22.399Z</time>
      </trkpt>
      <trkpt lat="50.823978" lon="5.809916">
        <ele>154.723872</ele>
        <time>2022-05-17T00:04:44.662Z</time>
      </trkpt>
      <trkpt lat="50.823552" lon="5.810566">
        <ele>156.370584</ele>
        <time>2022-05-17T00:05:00.014Z</time>
      </trkpt>
      <trkpt lat="50.823316" lon="5.811179">
        <ele>157.632706</ele>
        <time>2022-05-17T00:05:12.159Z</time>
      </trkpt>
      <trkpt lat="50.823080" lon="5.811991">
        <ele>159.215726</ele>
        <time>2022-05-17T00:05:26.763Z</time>
      </trkpt>
      <trkpt lat="50.822775" lon="5.812719">
        <ele>160.830132</ele>
        <time>2022-05-17T00:05:41.302Z</time>
      </trkpt>
      <trkpt lat="50.822405" lon="5.813490">
        <ele>162.619545</ele>
        <time>2022-05-17T00:05:57.501Z</time>
      </trkpt>
      <trkpt lat="50.821972" lon="5.814446">
        <ele>164.764313</ele>
        <time>2022-05-17T00:06:17.903Z</time>
      </trkpt>
      <trkpt lat="50.821959" lon="5.814473">
        <ele>164.823738</ele>
        <time>2022-05-17T00:06:18.483Z</time>
      </trkpt>
      <trkpt lat="50.821917" lon="5.814555">
        <ele>165.008528</ele>
        <time>2022-05-17T00:06:20.277Z</time>
      </trkpt>
      <trkpt lat="50.821740" lon="5.815006">
        <ele>165.937939</ele>
        <time>2022-05-17T00:06:28.960Z</time>
      </trkpt>
      <trkpt lat="50.821605" lon="5.815534">
        <ele>166.935028</ele>
        <time>2022-05-17T00:06:38.443Z</time>
      </trkpt>
      <trkpt lat="50.821364" lon="5.816482">
        <ele>168.723825</ele>
        <time>2022-05-17T00:06:55.133Z</time>
      </trkpt>
      <trkpt lat="50.820955" lon="5.817733">
        <ele>170.266011</ele>
        <time>2022-05-17T00:07:16.499Z</time>
      </trkpt>
      <trkpt lat="50.820884" lon="5.817961">
        <ele>170.501873</ele>
        <time>2022-05-17T00:07:20.067Z</time>
      </trkpt>
      <trkpt lat="50.820200" lon="5.819204">
        <ele>171.747028</ele>
        <time>2022-05-17T00:07:39.847Z</time>
      </trkpt>
      <trkpt lat="50.819557" lon="5.820209">
        <ele>170.791882</ele>
        <time>2022-05-17T00:07:51.299Z</time>
      </trkpt>
      <trkpt lat="50.819503" lon="5.820290">
        <ele>170.713247</ele>
        <time>2022-05-17T00:07:52.180Z</time>
      </trkpt>
      <trkpt lat="50.819032" lon="5.819604">
        <ele>170.036712</ele>
        <time>2022-05-17T00:07:59.299Z</time>
      </trkpt>
      <trkpt lat="50.818993" lon="5.819552">
        <ele>169.982813</ele>
        <time>2022-05-17T00:07:59.848Z</time>
      </trkpt>
      <trkpt lat="50.818934" lon="5.819473">
        <ele>169.787310</ele>
        <time>2022-05-17T00:08:00.678Z</time>
      </trkpt>
      <trkpt lat="50.818879" lon="5.819411">
        <ele>169.588530</ele>
        <time>2022-05-17T00:08:01.395Z</time>
      </trkpt>
      <trkpt lat="50.818055" lon="5.818428">
        <ele>166.550928</ele>
        <time>2022-05-17T00:08:11.977Z</time>
      </trkpt>
      <trkpt lat="50.817834" lon="5.818174">
        <ele>165.746897</ele>
        <time>2022-05-17T00:08:14.722Z</time>
      </trkpt>
      <trkpt lat="50.817763" lon="5.818103">
        <ele>165.499659</ele>
        <time>2022-05-17T00:08:15.577Z</time>
      </trkpt>
      <trkpt lat="50.817482" lon="5.817878">
        <ele>164.572067</ele>
        <time>2022-05-17T00:08:18.727Z</time>
      </trkpt>
      <trkpt lat="50.817307" lon="5.817638">
        <ele>163.886717</ele>
        <time>2022-05-17T00:08:21.052Z</time>
      </trkpt>
      <trkpt lat="50.816493" lon="5.816171">
        <ele>160.235658</ele>
        <time>2022-05-17T00:08:33.540Z</time>
      </trkpt>
      <trkpt lat="50.815556" lon="5.814895">
        <ele>158.111109</ele>
        <time>2022-05-17T00:08:47.233Z</time>
      </trkpt>
      <trkpt lat="50.815513" lon="5.814843">
        <ele>158.039669</ele>
        <time>2022-05-17T00:08:47.880Z</time>
      </trkpt>
      <trkpt lat="50.815131" lon="5.814243">
        <ele>157.329188</ele>
        <time>2022-05-17T00:08:54.589Z</time>
      </trkpt>
      <trkpt lat="50.814582" lon="5.812946">
        <ele>157.400514</ele>
        <time>2022-05-17T00:09:08.858Z</time>
      </trkpt>
      <trkpt lat="50.814193" lon="5.812360">
        <ele>157.722291</ele>
        <time>2022-05-17T00:09:18.588Z</time>
      </trkpt>
      <trkpt lat="50.813852" lon="5.812143">
        <ele>157.942505</ele>
        <time>2022-05-17T00:09:25.625Z</time>
      </trkpt>
      <trkpt lat="50.812584" lon="5.811780">
        <ele>159.737952</ele>
        <time>2022-05-17T00:09:53.111Z</time>
      </trkpt>
      <trkpt lat="50.812277" lon="5.811617">
        <ele>160.230484</ele>
        <time>2022-05-17T00:10:00.270Z</time>
      </trkpt>
      <trkpt lat="50.811935" lon="5.811239">
        <ele>160.820211</ele>
        <time>2022-05-17T00:10:09.334Z</time>
      </trkpt>
      <trkpt lat="50.810807" lon="5.809669">
        <ele>161.822877</ele>
        <time>2022-05-17T00:10:36.783Z</time>
      </trkpt>
      <trkpt lat="50.809975" lon="5.808731">
        <ele>160.826420</ele>
        <time>2022-05-17T00:10:49.952Z</time>
      </trkpt>
      <trkpt lat="50.809890" lon="5.808635">
        <ele>160.670711</ele>
        <time>2022-05-17T00:10:51.125Z</time>
      </trkpt>
      <trkpt lat="50.809754" lon="5.808266">
        <ele>160.268216</ele>
        <time>2022-05-17T00:10:54.198Z</time>
      </trkpt>
      <trkpt lat="50.809692" lon="5.807781">
        <ele>159.801984</ele>
        <time>2022-05-17T00:10:57.607Z</time>
      </trkpt>
      <trkpt lat="50.809767" lon="5.804859">
        <ele>155.585542</ele>
        <time>2022-05-17T00:11:16.487Z</time>
      </trkpt>
      <trkpt lat="50.809735" lon="5.804716">
        <ele>155.350091</ele>
        <time>2022-05-17T00:11:17.408Z</time>
      </trkpt>
      <trkpt lat="50.809463" lon="5.804504">
        <ele>155.040726</ele>
        <time>2022-05-17T00:11:21.760Z</time>
      </trkpt>
      <trkpt lat="50.809030" lon="5.804302">
        <ele>155.652106</ele>
        <time>2022-05-17T00:11:28.762Z</time>
      </trkpt>
      <trkpt lat="50.808150" lon="5.804207">
        <ele>156.846696</ele>
        <time>2022-05-17T00:11:47.989Z</time>
      </trkpt>
      <trkpt lat="50.807885" lon="5.804040">
        <ele>157.233008</ele>
        <time>2022-05-17T00:11:56.606Z</time>
      </trkpt>
      <trkpt lat="50.807301" lon="5.803860">
        <ele>158.494649</ele>
        <time>2022-05-17T00:12:14.250Z</time>
      </trkpt>
      <trkpt lat="50.805848" lon="5.803598">
        <ele>161.269595</ele>
        <time>2022-05-17T00:12:46.542Z</time>
      </trkpt>
      <trkpt lat="50.805398" lon="5.803615">
        <ele>161.182373</ele>
        <time>2022-05-17T00:12:53.763Z</time>
      </trkpt>
      <trkpt lat="50.804912" lon="5.803438">
        <ele>161.085739</ele>
        <time>2022-05-17T00:13:00.540Z</time>
      </trkpt>
      <trkpt lat="50.804317" lon="5.803044">
        <ele>160.960758</ele>
        <time>2022-05-17T00:13:08.260Z</time>
      </trkpt>
      <trkpt lat="50.803768" lon="5.802491">
        <ele>159.922085</ele>
        <time>2022-05-17T00:13:15.729Z</time>
      </trkpt>
      <trkpt lat="50.803628" lon="5.802220">
        <ele>159.563332</ele>
        <time>2022-05-17T00:13:18.120Z</time>
      </trkpt>
      <trkpt lat="50.803348" lon="5.802259">
        <ele>159.107470</ele>
        <time>2022-05-17T00:13:21.298Z</time>
      </trkpt>
      <trkpt lat="50.802470" lon="5.802288">
        <ele>157.918751</ele>
        <time>2022-05-17T00:13:31.126Z</time>
      </trkpt>
      <trkpt lat="50.801105" lon="5.802470">
        <ele>157.157914</ele>
        <time>2022-05-17T00:13:48.559Z</time>
      </trkpt>
      <trkpt lat="50.800907" lon="5.802639">
        <ele>157.090774</ele>
        <time>2022-05-17T00:13:52.498Z</time>
      </trkpt>
      <trkpt lat="50.800623" lon="5.803106">
        <ele>158.252951</ele>
        <time>2022-05-17T00:14:00.726Z</time>
      </trkpt>
      <trkpt lat="50.800545" lon="5.803209">
        <ele>158.541216</ele>
        <time>2022-05-17T00:14:03.005Z</time>
      </trkpt>
      <trkpt lat="50.800319" lon="5.803370">
        <ele>159.244458</ele>
        <time>2022-05-17T00:14:08.818Z</time>
      </trkpt>
      <trkpt lat="50.798505" lon="5.804119">
        <ele>166.174514</ele>
        <time>2022-05-17T00:15:07.351Z</time>
      </trkpt>
      <trkpt lat="50.798019" lon="5.804244">
        <ele>168.502207</ele>
        <time>2022-05-17T00:15:24.285Z</time>
      </trkpt>
      <trkpt lat="50.796674" lon="5.804837">
        <ele>175.031346</ele>
        <time>2022-05-17T00:16:16.842Z</time>
      </trkpt>
      <trkpt lat="50.795697" lon="5.805511">
        <ele>179.124007</ele>
        <time>2022-05-17T00:16:49.087Z</time>
      </trkpt>
      <trkpt lat="50.795661" lon="5.805540">
        <ele>179.145003</ele>
        <time>2022-05-17T00:16:50.029Z</time>
      </trkpt>
      <trkpt lat="50.795011" lon="5.805778">
        <ele>179.491765</ele>
        <time>2022-05-17T00:17:04.341Z</time>
      </trkpt>
      <trkpt lat="50.794485" lon="5.805886">
        <ele>179.767441</ele>
        <time>2022-05-17T00:17:11.370Z</time>
      </trkpt>
      <trkpt lat="50.793571" lon="5.805951">
        <ele>179.243874</ele>
        <time>2022-05-17T00:17:20.914Z</time>
      </trkpt>
      <trkpt lat="50.792465" lon="5.806336">
        <ele>177.825151</ele>
        <time>2022-05-17T00:17:34.330Z</time>
      </trkpt>
      <trkpt lat="50.792329" lon="5.806316">
        <ele>177.754316</ele>
        <time>2022-05-17T00:17:36.065Z</time>
      </trkpt>
      <trkpt lat="50.791535" lon="5.807617">
        <ele>179.688085</ele>
        <time>2022-05-17T00:18:01.255Z</time>
      </trkpt>
      <trkpt lat="50.791508" lon="5.807660">
        <ele>179.752895</ele>
        <time>2022-05-17T00:18:02.584Z</time>
      </trkpt>
      <trkpt lat="50.791460" lon="5.807739">
        <ele>179.870068</ele>
        <time>2022-05-17T00:18:04.594Z</time>
      </trkpt>
      <trkpt lat="50.791395" lon="5.807846">
        <ele>180.028756</ele>
        <time>2022-05-17T00:18:07.060Z</time>
      </trkpt>
      <trkpt lat="50.791368" lon="5.807888">
        <ele>180.092813</ele>
        <time>2022-05-17T00:18:08.077Z</time>
      </trkpt>
      <trkpt lat="50.790507" lon="5.809252">
        <ele>181.889960</ele>
        <time>2022-05-17T00:18:38.197Z</time>
      </trkpt>
      <trkpt lat="50.790368" lon="5.809477">
        <ele>182.163575</ele>
        <time>2022-05-17T00:18:43.215Z</time>
      </trkpt>
      <trkpt lat="50.790302" lon="5.809430">
        <ele>182.263155</ele>
        <time>2022-05-17T00:18:44.826Z</time>
      </trkpt>
      <trkpt lat="50.789680" lon="5.809730">
        <ele>183.157799</ele>
        <time>2022-05-17T00:18:58.752Z</time>
      </trkpt>
      <trkpt lat="50.789606" lon="5.809646">
        <ele>183.213877</ele>
        <time>2022-05-17T00:19:00.617Z</time>
      </trkpt>
      <trkpt lat="50.788914" lon="5.808393">
        <ele>183.213611</ele>
        <time>2022-05-17T00:19:15.699Z</time>
      </trkpt>
      <trkpt lat="50.788743" lon="5.807535">
        <ele>183.213467</ele>
        <time>2022-05-17T00:19:24.301Z</time>
      </trkpt>
      <trkpt lat="50.788430" lon="5.806815">
        <ele>183.081636</ele>
        <time>2022-05-17T00:19:32.746Z</time>
      </trkpt>
      <trkpt lat="50.787107" lon="5.803354">
        <ele>181.815953</ele>
        <time>2022-05-17T00:20:06.967Z</time>
      </trkpt>
      <trkpt lat="50.787075" lon="5.803293">
        <ele>181.780401</ele>
        <time>2022-05-17T00:20:07.577Z</time>
      </trkpt>
      <trkpt lat="50.787022" lon="5.803197">
        <ele>181.723237</ele>
        <time>2022-05-17T00:20:08.535Z</time>
      </trkpt>
      <trkpt lat="50.785572" lon="5.800568">
        <ele>179.124237</ele>
        <time>2022-05-17T00:20:34.678Z</time>
      </trkpt>
      <trkpt lat="50.784727" lon="5.799099">
        <ele>177.009668</ele>
        <time>2022-05-17T00:20:48.630Z</time>
      </trkpt>
      <trkpt lat="50.784266" lon="5.798174">
        <ele>175.746884</ele>
        <time>2022-05-17T00:20:57.120Z</time>
      </trkpt>
      <trkpt lat="50.784219" lon="5.798079">
        <ele>175.622565</ele>
        <time>2022-05-17T00:20:58.396Z</time>
      </trkpt>
      <trkpt lat="50.784172" lon="5.797993">
        <ele>175.505410</ele>
        <time>2022-05-17T00:20:59.599Z</time>
      </trkpt>
      <trkpt lat="50.784092" lon="5.797876">
        <ele>175.327800</ele>
        <time>2022-05-17T00:21:00.876Z</time>
      </trkpt>
      <trkpt lat="50.783464" lon="5.797181">
        <ele>174.078407</ele>
        <time>2022-05-17T00:21:09.692Z</time>
      </trkpt>
      <trkpt lat="50.782991" lon="5.796447">
        <ele>172.987162</ele>
        <time>2022-05-17T00:21:17.384Z</time>
      </trkpt>
      <trkpt lat="50.781455" lon="5.793813">
        <ele>165.865625</ele>
        <time>2022-05-17T00:21:40.998Z</time>
      </trkpt>
      <trkpt lat="50.781165" lon="5.793318">
        <ele>163.692563</ele>
        <time>2022-05-17T00:21:45.014Z</time>
      </trkpt>
      <trkpt lat="50.781026" lon="5.793083">
        <ele>162.656313</ele>
        <time>2022-05-17T00:21:46.839Z</time>
      </trkpt>
      <trkpt lat="50.780806" lon="5.792688">
        <ele>160.961219</ele>
        <time>2022-05-17T00:21:49.857Z</time>
      </trkpt>
      <trkpt lat="50.780797" lon="5.792351">
        <ele>159.875039</ele>
        <time>2022-05-17T00:21:51.807Z</time>
      </trkpt>
      <trkpt lat="50.780774" lon="5.792220">
        <ele>159.437229</ele>
        <time>2022-05-17T00:21:52.591Z</time>
      </trkpt>
      <trkpt lat="50.780717" lon="5.792020">
        <ele>158.630969</ele>
        <time>2022-05-17T00:21:53.863Z</time>
      </trkpt>
      <trkpt lat="50.780374" lon="5.792074">
        <ele>156.447519</ele>
        <time>2022-05-17T00:21:57.006Z</time>
      </trkpt>
      <trkpt lat="50.779986" lon="5.792173">
        <ele>153.957977</ele>
        <time>2022-05-17T00:22:00.551Z</time>
      </trkpt>
      <trkpt lat="50.779842" lon="5.792143">
        <ele>153.037938</ele>
        <time>2022-05-17T00:22:01.852Z</time>
      </trkpt>
      <trkpt lat="50.779682" lon="5.791996">
        <ele>151.865820</ele>
        <time>2022-05-17T00:22:03.498Z</time>
      </trkpt>
      <trkpt lat="50.779440" lon="5.791513">
        <ele>149.397540</ele>
        <time>2022-05-17T00:22:07.010Z</time>
      </trkpt>
      <trkpt lat="50.779278" lon="5.791429">
        <ele>148.317614</ele>
        <time>2022-05-17T00:22:08.562Z</time>
      </trkpt>
      <trkpt lat="50.778899" lon="5.791614">
        <ele>147.322113</ele>
        <time>2022-05-17T00:22:12.283Z</time>
      </trkpt>
      <trkpt lat="50.778594" lon="5.792115">
        <ele>146.712785</ele>
        <time>2022-05-17T00:22:16.955Z</time>
      </trkpt>
      <trkpt lat="50.778230" lon="5.792879">
        <ele>145.874655</ele>
        <time>2022-05-17T00:22:25.611Z</time>
      </trkpt>
      <trkpt lat="50.778044" lon="5.793212">
        <ele>145.485364</ele>
        <time>2022-05-17T00:22:30.398Z</time>
      </trkpt>
      <trkpt lat="50.777688" lon="5.793525">
        <ele>146.144083</ele>
        <time>2022-05-17T00:22:38.238Z</time>
      </trkpt>
      <trkpt lat="50.777553" lon="5.793726">
        <ele>146.828992</ele>
        <time>2022-05-17T00:22:43.239Z</time>
      </trkpt>
      <trkpt lat="50.777313" lon="5.794741">
        <ele>149.360147</ele>
        <time>2022-05-17T00:23:05.921Z</time>
      </trkpt>
      <trkpt lat="50.776988" lon="5.795356">
        <ele>151.232265</ele>
        <time>2022-05-17T00:23:22.614Z</time>
      </trkpt>
      <trkpt lat="50.776437" lon="5.796544">
        <ele>155.271057</ele>
        <time>2022-05-17T00:23:53.687Z</time>
      </trkpt>
      <trkpt lat="50.776228" lon="5.796877">
        <ele>156.602923</ele>
        <time>2022-05-17T00:24:03.155Z</time>
      </trkpt>
      <trkpt lat="50.776011" lon="5.797312">
        <ele>158.175762</ele>
        <time>2022-05-17T00:24:14.626Z</time>
      </trkpt>
      <trkpt lat="50.775840" lon="5.798170">
        <ele>160.717909</ele>
        <time>2022-05-17T00:24:32.788Z</time>
      </trkpt>
      <trkpt lat="50.775689" lon="5.799301">
        <ele>163.948982</ele>
        <time>2022-05-17T00:24:57.933Z</time>
      </trkpt>
      <trkpt lat="50.775576" lon="5.799737">
        <ele>165.266084</ele>
        <time>2022-05-17T00:25:08.344Z</time>
      </trkpt>
      <trkpt lat="50.775348" lon="5.800205">
        <ele>166.917452</ele>
        <time>2022-05-17T00:25:20.377Z</time>
      </trkpt>
      <trkpt lat="50.775132" lon="5.800505">
        <ele>167.939209</ele>
        <time>2022-05-17T00:25:29.126Z</time>
      </trkpt>
      <trkpt lat="50.774912" lon="5.800811">
        <ele>168.015631</ele>
        <time>2022-05-17T00:25:37.253Z</time>
      </trkpt>
      <trkpt lat="50.774563" lon="5.801247">
        <ele>168.131640</ele>
        <time>2022-05-17T00:25:48.165Z</time>
      </trkpt>
      <trkpt lat="50.773288" lon="5.802588">
        <ele>164.967573</ele>
        <time>2022-05-17T00:26:05.198Z</time>
      </trkpt>
      <trkpt lat="50.772619" lon="5.803120">
        <ele>160.130414</ele>
        <time>2022-05-17T00:26:11.864Z</time>
      </trkpt>
      <trkpt lat="50.772073" lon="5.803463">
        <ele>156.187801</ele>
        <time>2022-05-17T00:26:16.939Z</time>
      </trkpt>
      <trkpt lat="50.771854" lon="5.803692">
        <ele>153.921698</ele>
        <time>2022-05-17T00:26:19.203Z</time>
      </trkpt>
      <trkpt lat="50.771772" lon="5.803990">
        <ele>152.147808</ele>
        <time>2022-05-17T00:26:20.969Z</time>
      </trkpt>
      <trkpt lat="50.771825" lon="5.804376">
        <ele>149.991799</ele>
        <time>2022-05-17T00:26:23.084Z</time>
      </trkpt>
      <trkpt lat="50.772036" lon="5.804958">
        <ele>146.330063</ele>
        <time>2022-05-17T00:26:26.780Z</time>
      </trkpt>
      <trkpt lat="50.772052" lon="5.805137">
        <ele>145.343313</ele>
        <time>2022-05-17T00:26:27.800Z</time>
      </trkpt>
      <trkpt lat="50.771999" lon="5.805369">
        <ele>143.996893</ele>
        <time>2022-05-17T00:26:29.156Z</time>
      </trkpt>
      <trkpt lat="50.771929" lon="5.805475">
        <ele>143.160364</ele>
        <time>2022-05-17T00:26:30.048Z</time>
      </trkpt>
      <trkpt lat="50.771500" lon="5.806031">
        <ele>140.546828</ele>
        <time>2022-05-17T00:26:35.126Z</time>
      </trkpt>
      <trkpt lat="50.771450" lon="5.806123">
        <ele>140.384990</ele>
        <time>2022-05-17T00:26:35.845Z</time>
      </trkpt>
      <trkpt lat="50.771110" lon="5.807227">
        <ele>138.746725</ele>
        <time>2022-05-17T00:26:44.364Z</time>
      </trkpt>
      <trkpt lat="50.771036" lon="5.808100">
        <ele>137.571590</ele>
        <time>2022-05-17T00:26:52.806Z</time>
      </trkpt>
      <trkpt lat="50.770983" lon="5.808310">
        <ele>137.708765</ele>
        <time>2022-05-17T00:26:56.565Z</time>
      </trkpt>
      <trkpt lat="50.770857" lon="5.808475">
        <ele>138.179093</ele>
        <time>2022-05-17T00:26:59.972Z</time>
      </trkpt>
      <trkpt lat="50.769862" lon="5.808797">
        <ele>141.098881</ele>
        <time>2022-05-17T00:27:28.600Z</time>
      </trkpt>
      <trkpt lat="50.769639" lon="5.808822">
        <ele>141.741586</ele>
        <time>2022-05-17T00:27:35.603Z</time>
      </trkpt>
      <trkpt lat="50.769401" lon="5.808648">
        <ele>142.495404</ele>
        <time>2022-05-17T00:27:42.965Z</time>
      </trkpt>
      <trkpt lat="50.769294" lon="5.808702">
        <ele>142.794140</ele>
        <time>2022-05-17T00:27:46.353Z</time>
      </trkpt>
      <trkpt lat="50.768684" lon="5.809417">
        <ele>144.702080</ele>
        <time>2022-05-17T00:28:06.268Z</time>
      </trkpt>
      <trkpt lat="50.768606" lon="5.809677">
        <ele>145.159381</ele>
        <time>2022-05-17T00:28:10.479Z</time>
      </trkpt>
      <trkpt lat="50.768740" lon="5.810258">
        <ele>146.142145</ele>
        <time>2022-05-17T00:28:19.328Z</time>
      </trkpt>
      <trkpt lat="50.768764" lon="5.810356">
        <ele>146.309148</ele>
        <time>2022-05-17T00:28:20.910Z</time>
      </trkpt>
      <trkpt lat="50.769001" lon="5.811318">
        <ele>147.837588</ele>
        <time>2022-05-17T00:28:35.795Z</time>
      </trkpt>
      <trkpt lat="50.769200" lon="5.812107">
        <ele>148.999047</ele>
        <time>2022-05-17T00:28:48.457Z</time>
      </trkpt>
      <trkpt lat="50.769219" lon="5.812169">
        <ele>149.093250</ele>
        <time>2022-05-17T00:28:49.443Z</time>
      </trkpt>
      <trkpt lat="50.769594" lon="5.813200">
        <ele>150.719480</ele>
        <time>2022-05-17T00:29:07.294Z</time>
      </trkpt>
      <trkpt lat="50.769818" lon="5.813998">
        <ele>151.689762</ele>
        <time>2022-05-17T00:29:20.641Z</time>
      </trkpt>
      <trkpt lat="50.770127" lon="5.814898">
        <ele>152.733862</ele>
        <time>2022-05-17T00:29:35.721Z</time>
      </trkpt>
      <trkpt lat="50.770632" lon="5.815890">
        <ele>153.883478</ele>
        <time>2022-05-17T00:29:52.275Z</time>
      </trkpt>
      <trkpt lat="50.771428" lon="5.817050">
        <ele>152.981446</ele>
        <time>2022-05-17T00:30:05.610Z</time>
      </trkpt>
      <trkpt lat="50.771479" lon="5.817146">
        <ele>152.915374</ele>
        <time>2022-05-17T00:30:06.506Z</time>
      </trkpt>
      <trkpt lat="50.771573" lon="5.817372">
        <ele>152.772827</ele>
        <time>2022-05-17T00:30:08.397Z</time>
      </trkpt>
      <trkpt lat="50.771638" lon="5.817558">
        <ele>152.660838</ele>
        <time>2022-05-17T00:30:09.998Z</time>
      </trkpt>
      <trkpt lat="50.771832" lon="5.818478">
        <ele>152.528484</ele>
        <time>2022-05-17T00:30:16.802Z</time>
      </trkpt>
      <trkpt lat="50.772136" lon="5.819544">
        <ele>152.729398</ele>
        <time>2022-05-17T00:30:26.850Z</time>
      </trkpt>
      <trkpt lat="50.772271" lon="5.819873">
        <ele>152.796780</ele>
        <time>2022-05-17T00:30:31.513Z</time>
      </trkpt>
      <trkpt lat="50.772458" lon="5.820152">
        <ele>152.866629</ele>
        <time>2022-05-17T00:30:36.848Z</time>
      </trkpt>
      <trkpt lat="50.773040" lon="5.820995">
        <ele>154.202571</ele>
        <time>2022-05-17T00:30:57.807Z</time>
      </trkpt>
      <trkpt lat="50.773580" lon="5.822048">
        <ele>156.099046</ele>
        <time>2022-05-17T00:31:20.364Z</time>
      </trkpt>
      <trkpt lat="50.773887" lon="5.822909">
        <ele>156.977827</ele>
        <time>2022-05-17T00:31:32.476Z</time>
      </trkpt>
      <trkpt lat="50.774170" lon="5.824058">
        <ele>157.201603</ele>
        <time>2022-05-17T00:31:42.817Z</time>
      </trkpt>
      <trkpt lat="50.774358" lon="5.824804">
        <ele>157.347339</ele>
        <time>2022-05-17T00:31:48.906Z</time>
      </trkpt>
      <trkpt lat="50.774880" lon="5.825585">
        <ele>159.464981</ele>
        <time>2022-05-17T00:32:04.032Z</time>
      </trkpt>
      <trkpt lat="50.774997" lon="5.826244">
        <ele>161.352007</ele>
        <time>2022-05-17T00:32:17.460Z</time>
      </trkpt>
      <trkpt lat="50.775051" lon="5.826678">
        <ele>162.571429</ele>
        <time>2022-05-17T00:32:28.142Z</time>
      </trkpt>
      <trkpt lat="50.775316" lon="5.828918">
        <ele>169.030042</ele>
        <time>2022-05-17T00:33:28.643Z</time>
      </trkpt>
      <trkpt lat="50.775391" lon="5.831021">
        <ele>173.696827</ele>
        <time>2022-05-17T00:34:04.697Z</time>
      </trkpt>
      <trkpt lat="50.775369" lon="5.832473">
        <ele>174.238540</ele>
        <time>2022-05-17T00:34:16.313Z</time>
      </trkpt>
      <trkpt lat="50.775462" lon="5.834297">
        <ele>175.756731</ele>
        <time>2022-05-17T00:34:35.644Z</time>
      </trkpt>
      <trkpt lat="50.775429" lon="5.834817">
        <ele>176.386831</ele>
        <time>2022-05-17T00:34:43.238Z</time>
      </trkpt>
      <trkpt lat="50.775374" lon="5.835358">
        <ele>177.047476</ele>
        <time>2022-05-17T00:34:52.303Z</time>
      </trkpt>
      <trkpt lat="50.775300" lon="5.836103">
        <ele>177.956719</ele>
        <time>2022-05-17T00:35:05.580Z</time>
      </trkpt>
      <trkpt lat="50.775159" lon="5.838093">
        <ele>181.596947</ele>
        <time>2022-05-17T00:35:39.568Z</time>
      </trkpt>
      <trkpt lat="50.775058" lon="5.838715">
        <ele>182.767535</ele>
        <time>2022-05-17T00:35:49.311Z</time>
      </trkpt>
      <trkpt lat="50.774898" lon="5.839585">
        <ele>184.680251</ele>
        <time>2022-05-17T00:36:04.021Z</time>
      </trkpt>
      <trkpt lat="50.774652" lon="5.840191">
        <ele>186.265328</ele>
        <time>2022-05-17T00:36:17.247Z</time>
      </trkpt>
      <trkpt lat="50.774407" lon="5.840417">
        <ele>187.252607</ele>
        <time>2022-05-17T00:36:25.948Z</time>
      </trkpt>
      <trkpt lat="50.774129" lon="5.840898">
        <ele>188.686949</ele>
        <time>2022-05-17T00:36:38.741Z</time>
      </trkpt>
      <trkpt lat="50.774078" lon="5.841024">
        <ele>189.016244</ele>
        <time>2022-05-17T00:36:41.693Z</time>
      </trkpt>
      <trkpt lat="50.774056" lon="5.841101">
        <ele>189.202230</ele>
        <time>2022-05-17T00:36:43.324Z</time>
      </trkpt>
      <trkpt lat="50.774017" lon="5.841348">
        <ele>189.649562</ele>
        <time>2022-05-17T00:36:48.184Z</time>
      </trkpt>
      <trkpt lat="50.773942" lon="5.842057">
        <ele>190.707524</ele>
        <time>2022-05-17T00:37:01.554Z</time>
      </trkpt>
      <trkpt lat="50.773971" lon="5.842666">
        <ele>191.606353</ele>
        <time>2022-05-17T00:37:12.381Z</time>
      </trkpt>
      <trkpt lat="50.774040" lon="5.842935">
        <ele>192.033579</ele>
        <time>2022-05-17T00:37:17.932Z</time>
      </trkpt>
      <trkpt lat="50.774125" lon="5.843018">
        <ele>192.266076</ele>
        <time>2022-05-17T00:37:20.789Z</time>
      </trkpt>
      <trkpt lat="50.774310" lon="5.843424">
        <ele>193.002560</ele>
        <time>2022-05-17T00:37:27.580Z</time>
      </trkpt>
      <trkpt lat="50.774529" lon="5.844331">
        <ele>192.580710</ele>
        <time>2022-05-17T00:37:36.555Z</time>
      </trkpt>
      <trkpt lat="50.774549" lon="5.844432">
        <ele>192.386614</ele>
        <time>2022-05-17T00:37:37.324Z</time>
      </trkpt>
      <trkpt lat="50.774571" lon="5.844552">
        <ele>192.157482</ele>
        <time>2022-05-17T00:37:38.205Z</time>
      </trkpt>
      <trkpt lat="50.774574" lon="5.844570">
        <ele>192.123344</ele>
        <time>2022-05-17T00:37:38.334Z</time>
      </trkpt>
      <trkpt lat="50.774676" lon="5.845251">
        <ele>190.839891</ele>
        <time>2022-05-17T00:37:42.974Z</time>
      </trkpt>
      <trkpt lat="50.774728" lon="5.845614">
        <ele>190.157312</ele>
        <time>2022-05-17T00:37:45.332Z</time>
      </trkpt>
      <trkpt lat="50.774898" lon="5.846552">
        <ele>188.329241</ele>
        <time>2022-05-17T00:37:51.169Z</time>
      </trkpt>
      <trkpt lat="50.774937" lon="5.846728">
        <ele>187.423538</ele>
        <time>2022-05-17T00:37:52.226Z</time>
      </trkpt>
      <trkpt lat="50.775284" lon="5.848124">
        <ele>180.138931</ele>
        <time>2022-05-17T00:38:00.915Z</time>
      </trkpt>
      <trkpt lat="50.775439" lon="5.848810">
        <ele>176.601119</ele>
        <time>2022-05-17T00:38:04.884Z</time>
      </trkpt>
      <trkpt lat="50.775477" lon="5.849511">
        <ele>172.602359</ele>
        <time>2022-05-17T00:38:08.679Z</time>
      </trkpt>
      <trkpt lat="50.775400" lon="5.849965">
        <ele>169.366476</ele>
        <time>2022-05-17T00:38:11.258Z</time>
      </trkpt>
      <trkpt lat="50.775171" lon="5.850374">
        <ele>165.605772</ele>
        <time>2022-05-17T00:38:14.188Z</time>
      </trkpt>
      <trkpt lat="50.775075" lon="5.850544">
        <ele>164.036732</ele>
        <time>2022-05-17T00:38:15.383Z</time>
      </trkpt>
      <trkpt lat="50.775032" lon="5.850759">
        <ele>162.484357</ele>
        <time>2022-05-17T00:38:16.623Z</time>
      </trkpt>
      <trkpt lat="50.775130" lon="5.851951">
        <ele>154.455554</ele>
        <time>2022-05-17T00:38:23.142Z</time>
      </trkpt>
      <trkpt lat="50.775097" lon="5.852455">
        <ele>152.057844</ele>
        <time>2022-05-17T00:38:25.866Z</time>
      </trkpt>
      <trkpt lat="50.774982" lon="5.852858">
        <ele>149.965644</ele>
        <time>2022-05-17T00:38:28.250Z</time>
      </trkpt>
      <trkpt lat="50.774709" lon="5.853703">
        <ele>145.475397</ele>
        <time>2022-05-17T00:38:33.723Z</time>
      </trkpt>
      <trkpt lat="50.774667" lon="5.853821">
        <ele>144.834635</ele>
        <time>2022-05-17T00:38:34.506Z</time>
      </trkpt>
      <trkpt lat="50.774433" lon="5.854451">
        <ele>141.509774</ele>
        <time>2022-05-17T00:38:38.799Z</time>
      </trkpt>
      <trkpt lat="50.774357" lon="5.854658">
        <ele>141.313284</ele>
        <time>2022-05-17T00:38:40.298Z</time>
      </trkpt>
      <trkpt lat="50.774297" lon="5.854809">
        <ele>141.166890</ele>
        <time>2022-05-17T00:38:41.433Z</time>
      </trkpt>
      <trkpt lat="50.774063" lon="5.855255">
        <ele>140.691163</ele>
        <time>2022-05-17T00:38:45.437Z</time>
      </trkpt>
      <trkpt lat="50.773682" lon="5.855708">
        <ele>140.072374</ele>
        <time>2022-05-17T00:38:51.503Z</time>
      </trkpt>
      <trkpt lat="50.772725" lon="5.856469">
        <ele>139.886623</ele>
        <time>2022-05-17T00:39:09.810Z</time>
      </trkpt>
      <trkpt lat="50.771730" lon="5.857482">
        <ele>141.903402</ele>
        <time>2022-05-17T00:39:37.261Z</time>
      </trkpt>
      <trkpt lat="50.771490" lon="5.857741">
        <ele>142.413507</ele>
        <time>2022-05-17T00:39:43.908Z</time>
      </trkpt>
      <trkpt lat="50.770979" lon="5.858301">
        <ele>143.594115</ele>
        <time>2022-05-17T00:39:58.723Z</time>
      </trkpt>
      <trkpt lat="50.770462" lon="5.859258">
        <ele>145.105623</ele>
        <time>2022-05-17T00:40:16.770Z</time>
      </trkpt>
      <trkpt lat="50.770186" lon="5.859667">
        <ele>145.674700</ele>
        <time>2022-05-17T00:40:25.110Z</time>
      </trkpt>
      <trkpt lat="50.769584" lon="5.860482">
        <ele>145.580158</ele>
        <time>2022-05-17T00:40:38.938Z</time>
      </trkpt>
      <trkpt lat="50.769029" lon="5.860911">
        <ele>145.506463</ele>
        <time>2022-05-17T00:40:46.855Z</time>
      </trkpt>
      <trkpt lat="50.768908" lon="5.861026">
        <ele>145.489622</ele>
        <time>2022-05-17T00:40:48.521Z</time>
      </trkpt>
      <trkpt lat="50.768675" lon="5.861432">
        <ele>145.282747</ele>
        <time>2022-05-17T00:40:52.408Z</time>
      </trkpt>
      <trkpt lat="50.768502" lon="5.862031">
        <ele>144.835726</ele>
        <time>2022-05-17T00:40:57.006Z</time>
      </trkpt>
      <trkpt lat="50.768586" lon="5.862229">
        <ele>144.673875</ele>
        <time>2022-05-17T00:40:58.606Z</time>
      </trkpt>
      <trkpt lat="50.769097" lon="5.862495">
        <ele>144.096431</ele>
        <time>2022-05-17T00:41:04.757Z</time>
      </trkpt>
      <trkpt lat="50.769799" lon="5.862719">
        <ele>144.036369</ele>
        <time>2022-05-17T00:41:15.818Z</time>
      </trkpt>
      <trkpt lat="50.769884" lon="5.862727">
        <ele>144.252463</ele>
        <time>2022-05-17T00:41:17.287Z</time>
      </trkpt>
      <trkpt lat="50.769906" lon="5.862727">
        <ele>144.308295</ele>
        <time>2022-05-17T00:41:17.589Z</time>
      </trkpt>
      <trkpt lat="50.769999" lon="5.862731">
        <ele>144.544397</ele>
        <time>2022-05-17T00:41:18.870Z</time>
      </trkpt>
      <trkpt lat="50.770406" lon="5.862831">
        <ele>145.589675</ele>
        <time>2022-05-17T00:41:27.223Z</time>
      </trkpt>
      <trkpt lat="50.770508" lon="5.863026">
        <ele>145.995823</ele>
        <time>2022-05-17T00:41:32.394Z</time>
      </trkpt>
      <trkpt lat="50.770521" lon="5.863082">
        <ele>146.091565</ele>
        <time>2022-05-17T00:41:33.563Z</time>
      </trkpt>
      <trkpt lat="50.770480" lon="5.863358">
        <ele>146.546594</ele>
        <time>2022-05-17T00:41:38.703Z</time>
      </trkpt>
      <trkpt lat="50.769947" lon="5.864206">
        <ele>148.800701</ele>
        <time>2022-05-17T00:42:03.444Z</time>
      </trkpt>
      <trkpt lat="50.769723" lon="5.864674">
        <ele>150.613877</ele>
        <time>2022-05-17T00:42:16.241Z</time>
      </trkpt>
      <trkpt lat="50.769603" lon="5.865218">
        <ele>152.393769</ele>
        <time>2022-05-17T00:42:28.978Z</time>
      </trkpt>
      <trkpt lat="50.769590" lon="5.865857">
        <ele>154.368878</ele>
        <time>2022-05-17T00:42:42.072Z</time>
      </trkpt>
      <trkpt lat="50.769795" lon="5.867129">
        <ele>158.884903</ele>
        <time>2022-05-17T00:43:11.971Z</time>
      </trkpt>
      <trkpt lat="50.770024" lon="5.867911">
        <ele>162.346305</ele>
        <time>2022-05-17T00:43:31.996Z</time>
      </trkpt>
      <trkpt lat="50.770440" lon="5.868964">
        <ele>167.333206</ele>
        <time>2022-05-17T00:44:04.645Z</time>
      </trkpt>
      <trkpt lat="50.770559" lon="5.869251">
        <ele>168.844238</ele>
        <time>2022-05-17T00:44:15.092Z</time>
      </trkpt>
      <trkpt lat="50.770657" lon="5.869460">
        <ele>170.236275</ele>
        <time>2022-05-17T00:44:23.075Z</time>
      </trkpt>
      <trkpt lat="50.771359" lon="5.870991">
        <ele>180.353924</ele>
        <time>2022-05-17T00:45:22.776Z</time>
      </trkpt>
      <trkpt lat="50.771557" lon="5.871609">
        <ele>184.015002</ele>
        <time>2022-05-17T00:45:44.708Z</time>
      </trkpt>
      <trkpt lat="50.771725" lon="5.872371">
        <ele>187.963463</ele>
        <time>2022-05-17T00:46:08.855Z</time>
      </trkpt>
      <trkpt lat="50.771707" lon="5.872714">
        <ele>189.647492</ele>
        <time>2022-05-17T00:46:18.352Z</time>
      </trkpt>
      <trkpt lat="50.771559" lon="5.873090">
        <ele>191.814463</ele>
        <time>2022-05-17T00:46:32.645Z</time>
      </trkpt>
      <trkpt lat="50.770948" lon="5.873794">
        <ele>197.613380</ele>
        <time>2022-05-17T00:47:05.656Z</time>
      </trkpt>
      <trkpt lat="50.770841" lon="5.873985">
        <ele>198.575650</ele>
        <time>2022-05-17T00:47:10.629Z</time>
      </trkpt>
      <trkpt lat="50.770759" lon="5.874469">
        <ele>200.465299</ele>
        <time>2022-05-17T00:47:24.562Z</time>
      </trkpt>
      <trkpt lat="50.770804" lon="5.874622">
        <ele>201.101647</ele>
        <time>2022-05-17T00:47:27.698Z</time>
      </trkpt>
      <trkpt lat="50.770900" lon="5.874733">
        <ele>201.810836</ele>
        <time>2022-05-17T00:47:35.295Z</time>
      </trkpt>
      <trkpt lat="50.770927" lon="5.874747">
        <ele>201.980277</ele>
        <time>2022-05-17T00:47:36.232Z</time>
      </trkpt>
      <trkpt lat="50.771107" lon="5.874692">
        <ele>203.073505</ele>
        <time>2022-05-17T00:47:41.243Z</time>
      </trkpt>
      <trkpt lat="50.771146" lon="5.874625">
        <ele>203.416913</ele>
        <time>2022-05-17T00:47:43.899Z</time>
      </trkpt>
      <trkpt lat="50.771343" lon="5.874294">
        <ele>205.131034</ele>
        <time>2022-05-17T00:47:54.583Z</time>
      </trkpt>
      <trkpt lat="50.771757" lon="5.874126">
        <ele>207.679787</ele>
        <time>2022-05-17T00:48:10.550Z</time>
      </trkpt>
      <trkpt lat="50.772445" lon="5.873708">
        <ele>210.581473</ele>
        <time>2022-05-17T00:48:36.454Z</time>
      </trkpt>
      <trkpt lat="50.773046" lon="5.873268">
        <ele>213.020329</ele>
        <time>2022-05-17T00:48:55.196Z</time>
      </trkpt>
      <trkpt lat="50.773283" lon="5.872998">
        <ele>214.095981</ele>
        <time>2022-05-17T00:49:02.567Z</time>
      </trkpt>
      <trkpt lat="50.773524" lon="5.872783">
        <ele>214.906825</ele>
        <time>2022-05-17T00:49:09.135Z</time>
      </trkpt>
      <trkpt lat="50.773743" lon="5.872871">
        <ele>215.199899</ele>
        <time>2022-05-17T00:49:14.195Z</time>
      </trkpt>
      <trkpt lat="50.773819" lon="5.872978">
        <ele>215.331881</ele>
        <time>2022-05-17T00:49:16.274Z</time>
      </trkpt>
      <trkpt lat="50.773851" lon="5.873035">
        <ele>215.394398</ele>
        <time>2022-05-17T00:49:17.246Z</time>
      </trkpt>
      <trkpt lat="50.774085" lon="5.873608">
        <ele>215.953858</ele>
        <time>2022-05-17T00:49:25.936Z</time>
      </trkpt>
      <trkpt lat="50.774293" lon="5.873931">
        <ele>216.331969</ele>
        <time>2022-05-17T00:49:31.698Z</time>
      </trkpt>
      <trkpt lat="50.774721" lon="5.874346">
        <ele>216.983140</ele>
        <time>2022-05-17T00:49:40.849Z</time>
      </trkpt>
      <trkpt lat="50.774803" lon="5.874407">
        <ele>217.100676</ele>
        <time>2022-05-17T00:49:42.934Z</time>
      </trkpt>
      <trkpt lat="50.775162" lon="5.874655">
        <ele>216.905414</ele>
        <time>2022-05-17T00:49:49.151Z</time>
      </trkpt>
      <trkpt lat="50.775314" lon="5.874786">
        <ele>216.802465</ele>
        <time>2022-05-17T00:49:51.673Z</time>
      </trkpt>
      <trkpt lat="50.775481" lon="5.875064">
        <ele>216.658263</ele>
        <time>2022-05-17T00:49:55.132Z</time>
      </trkpt>
      <trkpt lat="50.775536" lon="5.875200">
        <ele>216.597552</ele>
        <time>2022-05-17T00:49:56.425Z</time>
      </trkpt>
      <trkpt lat="50.775690" lon="5.875665">
        <ele>216.400148</ele>
        <time>2022-05-17T00:50:00.631Z</time>
      </trkpt>
      <trkpt lat="50.775798" lon="5.875564">
        <ele>216.325528</ele>
        <time>2022-05-17T00:50:02.188Z</time>
      </trkpt>
      <trkpt lat="50.776278" lon="5.874568">
        <ele>215.354870</ele>
        <time>2022-05-17T00:50:11.215Z</time>
      </trkpt>
      <trkpt lat="50.777248" lon="5.875630">
        <ele>212.919916</ele>
        <time>2022-05-17T00:50:23.954Z</time>
      </trkpt>
      <trkpt lat="50.778350" lon="5.876957">
        <ele>210.150736</ele>
        <time>2022-05-17T00:50:38.747Z</time>
      </trkpt>
      <trkpt lat="50.778395" lon="5.877027">
        <ele>210.025570</ele>
        <time>2022-05-17T00:50:39.435Z</time>
      </trkpt>
      <trkpt lat="50.778924" lon="5.878230">
        <ele>208.484742</ele>
        <time>2022-05-17T00:50:50.148Z</time>
      </trkpt>
      <trkpt lat="50.779095" lon="5.878736">
        <ele>208.127041</ele>
        <time>2022-05-17T00:50:54.527Z</time>
      </trkpt>
      <trkpt lat="50.779430" lon="5.880232">
        <ele>207.137587</ele>
        <time>2022-05-17T00:51:07.248Z</time>
      </trkpt>
      <trkpt lat="50.779914" lon="5.881719">
        <ele>205.989386</ele>
        <time>2022-05-17T00:51:20.631Z</time>
      </trkpt>
      <trkpt lat="50.780096" lon="5.882934">
        <ele>205.120635</ele>
        <time>2022-05-17T00:51:29.888Z</time>
      </trkpt>
      <trkpt lat="50.780125" lon="5.882960">
        <ele>205.083954</ele>
        <time>2022-05-17T00:51:30.281Z</time>
      </trkpt>
      <trkpt lat="50.782148" lon="5.883935">
        <ele>202.129947</ele>
        <time>2022-05-17T00:51:53.884Z</time>
      </trkpt>
      <trkpt lat="50.782843" lon="5.884207">
        <ele>202.280352</ele>
        <time>2022-05-17T00:52:04.602Z</time>
      </trkpt>
      <trkpt lat="50.782899" lon="5.884217">
        <ele>202.292191</ele>
        <time>2022-05-17T00:52:05.553Z</time>
      </trkpt>
      <trkpt lat="50.784102" lon="5.884682">
        <ele>202.776354</ele>
        <time>2022-05-17T00:52:37.309Z</time>
      </trkpt>
      <trkpt lat="50.784399" lon="5.884725">
        <ele>202.979656</ele>
        <time>2022-05-17T00:52:44.812Z</time>
      </trkpt>
      <trkpt lat="50.784572" lon="5.884689">
        <ele>203.098601</ele>
        <time>2022-05-17T00:52:49.112Z</time>
      </trkpt>
      <trkpt lat="50.785318" lon="5.884243">
        <ele>203.642240</ele>
        <time>2022-05-17T00:53:06.652Z</time>
      </trkpt>
      <trkpt lat="50.785361" lon="5.884167">
        <ele>203.661719</ele>
        <time>2022-05-17T00:53:07.930Z</time>
      </trkpt>
      <trkpt lat="50.785549" lon="5.883789">
        <ele>203.197176</ele>
        <time>2022-05-17T00:53:13.318Z</time>
      </trkpt>
      <trkpt lat="50.786321" lon="5.882828">
        <ele>201.696289</ele>
        <time>2022-05-17T00:53:29.191Z</time>
      </trkpt>
      <trkpt lat="50.787147" lon="5.881901">
        <ele>199.847759</ele>
        <time>2022-05-17T00:53:44.784Z</time>
      </trkpt>
      <trkpt lat="50.787402" lon="5.881711">
        <ele>199.251184</ele>
        <time>2022-05-17T00:53:49.161Z</time>
      </trkpt>
      <trkpt lat="50.788361" lon="5.881364">
        <ele>197.169081</ele>
        <time>2022-05-17T00:54:04.575Z</time>
      </trkpt>
      <trkpt lat="50.789457" lon="5.880842">
        <ele>195.120818</ele>
        <time>2022-05-17T00:54:23.004Z</time>
      </trkpt>
      <trkpt lat="50.790555" lon="5.880789">
        <ele>193.110646</ele>
        <time>2022-05-17T00:54:40.647Z</time>
      </trkpt>
      <trkpt lat="50.791605" lon="5.881035">
        <ele>191.089328</ele>
        <time>2022-05-17T00:54:57.495Z</time>
      </trkpt>
      <trkpt lat="50.792031" lon="5.881019">
        <ele>190.267808</ele>
        <time>2022-05-17T00:55:04.223Z</time>
      </trkpt>
      <trkpt lat="50.792294" lon="5.880855">
        <ele>189.704096</ele>
        <time>2022-05-17T00:55:08.662Z</time>
      </trkpt>
      <trkpt lat="50.792857" lon="5.880272">
        <ele>188.362305</ele>
        <time>2022-05-17T00:55:19.296Z</time>
      </trkpt>
      <trkpt lat="50.793636" lon="5.879872">
        <ele>186.738403</ele>
        <time>2022-05-17T00:55:32.131Z</time>
      </trkpt>
      <trkpt lat="50.793872" lon="5.879853">
        <ele>186.292023</ele>
        <time>2022-05-17T00:55:35.896Z</time>
      </trkpt>
      <trkpt lat="50.794064" lon="5.879981">
        <ele>185.898448</ele>
        <time>2022-05-17T00:55:39.153Z</time>
      </trkpt>
      <trkpt lat="50.794877" lon="5.880540">
        <ele>184.223919</ele>
        <time>2022-05-17T00:55:53.134Z</time>
      </trkpt>
      <trkpt lat="50.796831" lon="5.885967">
        <ele>177.561533</ele>
        <time>2022-05-17T00:56:57.397Z</time>
      </trkpt>
      <trkpt lat="50.796958" lon="5.886162">
        <ele>177.198004</ele>
        <time>2022-05-17T00:57:00.186Z</time>
      </trkpt>
      <trkpt lat="50.797356" lon="5.886538">
        <ele>176.213656</ele>
        <time>2022-05-17T00:57:07.391Z</time>
      </trkpt>
      <trkpt lat="50.797763" lon="5.886921">
        <ele>175.208084</ele>
        <time>2022-05-17T00:57:14.687Z</time>
      </trkpt>
      <trkpt lat="50.800407" lon="5.889400">
        <ele>168.743894</ele>
        <time>2022-05-17T00:58:02.591Z</time>
      </trkpt>
      <trkpt lat="50.800817" lon="5.889891">
        <ele>167.691663</ele>
        <time>2022-05-17T00:58:10.732Z</time>
      </trkpt>
      <trkpt lat="50.800992" lon="5.890162">
        <ele>167.190576</ele>
        <time>2022-05-17T00:58:14.591Z</time>
      </trkpt>
      <trkpt lat="50.801492" lon="5.890521">
        <ele>166.060147</ele>
        <time>2022-05-17T00:58:23.193Z</time>
      </trkpt>
      <trkpt lat="50.804625" lon="5.891433">
        <ele>159.516559</ele>
        <time>2022-05-17T00:59:12.818Z</time>
      </trkpt>
      <trkpt lat="50.805026" lon="5.891594">
        <ele>158.811675</ele>
        <time>2022-05-17T00:59:19.677Z</time>
      </trkpt>
      <trkpt lat="50.805382" lon="5.891891">
        <ele>158.588238</ele>
        <time>2022-05-17T00:59:26.523Z</time>
      </trkpt>
      <trkpt lat="50.806042" lon="5.892809">
        <ele>158.100375</ele>
        <time>2022-05-17T00:59:43.151Z</time>
      </trkpt>
      <trkpt lat="50.806127" lon="5.892926">
        <ele>158.037827</ele>
        <time>2022-05-17T00:59:45.545Z</time>
      </trkpt>
      <trkpt lat="50.806337" lon="5.893205">
        <ele>157.885592</ele>
        <time>2022-05-17T00:59:51.027Z</time>
      </trkpt>
      <trkpt lat="50.806630" lon="5.893523">
        <ele>157.796899</ele>
        <time>2022-05-17T00:59:58.400Z</time>
      </trkpt>
      <trkpt lat="50.807099" lon="5.893905">
        <ele>157.696588</ele>
        <time>2022-05-17T01:00:08.575Z</time>
      </trkpt>
      <trkpt lat="50.807171" lon="5.894029">
        <ele>157.676351</ele>
        <time>2022-05-17T01:00:10.532Z</time>
      </trkpt>
      <trkpt lat="50.807396" lon="5.894387">
        <ele>157.615673</ele>
        <time>2022-05-17T01:00:16.730Z</time>
      </trkpt>
      <trkpt lat="50.807731" lon="5.894660">
        <ele>157.544015</ele>
        <time>2022-05-17T01:00:24.254Z</time>
      </trkpt>
      <trkpt lat="50.807862" lon="5.894682">
        <ele>157.518963</ele>
        <time>2022-05-17T01:00:26.366Z</time>
      </trkpt>
      <trkpt lat="50.808301" lon="5.894344">
        <ele>157.207848</ele>
        <time>2022-05-17T01:00:33.031Z</time>
      </trkpt>
      <trkpt lat="50.808459" lon="5.894339">
        <ele>157.100882</ele>
        <time>2022-05-17T01:00:35.027Z</time>
      </trkpt>
      <trkpt lat="50.809251" lon="5.894847">
        <ele>156.522446</ele>
        <time>2022-05-17T01:00:45.739Z</time>
      </trkpt>
      <trkpt lat="50.811109" lon="5.895569">
        <ele>155.091488</ele>
        <time>2022-05-17T01:01:09.487Z</time>
      </trkpt>
      <trkpt lat="50.812192" lon="5.896161">
        <ele>154.550672</ele>
        <time>2022-05-17T01:01:25.447Z</time>
      </trkpt>
      <trkpt lat="50.812605" lon="5.896583">
        <ele>154.353224</ele>
        <time>2022-05-17T01:01:32.387Z</time>
      </trkpt>
      <trkpt lat="50.812752" lon="5.896734">
        <ele>154.282836</ele>
        <time>2022-05-17T01:01:34.539Z</time>
      </trkpt>
      <trkpt lat="50.813055" lon="5.897310">
        <ele>153.355108</ele>
        <time>2022-05-17T01:01:40.822Z</time>
      </trkpt>
      <trkpt lat="50.813043" lon="5.897452">
        <ele>153.066398</ele>
        <time>2022-05-17T01:01:44.102Z</time>
      </trkpt>
      <trkpt lat="50.813055" lon="5.897310">
        <ele>152.777687</ele>
        <time>2022-05-17T01:01:47.130Z</time>
      </trkpt>
      <trkpt lat="50.813209" lon="5.898225">
        <ele>150.869463</ele>
        <time>2022-05-17T01:01:54.071Z</time>
      </trkpt>
      <trkpt lat="50.813155" lon="5.898446">
        <ele>150.391958</ele>
        <time>2022-05-17T01:01:55.489Z</time>
      </trkpt>
      <trkpt lat="50.812618" lon="5.899648">
        <ele>145.282538</ele>
        <time>2022-05-17T01:02:04.045Z</time>
      </trkpt>
      <trkpt lat="50.812541" lon="5.899926">
        <ele>143.406848</ele>
        <time>2022-05-17T01:02:05.704Z</time>
      </trkpt>
      <trkpt lat="50.812435" lon="5.900328">
        <ele>140.715077</ele>
        <time>2022-05-17T01:02:08.089Z</time>
      </trkpt>
      <trkpt lat="50.812289" lon="5.900638">
        <ele>138.325846</ele>
        <time>2022-05-17T01:02:10.184Z</time>
      </trkpt>
      <trkpt lat="50.812118" lon="5.901309">
        <ele>133.854857</ele>
        <time>2022-05-17T01:02:14.084Z</time>
      </trkpt>
      <trkpt lat="50.812039" lon="5.902236">
        <ele>127.826697</ele>
        <time>2022-05-17T01:02:19.047Z</time>
      </trkpt>
      <trkpt lat="50.811995" lon="5.902803">
        <ele>123.983770</ele>
        <time>2022-05-17T01:02:22.085Z</time>
      </trkpt>
      <trkpt lat="50.811442" lon="5.905142">
        <ele>109.178543</ele>
        <time>2022-05-17T01:02:35.715Z</time>
      </trkpt>
      <trkpt lat="50.811355" lon="5.905476">
        <ele>107.816321</ele>
        <time>2022-05-17T01:02:37.779Z</time>
      </trkpt>
      <trkpt lat="50.811245" lon="5.906033">
        <ele>105.615854</ele>
        <time>2022-05-17T01:02:41.178Z</time>
      </trkpt>
      <trkpt lat="50.811187" lon="5.906244">
        <ele>104.748212</ele>
        <time>2022-05-17T01:02:42.561Z</time>
      </trkpt>
      <trkpt lat="50.811124" lon="5.906499">
        <ele>103.715798</ele>
        <time>2022-05-17T01:02:44.211Z</time>
      </trkpt>
      <trkpt lat="50.811063" lon="5.906763">
        <ele>102.655863</ele>
        <time>2022-05-17T01:02:45.958Z</time>
      </trkpt>
      <trkpt lat="50.811005" lon="5.907167">
        <ele>101.093669</ele>
        <time>2022-05-17T01:02:48.607Z</time>
      </trkpt>
      <trkpt lat="50.810900" lon="5.908041">
        <ele>99.811324</ele>
        <time>2022-05-17T01:02:54.706Z</time>
      </trkpt>
      <trkpt lat="50.810752" lon="5.908637">
        <ele>98.936072</ele>
        <time>2022-05-17T01:02:59.033Z</time>
      </trkpt>
      <trkpt lat="50.810548" lon="5.909067">
        <ele>98.201139</ele>
        <time>2022-05-17T01:03:02.725Z</time>
      </trkpt>
      <trkpt lat="50.810074" lon="5.909787">
        <ele>96.961309</ele>
        <time>2022-05-17T01:03:10.224Z</time>
      </trkpt>
      <trkpt lat="50.809835" lon="5.910275">
        <ele>96.597042</ele>
        <time>2022-05-17T01:03:14.894Z</time>
      </trkpt>
      <trkpt lat="50.809540" lon="5.911216">
        <ele>95.977289</ele>
        <time>2022-05-17T01:03:23.091Z</time>
      </trkpt>
      <trkpt lat="50.809500" lon="5.911760">
        <ele>95.654166</ele>
        <time>2022-05-17T01:03:27.488Z</time>
      </trkpt>
      <trkpt lat="50.809493" lon="5.911925">
        <ele>95.556598</ele>
        <time>2022-05-17T01:03:28.775Z</time>
      </trkpt>
      <trkpt lat="50.809491" lon="5.911961">
        <ele>95.535276</ele>
        <time>2022-05-17T01:03:29.065Z</time>
      </trkpt>
      <trkpt lat="50.809361" lon="5.914097">
        <ele>95.438999</ele>
        <time>2022-05-17T01:03:48.718Z</time>
      </trkpt>
      <trkpt lat="50.809260" lon="5.914846">
        <ele>95.446597</ele>
        <time>2022-05-17T01:03:56.226Z</time>
      </trkpt>
      <trkpt lat="50.809252" lon="5.914911">
        <ele>95.447254</ele>
        <time>2022-05-17T01:03:57.178Z</time>
      </trkpt>
      <trkpt lat="50.809185" lon="5.915131">
        <ele>95.546325</ele>
        <time>2022-05-17T01:03:59.812Z</time>
      </trkpt>
      <trkpt lat="50.809136" lon="5.915886">
        <ele>95.961781</ele>
        <time>2022-05-17T01:04:08.246Z</time>
      </trkpt>
      <trkpt lat="50.809150" lon="5.916527">
        <ele>96.312870</ele>
        <time>2022-05-17T01:04:16.393Z</time>
      </trkpt>
      <trkpt lat="50.809210" lon="5.918115">
        <ele>97.040186</ele>
        <time>2022-05-17T01:04:34.966Z</time>
      </trkpt>
      <trkpt lat="50.809188" lon="5.918455">
        <ele>97.076197</ele>
        <time>2022-05-17T01:04:39.140Z</time>
      </trkpt>
      <trkpt lat="50.809249" lon="5.918534">
        <ele>97.089340</ele>
        <time>2022-05-17T01:04:40.601Z</time>
      </trkpt>
      <trkpt lat="50.809300" lon="5.918882">
        <ele>97.126980</ele>
        <time>2022-05-17T01:04:44.343Z</time>
      </trkpt>
      <trkpt lat="50.809423" lon="5.918999">
        <ele>97.150908</ele>
        <time>2022-05-17T01:04:47.008Z</time>
      </trkpt>
      <trkpt lat="50.809515" lon="5.918979">
        <ele>97.166393</ele>
        <time>2022-05-17T01:04:48.190Z</time>
      </trkpt>
      <trkpt lat="50.809639" lon="5.918800">
        <ele>97.194378</ele>
        <time>2022-05-17T01:04:51.292Z</time>
      </trkpt>
      <trkpt lat="50.810507" lon="5.917268">
        <ele>96.971416</ele>
        <time>2022-05-17T01:05:07.834Z</time>
      </trkpt>
      <trkpt lat="50.810569" lon="5.917101">
        <ele>96.906587</ele>
        <time>2022-05-17T01:05:09.328Z</time>
      </trkpt>
      <trkpt lat="50.810780" lon="5.916411">
        <ele>96.650022</ele>
        <time>2022-05-17T01:05:15.505Z</time>
      </trkpt>
      <trkpt lat="50.810935" lon="5.915662">
        <ele>96.386231</ele>
        <time>2022-05-17T01:05:22.661Z</time>
      </trkpt>
      <trkpt lat="50.811049" lon="5.914977">
        <ele>96.445339</ele>
        <time>2022-05-17T01:05:29.193Z</time>
      </trkpt>
      <trkpt lat="50.811230" lon="5.914750">
        <ele>96.500598</ele>
        <time>2022-05-17T01:05:33.931Z</time>
      </trkpt>
      <trkpt lat="50.811463" lon="5.914828">
        <ele>96.557582</ele>
        <time>2022-05-17T01:05:38.808Z</time>
      </trkpt>
      <trkpt lat="50.811539" lon="5.914861">
        <ele>96.576438</ele>
        <time>2022-05-17T01:05:40.113Z</time>
      </trkpt>
      <trkpt lat="50.811622" lon="5.914896">
        <ele>96.596991</ele>
        <time>2022-05-17T01:05:41.435Z</time>
      </trkpt>
      <trkpt lat="50.811701" lon="5.914930">
        <ele>96.616580</ele>
        <time>2022-05-17T01:05:42.717Z</time>
      </trkpt>
      <trkpt lat="50.811909" lon="5.915023">
        <ele>96.668296</ele>
        <time>2022-05-17T01:05:46.357Z</time>
      </trkpt>
      <trkpt lat="50.812263" lon="5.914438">
        <ele>96.792033</ele>
        <time>2022-05-17T01:05:55.026Z</time>
      </trkpt>
      <trkpt lat="50.813030" lon="5.913168">
        <ele>97.104544</ele>
        <time>2022-05-17T01:06:13.923Z</time>
      </trkpt>
      <trkpt lat="50.813437" lon="5.912485">
        <ele>97.271546</ele>
        <time>2022-05-17T01:06:22.590Z</time>
      </trkpt>
      <trkpt lat="50.813460" lon="5.912263">
        <ele>97.266906</ele>
        <time>2022-05-17T01:06:24.506Z</time>
      </trkpt>
      <trkpt lat="50.813845" lon="5.911709">
        <ele>97.111353</ele>
        <time>2022-05-17T01:06:32.066Z</time>
      </trkpt>
      <trkpt lat="50.813985" lon="5.911525">
        <ele>97.056952</ele>
        <time>2022-05-17T01:06:34.510Z</time>
      </trkpt>
      <trkpt lat="50.814111" lon="5.911349">
        <ele>97.006713</ele>
        <time>2022-05-17T01:06:36.982Z</time>
      </trkpt>
      <trkpt lat="50.814271" lon="5.911114">
        <ele>96.941459</ele>
        <time>2022-05-17T01:06:39.899Z</time>
      </trkpt>
      <trkpt lat="50.814782" lon="5.910267">
        <ele>96.679303</ele>
        <time>2022-05-17T01:06:49.734Z</time>
      </trkpt>
      <trkpt lat="50.814850" lon="5.910155">
        <ele>96.612364</ele>
        <time>2022-05-17T01:06:51.025Z</time>
      </trkpt>
      <trkpt lat="50.815800" lon="5.908599">
        <ele>95.679884</ele>
        <time>2022-05-17T01:07:08.578Z</time>
      </trkpt>
      <trkpt lat="50.819078" lon="5.903143">
        <ele>92.273499</ele>
        <time>2022-05-17T01:08:08.806Z</time>
      </trkpt>
      <trkpt lat="50.820379" lon="5.900975">
        <ele>91.658624</ele>
        <time>2022-05-17T01:08:34.523Z</time>
      </trkpt>
      <trkpt lat="50.820723" lon="5.900731">
        <ele>91.614149</ele>
        <time>2022-05-17T01:08:40.221Z</time>
      </trkpt>
      <trkpt lat="50.821875" lon="5.900527">
        <ele>92.328201</ele>
        <time>2022-05-17T01:08:58.957Z</time>
      </trkpt>
      <trkpt lat="50.822054" lon="5.900551">
        <ele>92.507853</ele>
        <time>2022-05-17T01:09:02.489Z</time>
      </trkpt>
      <trkpt lat="50.823119" lon="5.901106">
        <ele>93.732881</ele>
        <time>2022-05-17T01:09:26.267Z</time>
      </trkpt>
      <trkpt lat="50.823201" lon="5.901151">
        <ele>93.853878</ele>
        <time>2022-05-17T01:09:28.039Z</time>
      </trkpt>
      <trkpt lat="50.823799" lon="5.901394">
        <ele>94.714623</ele>
        <time>2022-05-17T01:09:40.881Z</time>
      </trkpt>
      <trkpt lat="50.823939" lon="5.901417">
        <ele>94.910855</ele>
        <time>2022-05-17T01:09:43.790Z</time>
      </trkpt>
      <trkpt lat="50.824021" lon="5.901480">
        <ele>95.037930</ele>
        <time>2022-05-17T01:09:45.605Z</time>
      </trkpt>
      <trkpt lat="50.824217" lon="5.901422">
        <ele>95.315921</ele>
        <time>2022-05-17T01:09:49.596Z</time>
      </trkpt>
      <trkpt lat="50.824497" lon="5.901345">
        <ele>95.712135</ele>
        <time>2022-05-17T01:09:55.263Z</time>
      </trkpt>
      <trkpt lat="50.824960" lon="5.901031">
        <ele>96.115507</ele>
        <time>2022-05-17T01:10:05.160Z</time>
      </trkpt>
      <trkpt lat="50.825794" lon="5.900261">
        <ele>96.717719</ele>
        <time>2022-05-17T01:10:21.424Z</time>
      </trkpt>
      <trkpt lat="50.826009" lon="5.900140">
        <ele>96.860047</ele>
        <time>2022-05-17T01:10:25.417Z</time>
      </trkpt>
      <trkpt lat="50.826591" lon="5.899981">
        <ele>96.976752</ele>
        <time>2022-05-17T01:10:34.318Z</time>
      </trkpt>
      <trkpt lat="50.826734" lon="5.899942">
        <ele>96.969495</ele>
        <time>2022-05-17T01:10:36.483Z</time>
      </trkpt>
      <trkpt lat="50.827029" lon="5.899667">
        <ele>96.952373</ele>
        <time>2022-05-17T01:10:41.246Z</time>
      </trkpt>
      <trkpt lat="50.827632" lon="5.898924">
        <ele>96.914156</ele>
        <time>2022-05-17T01:10:52.115Z</time>
      </trkpt>
      <trkpt lat="50.827694" lon="5.898848">
        <ele>96.910234</ele>
        <time>2022-05-17T01:10:53.160Z</time>
      </trkpt>
      <trkpt lat="50.827809" lon="5.898695">
        <ele>96.920618</ele>
        <time>2022-05-17T01:10:55.280Z</time>
      </trkpt>
      <trkpt lat="50.827887" lon="5.898673">
        <ele>96.942390</ele>
        <time>2022-05-17T01:10:56.568Z</time>
      </trkpt>
      <trkpt lat="50.827976" lon="5.898482">
        <ele>96.983589</ele>
        <time>2022-05-17T01:10:58.673Z</time>
      </trkpt>
      <trkpt lat="50.829020" lon="5.897542">
        <ele>97.313638</ele>
        <time>2022-05-17T01:11:18.233Z</time>
      </trkpt>
      <trkpt lat="50.829435" lon="5.897328">
        <ele>97.372231</ele>
        <time>2022-05-17T01:11:25.613Z</time>
      </trkpt>
      <trkpt lat="50.829850" lon="5.897229">
        <ele>97.278394</ele>
        <time>2022-05-17T01:11:32.401Z</time>
      </trkpt>
      <trkpt lat="50.830040" lon="5.897070">
        <ele>97.230342</ele>
        <time>2022-05-17T01:11:35.375Z</time>
      </trkpt>
      <trkpt lat="50.830500" lon="5.896346">
        <ele>97.085315</ele>
        <time>2022-05-17T01:11:44.238Z</time>
      </trkpt>
      <trkpt lat="50.831041" lon="5.895665">
        <ele>96.904393</ele>
        <time>2022-05-17T01:11:52.955Z</time>
      </trkpt>
      <trkpt lat="50.831500" lon="5.895187">
        <ele>96.733041</ele>
        <time>2022-05-17T01:11:59.995Z</time>
      </trkpt>
      <trkpt lat="50.831573" lon="5.895102">
        <ele>96.704778</ele>
        <time>2022-05-17T01:12:01.369Z</time>
      </trkpt>
      <trkpt lat="50.831979" lon="5.894721">
        <ele>96.557578</ele>
        <time>2022-05-17T01:12:08.220Z</time>
      </trkpt>
      <trkpt lat="50.832125" lon="5.894598">
        <ele>96.505996</ele>
        <time>2022-05-17T01:12:10.689Z</time>
      </trkpt>
      <trkpt lat="50.832328" lon="5.894457">
        <ele>96.436857</ele>
        <time>2022-05-17T01:12:14.094Z</time>
      </trkpt>
      <trkpt lat="50.832921" lon="5.894373">
        <ele>96.556208</ele>
        <time>2022-05-17T01:12:23.399Z</time>
      </trkpt>
      <trkpt lat="50.833066" lon="5.894330">
        <ele>96.585883</ele>
        <time>2022-05-17T01:12:25.655Z</time>
      </trkpt>
      <trkpt lat="50.833484" lon="5.894105">
        <ele>96.674693</ele>
        <time>2022-05-17T01:12:32.675Z</time>
      </trkpt>
      <trkpt lat="50.833689" lon="5.893876">
        <ele>96.725160</ele>
        <time>2022-05-17T01:12:36.781Z</time>
      </trkpt>
      <trkpt lat="50.834184" lon="5.893313">
        <ele>96.685447</ele>
        <time>2022-05-17T01:12:46.574Z</time>
      </trkpt>
      <trkpt lat="50.834592" lon="5.892968">
        <ele>96.472426</ele>
        <time>2022-05-17T01:12:52.740Z</time>
      </trkpt>
      <trkpt lat="50.834981" lon="5.892672">
        <ele>96.273658</ele>
        <time>2022-05-17T01:12:58.308Z</time>
      </trkpt>
      <trkpt lat="50.835279" lon="5.892466">
        <ele>96.123905</ele>
        <time>2022-05-17T01:13:02.477Z</time>
      </trkpt>
      <trkpt lat="50.836537" lon="5.891535">
        <ele>94.875835</ele>
        <time>2022-05-17T01:13:20.147Z</time>
      </trkpt>
      <trkpt lat="50.836820" lon="5.891388">
        <ele>94.566797</ele>
        <time>2022-05-17T01:13:23.611Z</time>
      </trkpt>
      <trkpt lat="50.837917" lon="5.890460">
        <ele>93.133444</ele>
        <time>2022-05-17T01:13:37.888Z</time>
      </trkpt>
      <trkpt lat="50.838221" lon="5.890211">
        <ele>92.717005</ele>
        <time>2022-05-17T01:13:41.903Z</time>
      </trkpt>
      <trkpt lat="50.838847" lon="5.889469">
        <ele>91.879663</ele>
        <time>2022-05-17T01:13:51.576Z</time>
      </trkpt>
      <trkpt lat="50.839243" lon="5.888935">
        <ele>91.729003</ele>
        <time>2022-05-17T01:13:58.564Z</time>
      </trkpt>
      <trkpt lat="50.839704" lon="5.888552">
        <ele>91.578208</ele>
        <time>2022-05-17T01:14:06.466Z</time>
      </trkpt>
      <trkpt lat="50.840017" lon="5.888337">
        <ele>91.479383</ele>
        <time>2022-05-17T01:14:11.826Z</time>
      </trkpt>
      <trkpt lat="50.840704" lon="5.887845">
        <ele>91.005962</ele>
        <time>2022-05-17T01:14:21.846Z</time>
      </trkpt>
      <trkpt lat="50.841293" lon="5.887406">
        <ele>90.456735</ele>
        <time>2022-05-17T01:14:29.672Z</time>
      </trkpt>
      <trkpt lat="50.841760" lon="5.886960">
        <ele>89.996625</ele>
        <time>2022-05-17T01:14:36.315Z</time>
      </trkpt>
      <trkpt lat="50.842140" lon="5.886406">
        <ele>89.706591</ele>
        <time>2022-05-17T01:14:42.680Z</time>
      </trkpt>
      <trkpt lat="50.842760" lon="5.885540">
        <ele>89.330839</ele>
        <time>2022-05-17T01:14:53.194Z</time>
      </trkpt>
      <trkpt lat="50.843513" lon="5.884928">
        <ele>89.103687</ele>
        <time>2022-05-17T01:15:06.691Z</time>
      </trkpt>
      <trkpt lat="50.845522" lon="5.883566">
        <ele>89.563300</ele>
        <time>2022-05-17T01:15:40.708Z</time>
      </trkpt>
      <trkpt lat="50.845971" lon="5.883339">
        <ele>89.699133</ele>
        <time>2022-05-17T01:15:47.826Z</time>
      </trkpt>
      <trkpt lat="50.846430" lon="5.883260">
        <ele>89.832194</ele>
        <time>2022-05-17T01:15:55.358Z</time>
      </trkpt>
      <trkpt lat="50.847154" lon="5.883190">
        <ele>90.153730</ele>
        <time>2022-05-17T01:16:07.896Z</time>
      </trkpt>
      <trkpt lat="50.847419" lon="5.883175">
        <ele>90.290372</ele>
        <time>2022-05-17T01:16:12.638Z</time>
      </trkpt>
      <trkpt lat="50.847687" lon="5.883248">
        <ele>90.430500</ele>
        <time>2022-05-17T01:16:17.665Z</time>
      </trkpt>
      <trkpt lat="50.848543" lon="5.883160">
        <ele>90.768903</ele>
        <time>2022-05-17T01:16:31.982Z</time>
      </trkpt>
      <trkpt lat="50.848982" lon="5.883045">
        <ele>90.494851</ele>
        <time>2022-05-17T01:16:38.213Z</time>
      </trkpt>
      <trkpt lat="50.849494" lon="5.882769">
        <ele>90.161749</ele>
        <time>2022-05-17T01:16:45.440Z</time>
      </trkpt>
      <trkpt lat="50.850208" lon="5.882086">
        <ele>89.534121</ele>
        <time>2022-05-17T01:16:55.391Z</time>
      </trkpt>
      <trkpt lat="50.850497" lon="5.881581">
        <ele>88.834869</ele>
        <time>2022-05-17T01:17:00.238Z</time>
      </trkpt>
      <trkpt lat="50.850852" lon="5.880775">
        <ele>87.826650</ele>
        <time>2022-05-17T01:17:07.206Z</time>
      </trkpt>
      <trkpt lat="50.850947" lon="5.880685">
        <ele>87.646774</ele>
        <time>2022-05-17T01:17:08.447Z</time>
      </trkpt>
      <trkpt lat="50.850966" lon="5.880642">
        <ele>87.592929</ele>
        <time>2022-05-17T01:17:08.829Z</time>
      </trkpt>
      <trkpt lat="50.850984" lon="5.880603">
        <ele>87.543367</ele>
        <time>2022-05-17T01:17:09.177Z</time>
      </trkpt>
      <trkpt lat="50.851040" lon="5.880392">
        <ele>87.308553</ele>
        <time>2022-05-17T01:17:10.801Z</time>
      </trkpt>
      <trkpt lat="50.851310" lon="5.879814">
        <ele>86.562487</ele>
        <time>2022-05-17T01:17:16.018Z</time>
      </trkpt>
      <trkpt lat="50.851755" lon="5.878859">
        <ele>85.298952</ele>
        <time>2022-05-17T01:17:24.467Z</time>
      </trkpt>
      <trkpt lat="50.852125" lon="5.877933">
        <ele>84.132374</ele>
        <time>2022-05-17T01:17:32.323Z</time>
      </trkpt>
      <trkpt lat="50.852330" lon="5.876422">
        <ele>83.009699</ele>
        <time>2022-05-17T01:17:43.147Z</time>
      </trkpt>
      <trkpt lat="50.852334" lon="5.876348">
        <ele>82.963042</ele>
        <time>2022-05-17T01:17:43.650Z</time>
      </trkpt>
      <trkpt lat="50.852394" lon="5.876359">
        <ele>82.902940</ele>
        <time>2022-05-17T01:17:44.436Z</time>
      </trkpt>
      <trkpt lat="50.852503" lon="5.876176">
        <ele>82.744891</ele>
        <time>2022-05-17T01:17:46.372Z</time>
      </trkpt>
      <trkpt lat="50.852950" lon="5.875240">
        <ele>82.007619</ele>
        <time>2022-05-17T01:17:56.448Z</time>
      </trkpt>
      <trkpt lat="50.853211" lon="5.874969">
        <ele>82.183494</ele>
        <time>2022-05-17T01:18:01.337Z</time>
      </trkpt>
      <trkpt lat="50.853386" lon="5.874882">
        <ele>82.323574</ele>
        <time>2022-05-17T01:18:04.234Z</time>
      </trkpt>
      <trkpt lat="50.853641" lon="5.874796">
        <ele>82.522690</ele>
        <time>2022-05-17T01:18:08.978Z</time>
      </trkpt>
      <trkpt lat="50.853794" lon="5.874637">
        <ele>82.662443</ele>
        <time>2022-05-17T01:18:12.340Z</time>
      </trkpt>
      <trkpt lat="50.854104" lon="5.873654">
        <ele>83.192232</ele>
        <time>2022-05-17T01:18:26.092Z</time>
      </trkpt>
      <trkpt lat="50.854483" lon="5.872779">
        <ele>83.206919</ele>
        <time>2022-05-17T01:18:39.325Z</time>
      </trkpt>
      <trkpt lat="50.854747" lon="5.872020">
        <ele>83.044614</ele>
        <time>2022-05-17T01:18:46.889Z</time>
      </trkpt>
      <trkpt lat="50.854759" lon="5.871614">
        <ele>82.968491</ele>
        <time>2022-05-17T01:18:49.934Z</time>
      </trkpt>
      <trkpt lat="50.854982" lon="5.870933">
        <ele>82.824807</ele>
        <time>2022-05-17T01:18:55.813Z</time>
      </trkpt>
      <trkpt lat="50.855007" lon="5.870846">
        <ele>82.818477</ele>
        <time>2022-05-17T01:18:56.524Z</time>
      </trkpt>
      <trkpt lat="50.855209" lon="5.870020">
        <ele>83.006631</ele>
        <time>2022-05-17T01:19:02.722Z</time>
      </trkpt>
      <trkpt lat="50.855311" lon="5.869169">
        <ele>83.190619</ele>
        <time>2022-05-17T01:19:10.048Z</time>
      </trkpt>
      <trkpt lat="50.855511" lon="5.868430">
        <ele>83.361405</ele>
        <time>2022-05-17T01:19:20.747Z</time>
      </trkpt>
      <trkpt lat="50.855702" lon="5.867925">
        <ele>84.232856</ele>
        <time>2022-05-17T01:19:31.324Z</time>
      </trkpt>
      <trkpt lat="50.856407" lon="5.868038">
        <ele>87.053007</ele>
        <time>2022-05-17T01:19:54.340Z</time>
      </trkpt>
      <trkpt lat="50.856740" lon="5.868194">
        <ele>88.435049</ele>
        <time>2022-05-17T01:20:06.142Z</time>
      </trkpt>
      <trkpt lat="50.856989" lon="5.868208">
        <ele>89.426667</ele>
        <time>2022-05-17T01:20:15.056Z</time>
      </trkpt>
      <trkpt lat="50.858688" lon="5.868567">
        <ele>94.461810</ele>
        <time>2022-05-17T01:21:03.575Z</time>
      </trkpt>
      <trkpt lat="50.859338" lon="5.868965">
        <ele>95.849742</ele>
        <time>2022-05-17T01:21:14.840Z</time>
      </trkpt>
      <trkpt lat="50.859882" lon="5.869217">
        <ele>96.497984</ele>
        <time>2022-05-17T01:21:25.289Z</time>
      </trkpt>
      <trkpt lat="50.860584" lon="5.869319">
        <ele>97.304253</ele>
        <time>2022-05-17T01:21:38.879Z</time>
      </trkpt>
      <trkpt lat="50.861181" lon="5.869527">
        <ele>98.531614</ele>
        <time>2022-05-17T01:21:51.891Z</time>
      </trkpt>
      <trkpt lat="50.861960" lon="5.869957">
        <ele>100.543545</ele>
        <time>2022-05-17T01:22:11.503Z</time>
      </trkpt>
      <trkpt lat="50.862522" lon="5.869998">
        <ele>101.915668</ele>
        <time>2022-05-17T01:22:27.086Z</time>
      </trkpt>
      <trkpt lat="50.863445" lon="5.869913">
        <ele>106.338851</ele>
        <time>2022-05-17T01:22:55.511Z</time>
      </trkpt>
      <trkpt lat="50.864081" lon="5.869892">
        <ele>109.387501</ele>
        <time>2022-05-17T01:23:19.452Z</time>
      </trkpt>
      <trkpt lat="50.865635" lon="5.870117">
        <ele>118.623812</ele>
        <time>2022-05-17T01:24:29.200Z</time>
      </trkpt>
      <trkpt lat="50.865869" lon="5.870252">
        <ele>120.149088</ele>
        <time>2022-05-17T01:24:40.306Z</time>
      </trkpt>
      <trkpt lat="50.866211" lon="5.870582">
        <ele>122.580567</ele>
        <time>2022-05-17T01:24:58.365Z</time>
      </trkpt>
      <trkpt lat="50.866439" lon="5.870618">
        <ele>123.955539</ele>
        <time>2022-05-17T01:25:08.930Z</time>
      </trkpt>
      <trkpt lat="50.866919" lon="5.870398">
        <ele>126.954040</ele>
        <time>2022-05-17T01:25:31.731Z</time>
      </trkpt>
      <trkpt lat="50.868560" lon="5.869103">
        <ele>135.655845</ele>
        <time>2022-05-17T01:26:50.733Z</time>
      </trkpt>
      <trkpt lat="50.868852" lon="5.869169">
        <ele>136.699314</ele>
        <time>2022-05-17T01:26:59.459Z</time>
      </trkpt>
      <trkpt lat="50.870652" lon="5.870686">
        <ele>138.465219</ele>
        <time>2022-05-17T01:27:30.061Z</time>
      </trkpt>
      <trkpt lat="50.871113" lon="5.871156">
        <ele>138.310677</ele>
        <time>2022-05-17T01:27:36.590Z</time>
      </trkpt>
      <trkpt lat="50.871599" lon="5.871893">
        <ele>138.008209</ele>
        <time>2022-05-17T01:27:44.971Z</time>
      </trkpt>
      <trkpt lat="50.873441" lon="5.875604">
        <ele>137.765504</ele>
        <time>2022-05-17T01:28:29.189Z</time>
      </trkpt>
      <trkpt lat="50.873657" lon="5.876086">
        <ele>137.916788</ele>
        <time>2022-05-17T01:28:35.359Z</time>
      </trkpt>
      <trkpt lat="50.873860" lon="5.876440">
        <ele>138.039194</ele>
        <time>2022-05-17T01:28:40.387Z</time>
      </trkpt>
      <trkpt lat="50.874105" lon="5.876315">
        <ele>138.143572</ele>
        <time>2022-05-17T01:28:44.778Z</time>
      </trkpt>
      <trkpt lat="50.874280" lon="5.876318">
        <ele>138.214543</ele>
        <time>2022-05-17T01:28:47.822Z</time>
      </trkpt>
      <trkpt lat="50.874651" lon="5.876753">
        <ele>138.393793</ele>
        <time>2022-05-17T01:28:55.846Z</time>
      </trkpt>
      <trkpt lat="50.875980" lon="5.877262">
        <ele>138.697463</ele>
        <time>2022-05-17T01:29:17.490Z</time>
      </trkpt>
      <trkpt lat="50.876340" lon="5.877220">
        <ele>138.777635</ele>
        <time>2022-05-17T01:29:24.836Z</time>
      </trkpt>
      <trkpt lat="50.876770" lon="5.877070">
        <ele>138.757434</ele>
        <time>2022-05-17T01:29:33.689Z</time>
      </trkpt>
      <trkpt lat="50.877155" lon="5.876809">
        <ele>138.730799</ele>
        <time>2022-05-17T01:29:41.993Z</time>
      </trkpt>
      <trkpt lat="50.877473" lon="5.876594">
        <ele>138.708808</ele>
        <time>2022-05-17T01:29:48.796Z</time>
      </trkpt>
      <trkpt lat="50.877558" lon="5.876608">
        <ele>138.703372</ele>
        <time>2022-05-17T01:29:50.421Z</time>
      </trkpt>
      <trkpt lat="50.877715" lon="5.876429">
        <ele>138.691071</ele>
        <time>2022-05-17T01:29:54.245Z</time>
      </trkpt>
      <trkpt lat="50.878875" lon="5.876102">
        <ele>138.625018</ele>
        <time>2022-05-17T01:30:17.639Z</time>
      </trkpt>
      <trkpt lat="50.879017" lon="5.875942">
        <ele>138.615788</ele>
        <time>2022-05-17T01:30:20.117Z</time>
      </trkpt>
      <trkpt lat="50.879112" lon="5.876072">
        <ele>138.609139</ele>
        <time>2022-05-17T01:30:22.171Z</time>
      </trkpt>
      <trkpt lat="50.879195" lon="5.876004">
        <ele>138.604190</ele>
        <time>2022-05-17T01:30:23.563Z</time>
      </trkpt>
      <trkpt lat="50.879210" lon="5.875886">
        <ele>138.600167</ele>
        <time>2022-05-17T01:30:24.654Z</time>
      </trkpt>
      <trkpt lat="50.879362" lon="5.875818">
        <ele>138.591800</ele>
        <time>2022-05-17T01:30:27.168Z</time>
      </trkpt>
      <trkpt lat="50.879635" lon="5.875244">
        <ele>138.476384</ele>
        <time>2022-05-17T01:30:34.079Z</time>
      </trkpt>
      <trkpt lat="50.880010" lon="5.874690">
        <ele>138.051616</ele>
        <time>2022-05-17T01:30:41.126Z</time>
      </trkpt>
      <trkpt lat="50.880500" lon="5.874063">
        <ele>137.529810</ele>
        <time>2022-05-17T01:30:48.946Z</time>
      </trkpt>
      <trkpt lat="50.880870" lon="5.873472">
        <ele>137.094557</ele>
        <time>2022-05-17T01:30:54.986Z</time>
      </trkpt>
      <trkpt lat="50.881756" lon="5.871932">
        <ele>135.099577</ele>
        <time>2022-05-17T01:31:09.690Z</time>
      </trkpt>
      <trkpt lat="50.881924" lon="5.871602">
        <ele>134.691834</ele>
        <time>2022-05-17T01:31:12.744Z</time>
      </trkpt>
      <trkpt lat="50.881997" lon="5.871433">
        <ele>134.494889</ele>
        <time>2022-05-17T01:31:14.238Z</time>
      </trkpt>
      <trkpt lat="50.882218" lon="5.870756">
        <ele>134.506299</ele>
        <time>2022-05-17T01:31:20.374Z</time>
      </trkpt>
      <trkpt lat="50.882302" lon="5.870244">
        <ele>134.649932</ele>
        <time>2022-05-17T01:31:25.518Z</time>
      </trkpt>
      <trkpt lat="50.882338" lon="5.869181">
        <ele>134.938955</ele>
        <time>2022-05-17T01:31:37.891Z</time>
      </trkpt>
      <trkpt lat="50.882372" lon="5.868368">
        <ele>135.196431</ele>
        <time>2022-05-17T01:31:48.335Z</time>
      </trkpt>
      <trkpt lat="50.882511" lon="5.867892">
        <ele>135.456845</ele>
        <time>2022-05-17T01:31:55.294Z</time>
      </trkpt>
      <trkpt lat="50.882737" lon="5.867508">
        <ele>135.717568</ele>
        <time>2022-05-17T01:32:02.286Z</time>
      </trkpt>
      <trkpt lat="50.883106" lon="5.867045">
        <ele>136.087919</ele>
        <time>2022-05-17T01:32:11.216Z</time>
      </trkpt>
      <trkpt lat="50.883716" lon="5.866203">
        <ele>136.255518</ele>
        <time>2022-05-17T01:32:23.283Z</time>
      </trkpt>
      <trkpt lat="50.883760" lon="5.866146">
        <ele>136.191376</ele>
        <time>2022-05-17T01:32:24.055Z</time>
      </trkpt>
      <trkpt lat="50.884980" lon="5.864460">
        <ele>134.210825</ele>
        <time>2022-05-17T01:32:42.993Z</time>
      </trkpt>
      <trkpt lat="50.885750" lon="5.863720">
        <ele>132.056678</ele>
        <time>2022-05-17T01:32:52.634Z</time>
      </trkpt>
      <trkpt lat="50.886552" lon="5.863287">
        <ele>129.903796</ele>
        <time>2022-05-17T01:33:01.594Z</time>
      </trkpt>
      <trkpt lat="50.886855" lon="5.863184">
        <ele>128.609319</ele>
        <time>2022-05-17T01:33:04.684Z</time>
      </trkpt>
      <trkpt lat="50.887587" lon="5.863117">
        <ele>125.546494</ele>
        <time>2022-05-17T01:33:11.705Z</time>
      </trkpt>
      <trkpt lat="50.887831" lon="5.863103">
        <ele>124.526582</ele>
        <time>2022-05-17T01:33:14.027Z</time>
      </trkpt>
      <trkpt lat="50.888559" lon="5.863046">
        <ele>122.017665</ele>
        <time>2022-05-17T01:33:20.899Z</time>
      </trkpt>
      <trkpt lat="50.889143" lon="5.862357">
        <ele>120.330439</ele>
        <time>2022-05-17T01:33:28.135Z</time>
      </trkpt>
      <trkpt lat="50.889408" lon="5.862545">
        <ele>119.657563</ele>
        <time>2022-05-17T01:33:31.322Z</time>
      </trkpt>
      <trkpt lat="50.889536" lon="5.862442">
        <ele>119.324871</ele>
        <time>2022-05-17T01:33:33.016Z</time>
      </trkpt>
      <trkpt lat="50.890028" lon="5.861773">
        <ele>119.519787</ele>
        <time>2022-05-17T01:33:45.110Z</time>
      </trkpt>
      <trkpt lat="50.890410" lon="5.861120">
        <ele>121.400722</ele>
        <time>2022-05-17T01:34:00.239Z</time>
      </trkpt>
      <trkpt lat="50.890641" lon="5.860560">
        <ele>122.813891</ele>
        <time>2022-05-17T01:34:13.951Z</time>
      </trkpt>
      <trkpt lat="50.890794" lon="5.860022">
        <ele>124.060294</ele>
        <time>2022-05-17T01:34:27.174Z</time>
      </trkpt>
      <trkpt lat="50.890813" lon="5.859949">
        <ele>124.227080</ele>
        <time>2022-05-17T01:34:28.903Z</time>
      </trkpt>
      <trkpt lat="50.890848" lon="5.859774">
        <ele>124.627100</ele>
        <time>2022-05-17T01:34:33.101Z</time>
      </trkpt>
      <trkpt lat="50.890958" lon="5.859050">
        <ele>126.454674</ele>
        <time>2022-05-17T01:34:49.509Z</time>
      </trkpt>
      <trkpt lat="50.891110" lon="5.857556">
        <ele>130.168460</ele>
        <time>2022-05-17T01:35:18.752Z</time>
      </trkpt>
      <trkpt lat="50.891134" lon="5.857345">
        <ele>130.694622</ele>
        <time>2022-05-17T01:35:22.282Z</time>
      </trkpt>
      <trkpt lat="50.891321" lon="5.855721">
        <ele>133.063475</ele>
        <time>2022-05-17T01:35:47.169Z</time>
      </trkpt>
      <trkpt lat="50.891349" lon="5.855534">
        <ele>133.287884</ele>
        <time>2022-05-17T01:35:49.912Z</time>
      </trkpt>
      <trkpt lat="50.890989" lon="5.855299">
        <ele>134.008528</ele>
        <time>2022-05-17T01:36:00.271Z</time>
      </trkpt>
      <trkpt lat="50.891007" lon="5.855209">
        <ele>134.118769</ele>
        <time>2022-05-17T01:36:01.819Z</time>
      </trkpt>
      <trkpt lat="50.891039" lon="5.855046">
        <ele>134.318094</ele>
        <time>2022-05-17T01:36:03.999Z</time>
      </trkpt>
      <trkpt lat="50.891074" lon="5.854534">
        <ele>134.886952</ele>
        <time>2022-05-17T01:36:10.289Z</time>
      </trkpt>
      <trkpt lat="50.891034" lon="5.853522">
        <ele>135.354032</ele>
        <time>2022-05-17T01:36:21.611Z</time>
      </trkpt>
      <trkpt lat="50.890966" lon="5.852755">
        <ele>135.710814</ele>
        <time>2022-05-17T01:36:29.991Z</time>
      </trkpt>
      <trkpt lat="50.890785" lon="5.851880">
        <ele>136.134993</ele>
        <time>2022-05-17T01:36:40.391Z</time>
      </trkpt>
      <trkpt lat="50.890488" lon="5.851009">
        <ele>136.339217</ele>
        <time>2022-05-17T01:36:50.717Z</time>
      </trkpt>
      <trkpt lat="50.890156" lon="5.850045">
        <ele>136.535731</ele>
        <time>2022-05-17T01:37:01.295Z</time>
      </trkpt>
      <trkpt lat="50.889250" lon="5.847521">
        <ele>136.992426</ele>
        <time>2022-05-17T01:37:29.598Z</time>
      </trkpt>
      <trkpt lat="50.888464" lon="5.845020">
        <ele>137.715832</ele>
        <time>2022-05-17T01:37:58.736Z</time>
      </trkpt>
      <trkpt lat="50.888360" lon="5.844524">
        <ele>137.874627</ele>
        <time>2022-05-17T01:38:04.395Z</time>
      </trkpt>
      <trkpt lat="50.888193" lon="5.843916">
        <ele>138.093483</ele>
        <time>2022-05-17T01:38:11.603Z</time>
      </trkpt>
      <trkpt lat="50.888393" lon="5.843627">
        <ele>138.246947</ele>
        <time>2022-05-17T01:38:17.938Z</time>
      </trkpt>
      <trkpt lat="50.889106" lon="5.842598">
        <ele>138.793732</ele>
        <time>2022-05-17T01:38:40.527Z</time>
      </trkpt>
      <trkpt lat="50.889230" lon="5.842433">
        <ele>138.885538</ele>
        <time>2022-05-17T01:38:44.080Z</time>
      </trkpt>
      <trkpt lat="50.889661" lon="5.842005">
        <ele>138.763003</ele>
        <time>2022-05-17T01:38:54.875Z</time>
      </trkpt>
      <trkpt lat="50.890248" lon="5.841422">
        <ele>138.237947</ele>
        <time>2022-05-17T01:39:07.495Z</time>
      </trkpt>
      <trkpt lat="50.890647" lon="5.840809">
        <ele>137.816781</ele>
        <time>2022-05-17T01:39:16.900Z</time>
      </trkpt>
      <trkpt lat="50.890772" lon="5.840507">
        <ele>137.644071</ele>
        <time>2022-05-17T01:39:20.722Z</time>
      </trkpt>
      <trkpt lat="50.890807" lon="5.840421">
        <ele>137.540543</ele>
        <time>2022-05-17T01:39:21.760Z</time>
      </trkpt>
      <trkpt lat="50.890988" lon="5.839764">
        <ele>136.724912</ele>
        <time>2022-05-17T01:39:28.909Z</time>
      </trkpt>
      <trkpt lat="50.891563" lon="5.837684">
        <ele>134.224680</ele>
        <time>2022-05-17T01:39:51.526Z</time>
      </trkpt>
      <trkpt lat="50.891903" lon="5.836940">
        <ele>133.528828</ele>
        <time>2022-05-17T01:40:01.337Z</time>
      </trkpt>
      <trkpt lat="50.892231" lon="5.836521">
        <ele>133.023041</ele>
        <time>2022-05-17T01:40:08.525Z</time>
      </trkpt>
      <trkpt lat="50.892468" lon="5.836320">
        <ele>132.700307</ele>
        <time>2022-05-17T01:40:13.188Z</time>
      </trkpt>
      <trkpt lat="50.893041" lon="5.836072">
        <ele>132.079149</ele>
        <time>2022-05-17T01:40:23.633Z</time>
      </trkpt>
      <trkpt lat="50.893185" lon="5.836016">
        <ele>131.968279</ele>
        <time>2022-05-17T01:40:26.263Z</time>
      </trkpt>
      <trkpt lat="50.894210" lon="5.835660">
        <ele>131.183649</ele>
        <time>2022-05-17T01:40:45.136Z</time>
      </trkpt>
      <trkpt lat="50.894917" lon="5.835583">
        <ele>130.725925</ele>
        <time>2022-05-17T01:40:57.992Z</time>
      </trkpt>
      <trkpt lat="50.895133" lon="5.835464">
        <ele>130.608048</ele>
        <time>2022-05-17T01:41:02.362Z</time>
      </trkpt>
      <trkpt lat="50.895297" lon="5.835227">
        <ele>130.493659</ele>
        <time>2022-05-17T01:41:06.152Z</time>
      </trkpt>
      <trkpt lat="50.895460" lon="5.834812">
        <ele>130.334703</ele>
        <time>2022-05-17T01:41:11.840Z</time>
      </trkpt>
      <trkpt lat="50.895763" lon="5.833830">
        <ele>129.979262</ele>
        <time>2022-05-17T01:41:24.703Z</time>
      </trkpt>
      <trkpt lat="50.896008" lon="5.833665">
        <ele>130.029934</ele>
        <time>2022-05-17T01:41:30.071Z</time>
      </trkpt>
      <trkpt lat="50.896171" lon="5.833822">
        <ele>130.089624</ele>
        <time>2022-05-17T01:41:33.511Z</time>
      </trkpt>
      <trkpt lat="50.896275" lon="5.833782">
        <ele>130.123118</ele>
        <time>2022-05-17T01:41:35.811Z</time>
      </trkpt>
      <trkpt lat="50.896360" lon="5.833722">
        <ele>130.152238</ele>
        <time>2022-05-17T01:41:37.956Z</time>
      </trkpt>
      <trkpt lat="50.896376" lon="5.833294">
        <ele>130.236873</ele>
        <time>2022-05-17T01:41:43.642Z</time>
      </trkpt>
      <trkpt lat="50.896222" lon="5.832944">
        <ele>130.321114</ele>
        <time>2022-05-17T01:41:49.455Z</time>
      </trkpt>
      <trkpt lat="50.896194" lon="5.832369">
        <ele>130.434957</ele>
        <time>2022-05-17T01:41:57.593Z</time>
      </trkpt>
      <trkpt lat="50.896465" lon="5.830642">
        <ele>131.439195</ele>
        <time>2022-05-17T01:42:24.888Z</time>
      </trkpt>
      <trkpt lat="50.896926" lon="5.828721">
        <ele>132.957769</ele>
        <time>2022-05-17T01:42:57.391Z</time>
      </trkpt>
      <trkpt lat="50.897047" lon="5.828375">
        <ele>133.309500</ele>
        <time>2022-05-17T01:43:03.641Z</time>
      </trkpt>
      <trkpt lat="50.897135" lon="5.828138">
        <ele>133.554005</ele>
        <time>2022-05-17T01:43:08.005Z</time>
      </trkpt>
      <trkpt lat="50.897540" lon="5.826932">
        <ele>134.768700</ele>
        <time>2022-05-17T01:43:25.760Z</time>
      </trkpt>
      <trkpt lat="50.897976" lon="5.825063">
        <ele>136.497500</ele>
        <time>2022-05-17T01:43:53.021Z</time>
      </trkpt>
      <trkpt lat="50.897998" lon="5.824764">
        <ele>136.757632</ele>
        <time>2022-05-17T01:43:57.305Z</time>
      </trkpt>
      <trkpt lat="50.898325" lon="5.823907">
        <ele>137.385065</ele>
        <time>2022-05-17T01:44:08.961Z</time>
      </trkpt>
      <trkpt lat="50.898404" lon="5.823797">
        <ele>137.297969</ele>
        <time>2022-05-17T01:44:10.733Z</time>
      </trkpt>
      <trkpt lat="50.898610" lon="5.823520">
        <ele>137.074215</ele>
        <time>2022-05-17T01:44:14.760Z</time>
      </trkpt>
      <trkpt lat="50.898905" lon="5.823251">
        <ele>136.792307</ele>
        <time>2022-05-17T01:44:19.378Z</time>
      </trkpt>
      <trkpt lat="50.899520" lon="5.822690">
        <ele>136.204550</ele>
        <time>2022-05-17T01:44:27.599Z</time>
      </trkpt>
      <trkpt lat="50.899982" lon="5.822177">
        <ele>135.432826</ele>
        <time>2022-05-17T01:44:33.652Z</time>
      </trkpt>
      <trkpt lat="50.900047" lon="5.822262">
        <ele>135.277158</ele>
        <time>2022-05-17T01:44:34.571Z</time>
      </trkpt>
      <trkpt lat="50.900129" lon="5.822232">
        <ele>135.121674</ele>
        <time>2022-05-17T01:44:35.487Z</time>
      </trkpt>
      <trkpt lat="50.900153" lon="5.822045">
        <ele>134.899309</ele>
        <time>2022-05-17T01:44:36.752Z</time>
      </trkpt>
      <trkpt lat="50.900545" lon="5.821644">
        <ele>134.037403</ele>
        <time>2022-05-17T01:44:41.795Z</time>
      </trkpt>
      <trkpt lat="50.901616" lon="5.820460">
        <ele>132.361886</ele>
        <time>2022-05-17T01:44:56.880Z</time>
      </trkpt>
      <trkpt lat="50.902497" lon="5.819338">
        <ele>131.758122</ele>
        <time>2022-05-17T01:45:12.813Z</time>
      </trkpt>
      <trkpt lat="50.903430" lon="5.818110">
        <ele>131.892878</ele>
        <time>2022-05-17T01:45:32.182Z</time>
      </trkpt>
      <trkpt lat="50.903689" lon="5.817617">
        <ele>131.963307</ele>
        <time>2022-05-17T01:45:38.606Z</time>
      </trkpt>
      <trkpt lat="50.904188" lon="5.816305">
        <ele>132.046145</ele>
        <time>2022-05-17T01:45:53.353Z</time>
      </trkpt>
      <trkpt lat="50.904247" lon="5.816153">
        <ele>132.051549</ele>
        <time>2022-05-17T01:45:54.964Z</time>
      </trkpt>
      <trkpt lat="50.904596" lon="5.815296">
        <ele>132.082439</ele>
        <time>2022-05-17T01:46:04.315Z</time>
      </trkpt>
      <trkpt lat="50.904758" lon="5.814916">
        <ele>132.096327</ele>
        <time>2022-05-17T01:46:08.795Z</time>
      </trkpt>
      <trkpt lat="50.905253" lon="5.813987">
        <ele>131.829590</ele>
        <time>2022-05-17T01:46:20.174Z</time>
      </trkpt>
      <trkpt lat="50.905560" lon="5.813740">
        <ele>131.694776</ele>
        <time>2022-05-17T01:46:25.145Z</time>
      </trkpt>
      <trkpt lat="50.906050" lon="5.813480">
        <ele>131.492429</ele>
        <time>2022-05-17T01:46:32.399Z</time>
      </trkpt>
      <trkpt lat="50.908425" lon="5.811934">
        <ele>127.303059</ele>
        <time>2022-05-17T01:47:01.319Z</time>
      </trkpt>
      <trkpt lat="50.909051" lon="5.811541">
        <ele>125.814971</ele>
        <time>2022-05-17T01:47:08.416Z</time>
      </trkpt>
      <trkpt lat="50.909641" lon="5.810883">
        <ele>124.248293</ele>
        <time>2022-05-17T01:47:16.169Z</time>
      </trkpt>
      <trkpt lat="50.909831" lon="5.810800">
        <ele>123.858941</ele>
        <time>2022-05-17T01:47:18.259Z</time>
      </trkpt>
      <trkpt lat="50.910790" lon="5.810730">
        <ele>121.962293</ele>
        <time>2022-05-17T01:47:28.871Z</time>
      </trkpt>
      <trkpt lat="50.910950" lon="5.810750">
        <ele>121.645210</ele>
        <time>2022-05-17T01:47:30.683Z</time>
      </trkpt>
      <trkpt lat="50.911460" lon="5.811010">
        <ele>120.586338</ele>
        <time>2022-05-17T01:47:36.638Z</time>
      </trkpt>
      <trkpt lat="50.911690" lon="5.811040">
        <ele>120.129710</ele>
        <time>2022-05-17T01:47:39.232Z</time>
      </trkpt>
      <trkpt lat="50.912501" lon="5.810818">
        <ele>118.501292</ele>
        <time>2022-05-17T01:47:48.339Z</time>
      </trkpt>
      <trkpt lat="50.913170" lon="5.810720">
        <ele>117.179164</ele>
        <time>2022-05-17T01:47:55.652Z</time>
      </trkpt>
      <trkpt lat="50.913960" lon="5.810770">
        <ele>115.672520</ele>
        <time>2022-05-17T01:48:04.151Z</time>
      </trkpt>
      <trkpt lat="50.914480" lon="5.810660">
        <ele>114.672819</ele>
        <time>2022-05-17T01:48:09.946Z</time>
      </trkpt>
      <trkpt lat="50.914927" lon="5.810610">
        <ele>113.913455</ele>
        <time>2022-05-17T01:48:14.999Z</time>
      </trkpt>
      <trkpt lat="50.915960" lon="5.810660">
        <ele>113.478824</ele>
        <time>2022-05-17T01:48:27.718Z</time>
      </trkpt>
      <trkpt lat="50.916660" lon="5.810509">
        <ele>113.189330</ele>
        <time>2022-05-17T01:48:39.621Z</time>
      </trkpt>
      <trkpt lat="50.917140" lon="5.810250">
        <ele>113.753094</ele>
        <time>2022-05-17T01:48:49.380Z</time>
      </trkpt>
      <trkpt lat="50.917980" lon="5.809470">
        <ele>114.835394</ele>
        <time>2022-05-17T01:49:08.843Z</time>
      </trkpt>
      <trkpt lat="50.919250" lon="5.808999">
        <ele>115.988628</ele>
        <time>2022-05-17T01:49:34.314Z</time>
      </trkpt>
      <trkpt lat="50.921121" lon="5.808054">
        <ele>116.370649</ele>
        <time>2022-05-17T01:50:05.869Z</time>
      </trkpt>
      <trkpt lat="50.921435" lon="5.808023">
        <ele>116.296065</ele>
        <time>2022-05-17T01:50:09.823Z</time>
      </trkpt>
      <trkpt lat="50.921952" lon="5.808173">
        <ele>115.958720</ele>
        <time>2022-05-17T01:50:15.994Z</time>
      </trkpt>
      <trkpt lat="50.922598" lon="5.808198">
        <ele>115.109018</ele>
        <time>2022-05-17T01:50:23.547Z</time>
      </trkpt>
      <trkpt lat="50.923355" lon="5.807871">
        <ele>114.077367</ele>
        <time>2022-05-17T01:50:32.734Z</time>
      </trkpt>
      <trkpt lat="50.924080" lon="5.807640">
        <ele>113.303767</ele>
        <time>2022-05-17T01:50:41.265Z</time>
      </trkpt>
      <trkpt lat="50.924779" lon="5.807819">
        <ele>112.620082</ele>
        <time>2022-05-17T01:50:50.112Z</time>
      </trkpt>
      <trkpt lat="50.925340" lon="5.807780">
        <ele>112.094880</ele>
        <time>2022-05-17T01:50:57.584Z</time>
      </trkpt>
      <trkpt lat="50.926572" lon="5.807157">
        <ele>111.397567</ele>
        <time>2022-05-17T01:51:14.254Z</time>
      </trkpt>
      <trkpt lat="50.926621" lon="5.807129">
        <ele>111.369481</ele>
        <time>2022-05-17T01:51:14.944Z</time>
      </trkpt>
      <trkpt lat="50.927115" lon="5.806363">
        <ele>111.095993</ele>
        <time>2022-05-17T01:51:24.193Z</time>
      </trkpt>
      <trkpt lat="50.927212" lon="5.806197">
        <ele>111.070021</ele>
        <time>2022-05-17T01:51:26.168Z</time>
      </trkpt>
      <trkpt lat="50.927915" lon="5.804967">
        <ele>110.879513</ele>
        <time>2022-05-17T01:51:41.940Z</time>
      </trkpt>
      <trkpt lat="50.928181" lon="5.804617">
        <ele>110.808174</ele>
        <time>2022-05-17T01:51:46.960Z</time>
      </trkpt>
      <trkpt lat="50.928417" lon="5.804485">
        <ele>110.604360</ele>
        <time>2022-05-17T01:51:51.594Z</time>
      </trkpt>
      <trkpt lat="50.928923" lon="5.803864">
        <ele>110.083319</ele>
        <time>2022-05-17T01:52:02.967Z</time>
      </trkpt>
      <trkpt lat="50.929204" lon="5.803414">
        <ele>109.758130</ele>
        <time>2022-05-17T01:52:09.942Z</time>
      </trkpt>
      <trkpt lat="50.929442" lon="5.802873">
        <ele>109.419444</ele>
        <time>2022-05-17T01:52:17.126Z</time>
      </trkpt>
      <trkpt lat="50.929853" lon="5.801464">
        <ele>108.624975</ele>
        <time>2022-05-17T01:52:33.745Z</time>
      </trkpt>
      <trkpt lat="50.930241" lon="5.800649">
        <ele>108.102485</ele>
        <time>2022-05-17T01:52:44.870Z</time>
      </trkpt>
      <trkpt lat="50.931218" lon="5.799341">
        <ele>107.676356</ele>
        <time>2022-05-17T01:53:11.798Z</time>
      </trkpt>
      <trkpt lat="50.932211" lon="5.798353">
        <ele>106.635580</ele>
        <time>2022-05-17T01:53:33.510Z</time>
      </trkpt>
      <trkpt lat="50.932566" lon="5.798046">
        <ele>105.740174</ele>
        <time>2022-05-17T01:53:40.142Z</time>
      </trkpt>
      <trkpt lat="50.933324" lon="5.797546">
        <ele>103.922155</ele>
        <time>2022-05-17T01:53:52.526Z</time>
      </trkpt>
      <trkpt lat="50.933909" lon="5.797400">
        <ele>101.635610</ele>
        <time>2022-05-17T01:53:58.233Z</time>
      </trkpt>
      <trkpt lat="50.934450" lon="5.797300">
        <ele>99.146270</ele>
        <time>2022-05-17T01:54:03.393Z</time>
      </trkpt>
      <trkpt lat="50.935652" lon="5.797332">
        <ele>94.442065</ele>
        <time>2022-05-17T01:54:14.718Z</time>
      </trkpt>
      <trkpt lat="50.936049" lon="5.797274">
        <ele>93.490080</ele>
        <time>2022-05-17T01:54:18.797Z</time>
      </trkpt>
      <trkpt lat="50.936115" lon="5.797374">
        <ele>93.272179</ele>
        <time>2022-05-17T01:54:19.761Z</time>
      </trkpt>
      <trkpt lat="50.936216" lon="5.797290">
        <ele>92.999889</ele>
        <time>2022-05-17T01:54:20.978Z</time>
      </trkpt>
      <trkpt lat="50.936219" lon="5.797200">
        <ele>92.864269</ele>
        <time>2022-05-17T01:54:21.628Z</time>
      </trkpt>
      <trkpt lat="50.936190" lon="5.797129">
        <ele>92.736951</ele>
        <time>2022-05-17T01:54:22.326Z</time>
      </trkpt>
      <trkpt lat="50.936093" lon="5.796645">
        <ele>91.972690</ele>
        <time>2022-05-17T01:54:27.554Z</time>
      </trkpt>
      <trkpt lat="50.935856" lon="5.795444">
        <ele>91.289373</ele>
        <time>2022-05-17T01:54:42.364Z</time>
      </trkpt>
      <trkpt lat="50.935880" lon="5.794820">
        <ele>91.569344</ele>
        <time>2022-05-17T01:54:52.345Z</time>
      </trkpt>
      <trkpt lat="50.936127" lon="5.793983">
        <ele>91.983245</ele>
        <time>2022-05-17T01:55:08.707Z</time>
      </trkpt>
      <trkpt lat="50.936175" lon="5.793617">
        <ele>92.150665</ele>
        <time>2022-05-17T01:55:15.259Z</time>
      </trkpt>
      <trkpt lat="50.936175" lon="5.793614">
        <ele>92.152008</ele>
        <time>2022-05-17T01:55:15.311Z</time>
      </trkpt>
      <trkpt lat="50.936168" lon="5.793087">
        <ele>92.122762</ele>
        <time>2022-05-17T01:55:22.585Z</time>
      </trkpt>
      <trkpt lat="50.936155" lon="5.792433">
        <ele>91.623567</ele>
        <time>2022-05-17T01:55:29.306Z</time>
      </trkpt>
      <trkpt lat="50.936124" lon="5.792079">
        <ele>91.350899</ele>
        <time>2022-05-17T01:55:32.866Z</time>
      </trkpt>
      <trkpt lat="50.936010" lon="5.791494">
        <ele>90.883742</ele>
        <time>2022-05-17T01:55:38.932Z</time>
      </trkpt>
      <trkpt lat="50.936000" lon="5.791090">
        <ele>90.575285</ele>
        <time>2022-05-17T01:55:43.064Z</time>
      </trkpt>
      <trkpt lat="50.936103" lon="5.790768">
        <ele>90.299791</ele>
        <time>2022-05-17T01:55:46.698Z</time>
      </trkpt>
      <trkpt lat="50.936340" lon="5.790203">
        <ele>89.872448</ele>
        <time>2022-05-17T01:55:51.831Z</time>
      </trkpt>
      <trkpt lat="50.936380" lon="5.790240">
        <ele>89.831740</ele>
        <time>2022-05-17T01:55:52.587Z</time>
      </trkpt>
      <trkpt lat="50.936640" lon="5.790430">
        <ele>89.580063</ele>
        <time>2022-05-17T01:55:55.904Z</time>
      </trkpt>
      <trkpt lat="50.936720" lon="5.790370">
        <ele>89.502264</ele>
        <time>2022-05-17T01:55:57.167Z</time>
      </trkpt>
      <trkpt lat="50.937064" lon="5.789791">
        <ele>89.061359</ele>
        <time>2022-05-17T01:56:02.750Z</time>
      </trkpt>
      <trkpt lat="50.937100" lon="5.789730">
        <ele>89.015053</ele>
        <time>2022-05-17T01:56:03.339Z</time>
      </trkpt>
      <trkpt lat="50.937145" lon="5.789658">
        <ele>88.958867</ele>
        <time>2022-05-17T01:56:04.361Z</time>
      </trkpt>
      <trkpt lat="50.937160" lon="5.789630">
        <ele>88.938505</ele>
        <time>2022-05-17T01:56:04.766Z</time>
      </trkpt>
      <trkpt lat="50.937380" lon="5.789250">
        <ele>88.652594</ele>
        <time>2022-05-17T01:56:11.070Z</time>
      </trkpt>
      <trkpt lat="50.937290" lon="5.788290">
        <ele>89.088492</ele>
        <time>2022-05-17T01:56:26.590Z</time>
      </trkpt>
      <trkpt lat="50.937514" lon="5.787061">
        <ele>90.037929</ele>
        <time>2022-05-17T01:56:47.830Z</time>
      </trkpt>
      <trkpt lat="50.937634" lon="5.785862">
        <ele>90.651034</ele>
        <time>2022-05-17T01:57:07.119Z</time>
      </trkpt>
      <trkpt lat="50.937640" lon="5.785720">
        <ele>90.651706</ele>
        <time>2022-05-17T01:57:09.331Z</time>
      </trkpt>
      <trkpt lat="50.937670" lon="5.785110">
        <ele>90.654598</ele>
        <time>2022-05-17T01:57:16.196Z</time>
      </trkpt>
      <trkpt lat="50.937674" lon="5.784970">
        <ele>90.655260</ele>
        <time>2022-05-17T01:57:18.138Z</time>
      </trkpt>
      <trkpt lat="50.937456" lon="5.784179">
        <ele>90.659340</ele>
        <time>2022-05-17T01:57:29.051Z</time>
      </trkpt>
      <trkpt lat="50.937330" lon="5.783440">
        <ele>90.583604</ele>
        <time>2022-05-17T01:57:37.534Z</time>
      </trkpt>
      <trkpt lat="50.936940" lon="5.780780">
        <ele>86.944610</ele>
        <time>2022-05-17T01:58:03.943Z</time>
      </trkpt>
      <trkpt lat="50.936995" lon="5.778427">
        <ele>84.124430</ele>
        <time>2022-05-17T01:58:27.045Z</time>
      </trkpt>
      <trkpt lat="50.937077" lon="5.777490">
        <ele>83.210607</ele>
        <time>2022-05-17T01:58:37.244Z</time>
      </trkpt>
      <trkpt lat="50.937374" lon="5.776729">
        <ele>82.646423</ele>
        <time>2022-05-17T01:58:47.150Z</time>
      </trkpt>
      <trkpt lat="50.937550" lon="5.776099">
        <ele>82.212075</ele>
        <time>2022-05-17T01:58:54.900Z</time>
      </trkpt>
      <trkpt lat="50.938798" lon="5.773942">
        <ele>80.117107</ele>
        <time>2022-05-17T01:59:27.024Z</time>
      </trkpt>
      <trkpt lat="50.939479" lon="5.772894">
        <ele>78.845237</ele>
        <time>2022-05-17T01:59:42.367Z</time>
      </trkpt>
      <trkpt lat="50.939995" lon="5.771999">
        <ele>77.688546</ele>
        <time>2022-05-17T01:59:54.728Z</time>
      </trkpt>
      <trkpt lat="50.940350" lon="5.771230">
        <ele>76.781593</ele>
        <time>2022-05-17T02:00:04.665Z</time>
      </trkpt>
      <trkpt lat="50.940670" lon="5.770962">
        <ele>76.521327</ele>
        <time>2022-05-17T02:00:10.877Z</time>
      </trkpt>
      <trkpt lat="50.941127" lon="5.770378">
        <ele>76.099275</ele>
        <time>2022-05-17T02:00:21.351Z</time>
      </trkpt>
      <trkpt lat="50.941161" lon="5.770098">
        <ele>75.970029</ele>
        <time>2022-05-17T02:00:24.690Z</time>
      </trkpt>
      <trkpt lat="50.941119" lon="5.769922">
        <ele>75.884728</ele>
        <time>2022-05-17T02:00:26.897Z</time>
      </trkpt>
      <trkpt lat="50.940857" lon="5.769597">
        <ele>75.645527</ele>
        <time>2022-05-17T02:00:33.177Z</time>
      </trkpt>
      <trkpt lat="50.941335" lon="5.768357">
        <ele>75.308990</ele>
        <time>2022-05-17T02:00:50.638Z</time>
      </trkpt>
      <trkpt lat="50.941810" lon="5.767146">
        <ele>75.076789</ele>
        <time>2022-05-17T02:01:08.070Z</time>
      </trkpt>
      <trkpt lat="50.942018" lon="5.766599">
        <ele>74.990586</ele>
        <time>2022-05-17T02:01:15.849Z</time>
      </trkpt>
      <trkpt lat="50.942077" lon="5.766407">
        <ele>74.967673</ele>
        <time>2022-05-17T02:01:18.520Z</time>
      </trkpt>
      <trkpt lat="50.943690" lon="5.767324">
        <ele>74.441165</ele>
        <time>2022-05-17T02:01:52.523Z</time>
      </trkpt>
      <trkpt lat="50.943793" lon="5.767380">
        <ele>74.320889</ele>
        <time>2022-05-17T02:01:54.560Z</time>
      </trkpt>
      <trkpt lat="50.944070" lon="5.767407">
        <ele>74.014307</ele>
        <time>2022-05-17T02:01:59.487Z</time>
      </trkpt>
      <trkpt lat="50.944160" lon="5.767393">
        <ele>73.914407</ele>
        <time>2022-05-17T02:02:01.052Z</time>
      </trkpt>
      <trkpt lat="50.944281" lon="5.767380">
        <ele>73.780431</ele>
        <time>2022-05-17T02:02:02.456Z</time>
      </trkpt>
      <trkpt lat="50.944443" lon="5.767360">
        <ele>73.600928</ele>
        <time>2022-05-17T02:02:04.312Z</time>
      </trkpt>
      <trkpt lat="50.944615" lon="5.767334">
        <ele>73.410058</ele>
        <time>2022-05-17T02:02:07.214Z</time>
      </trkpt>
      <trkpt lat="50.945300" lon="5.767258">
        <ele>72.601802</ele>
        <time>2022-05-17T02:02:18.504Z</time>
      </trkpt>
      <trkpt lat="50.945614" lon="5.767151">
        <ele>72.027550</ele>
        <time>2022-05-17T02:02:23.621Z</time>
      </trkpt>
      <trkpt lat="50.945814" lon="5.767083">
        <ele>71.661821</ele>
        <time>2022-05-17T02:02:26.763Z</time>
      </trkpt>
      <trkpt lat="50.946170" lon="5.766515">
        <ele>70.759227</ele>
        <time>2022-05-17T02:02:34.778Z</time>
      </trkpt>
      <trkpt lat="50.946292" lon="5.766406">
        <ele>70.508894</ele>
        <time>2022-05-17T02:02:36.931Z</time>
      </trkpt>
      <trkpt lat="50.946450" lon="5.766364">
        <ele>70.222443</ele>
        <time>2022-05-17T02:02:39.529Z</time>
      </trkpt>
      <trkpt lat="50.946718" lon="5.766413">
        <ele>69.740069</ele>
        <time>2022-05-17T02:02:43.777Z</time>
      </trkpt>
      <trkpt lat="50.946726" lon="5.766339">
        <ele>69.655485</ele>
        <time>2022-05-17T02:02:44.355Z</time>
      </trkpt>
      <trkpt lat="50.946793" lon="5.765808">
        <ele>69.191925</ele>
        <time>2022-05-17T02:02:48.334Z</time>
      </trkpt>
      <trkpt lat="50.946823" lon="5.765628">
        <ele>69.047522</ele>
        <time>2022-05-17T02:02:49.794Z</time>
      </trkpt>
      <trkpt lat="50.947590" lon="5.765684">
        <ele>68.102366</ele>
        <time>2022-05-17T02:02:59.129Z</time>
      </trkpt>
      <trkpt lat="50.947876" lon="5.765695">
        <ele>67.750205</ele>
        <time>2022-05-17T02:03:02.497Z</time>
      </trkpt>
      <trkpt lat="50.947898" lon="5.765295">
        <ele>67.438806</ele>
        <time>2022-05-17T02:03:05.548Z</time>
      </trkpt>
      <trkpt lat="50.948308" lon="5.761282">
        <ele>64.436008</ele>
        <time>2022-05-17T02:03:35.570Z</time>
      </trkpt>
      <trkpt lat="50.948452" lon="5.760621">
        <ele>64.073586</ele>
        <time>2022-05-17T02:03:41.159Z</time>
      </trkpt>
      <trkpt lat="50.948580" lon="5.760362">
        <ele>63.903010</ele>
        <time>2022-05-17T02:03:43.866Z</time>
      </trkpt>
      <trkpt lat="50.948657" lon="5.760344">
        <ele>63.838995</ele>
        <time>2022-05-17T02:03:44.868Z</time>
      </trkpt>
      <trkpt lat="50.948804" lon="5.760453">
        <ele>63.705546</ele>
        <time>2022-05-17T02:03:47.200Z</time>
      </trkpt>
      <trkpt lat="50.948846" lon="5.760379">
        <ele>63.653935</ele>
        <time>2022-05-17T02:03:48.037Z</time>
      </trkpt>
      <trkpt lat="50.948940" lon="5.760249">
        <ele>63.551390</ele>
        <time>2022-05-17T02:03:49.663Z</time>
      </trkpt>
      <trkpt lat="50.949069" lon="5.760298">
        <ele>63.483870</ele>
        <time>2022-05-17T02:03:51.675Z</time>
      </trkpt>
      <trkpt lat="50.949621" lon="5.760968">
        <ele>63.387983</ele>
        <time>2022-05-17T02:04:01.944Z</time>
      </trkpt>
      <trkpt lat="50.950611" lon="5.761858">
        <ele>63.192106</ele>
        <time>2022-05-17T02:04:18.280Z</time>
      </trkpt>
      <trkpt lat="50.950739" lon="5.761890">
        <ele>63.121053</ele>
        <time>2022-05-17T02:04:20.140Z</time>
      </trkpt>
      <trkpt lat="50.950788" lon="5.761860">
        <ele>63.092254</ele>
        <time>2022-05-17T02:04:20.807Z</time>
      </trkpt>
      <trkpt lat="50.951225" lon="5.762243">
        <ele>62.818527</ele>
        <time>2022-05-17T02:04:30.224Z</time>
      </trkpt>
      <trkpt lat="50.951370" lon="5.762370">
        <ele>62.727716</ele>
        <time>2022-05-17T02:04:33.241Z</time>
      </trkpt>
      <trkpt lat="50.951982" lon="5.762770">
        <ele>62.364793</ele>
        <time>2022-05-17T02:04:45.102Z</time>
      </trkpt>
      <trkpt lat="50.952226" lon="5.762877">
        <ele>62.217419</ele>
        <time>2022-05-17T02:04:49.609Z</time>
      </trkpt>
      <trkpt lat="50.952933" lon="5.762997">
        <ele>61.722481</ele>
        <time>2022-05-17T02:05:02.393Z</time>
      </trkpt>
      <trkpt lat="50.953458" lon="5.763008">
        <ele>61.357004</ele>
        <time>2022-05-17T02:05:11.797Z</time>
      </trkpt>
      <trkpt lat="50.954192" lon="5.762895">
        <ele>60.807671</ele>
        <time>2022-05-17T02:05:25.264Z</time>
      </trkpt>
      <trkpt lat="50.954393" lon="5.762864">
        <ele>60.635870</ele>
        <time>2022-05-17T02:05:28.955Z</time>
      </trkpt>
      <trkpt lat="50.954930" lon="5.762684">
        <ele>60.168958</ele>
        <time>2022-05-17T02:05:38.453Z</time>
      </trkpt>
      <trkpt lat="50.954936" lon="5.762826">
        <ele>60.092689</ele>
        <time>2022-05-17T02:05:40.206Z</time>
      </trkpt>
      <trkpt lat="50.955318" lon="5.762631">
        <ele>59.751324</ele>
        <time>2022-05-17T02:05:45.077Z</time>
      </trkpt>
      <trkpt lat="50.956131" lon="5.762098">
        <ele>59.185092</ele>
        <time>2022-05-17T02:05:55.839Z</time>
      </trkpt>
      <trkpt lat="50.956928" lon="5.761351">
        <ele>58.701050</ele>
        <time>2022-05-17T02:06:07.985Z</time>
      </trkpt>
      <trkpt lat="50.959011" lon="5.759314">
        <ele>58.514924</ele>
        <time>2022-05-17T02:06:46.518Z</time>
      </trkpt>
      <trkpt lat="50.959362" lon="5.759125">
        <ele>58.238859</ele>
        <time>2022-05-17T02:06:51.352Z</time>
      </trkpt>
      <trkpt lat="50.959667" lon="5.759226">
        <ele>58.006795</ele>
        <time>2022-05-17T02:06:55.166Z</time>
      </trkpt>
      <trkpt lat="50.959882" lon="5.759491">
        <ele>57.804061</ele>
        <time>2022-05-17T02:06:58.402Z</time>
      </trkpt>
      <trkpt lat="50.960910" lon="5.761768">
        <ele>56.554898</ele>
        <time>2022-05-17T02:07:19.173Z</time>
      </trkpt>
      <trkpt lat="50.961982" lon="5.764332">
        <ele>57.235355</ele>
        <time>2022-05-17T02:07:52.157Z</time>
      </trkpt>
      <trkpt lat="50.962085" lon="5.764580">
        <ele>57.378034</ele>
        <time>2022-05-17T02:07:56.264Z</time>
      </trkpt>
      <trkpt lat="50.962263" lon="5.764993">
        <ele>57.646228</ele>
        <time>2022-05-17T02:08:02.804Z</time>
      </trkpt>
      <trkpt lat="50.962389" lon="5.765284">
        <ele>57.881779</ele>
        <time>2022-05-17T02:08:07.286Z</time>
      </trkpt>
      <trkpt lat="50.962436" lon="5.765445">
        <ele>58.000146</ele>
        <time>2022-05-17T02:08:09.815Z</time>
      </trkpt>
      <trkpt lat="50.962420" lon="5.765612">
        <ele>58.112821</ele>
        <time>2022-05-17T02:08:11.994Z</time>
      </trkpt>
      <trkpt lat="50.961737" lon="5.766747">
        <ele>59.159914</ele>
        <time>2022-05-17T02:08:31.026Z</time>
      </trkpt>
      <trkpt lat="50.961725" lon="5.766982">
        <ele>59.317183</ele>
        <time>2022-05-17T02:08:33.683Z</time>
      </trkpt>
      <trkpt lat="50.961897" lon="5.767474">
        <ele>59.436019</ele>
        <time>2022-05-17T02:08:39.792Z</time>
      </trkpt>
      <trkpt lat="50.961924" lon="5.767549">
        <ele>59.432272</ele>
        <time>2022-05-17T02:08:40.581Z</time>
      </trkpt>
      <trkpt lat="50.961957" lon="5.767637">
        <ele>59.427829</ele>
        <time>2022-05-17T02:08:41.863Z</time>
      </trkpt>
      <trkpt lat="50.962176" lon="5.767424">
        <ele>59.410142</ele>
        <time>2022-05-17T02:08:47.191Z</time>
      </trkpt>
      <trkpt lat="50.963046" lon="5.766577">
        <ele>59.339857</ele>
        <time>2022-05-17T02:09:06.987Z</time>
      </trkpt>
      <trkpt lat="50.963176" lon="5.766468">
        <ele>59.329732</ele>
        <time>2022-05-17T02:09:09.604Z</time>
      </trkpt>
      <trkpt lat="50.963563" lon="5.766155">
        <ele>59.065924</ele>
        <time>2022-05-17T02:09:17.474Z</time>
      </trkpt>
      <trkpt lat="50.963997" lon="5.765779">
        <ele>58.747312</ele>
        <time>2022-05-17T02:09:26.478Z</time>
      </trkpt>
      <trkpt lat="50.965012" lon="5.765268">
        <ele>58.082914</ele>
        <time>2022-05-17T02:09:45.731Z</time>
      </trkpt>
      <trkpt lat="50.965754" lon="5.765089">
        <ele>57.697265</ele>
        <time>2022-05-17T02:09:58.857Z</time>
      </trkpt>
      <trkpt lat="50.966010" lon="5.765027">
        <ele>57.564199</ele>
        <time>2022-05-17T02:10:03.525Z</time>
      </trkpt>
      <trkpt lat="50.966261" lon="5.765001">
        <ele>57.434949</ele>
        <time>2022-05-17T02:10:08.344Z</time>
      </trkpt>
      <trkpt lat="50.966567" lon="5.764974">
        <ele>57.277470</ele>
        <time>2022-05-17T02:10:14.309Z</time>
      </trkpt>
      <trkpt lat="50.966951" lon="5.764953">
        <ele>57.488138</ele>
        <time>2022-05-17T02:10:22.467Z</time>
      </trkpt>
      <trkpt lat="50.967397" lon="5.764966">
        <ele>57.827814</ele>
        <time>2022-05-17T02:10:32.624Z</time>
      </trkpt>
      <trkpt lat="50.967548" lon="5.764945">
        <ele>57.943237</ele>
        <time>2022-05-17T02:10:36.104Z</time>
      </trkpt>
      <trkpt lat="50.967572" lon="5.764947">
        <ele>57.961538</ele>
        <time>2022-05-17T02:10:36.696Z</time>
      </trkpt>
      <trkpt lat="50.967647" lon="5.764932">
        <ele>58.019100</ele>
        <time>2022-05-17T02:10:38.534Z</time>
      </trkpt>
      <trkpt lat="50.967708" lon="5.764958">
        <ele>58.067194</ele>
        <time>2022-05-17T02:10:39.828Z</time>
      </trkpt>
      <trkpt lat="50.967762" lon="5.764913">
        <ele>58.113633</ele>
        <time>2022-05-17T02:10:40.984Z</time>
      </trkpt>
      <trkpt lat="50.967784" lon="5.764820">
        <ele>58.161273</ele>
        <time>2022-05-17T02:10:42.053Z</time>
      </trkpt>
      <trkpt lat="50.967838" lon="5.764814">
        <ele>58.202493</ele>
        <time>2022-05-17T02:10:43.388Z</time>
      </trkpt>
      <trkpt lat="50.968374" lon="5.764799">
        <ele>58.610708</ele>
        <time>2022-05-17T02:10:57.078Z</time>
      </trkpt>
      <trkpt lat="50.968791" lon="5.764787">
        <ele>58.980050</ele>
        <time>2022-05-17T02:11:07.719Z</time>
      </trkpt>
      <trkpt lat="50.968872" lon="5.764785">
        <ele>59.051897</ele>
        <time>2022-05-17T02:11:09.592Z</time>
      </trkpt>
      <trkpt lat="50.968950" lon="5.764782">
        <ele>59.121096</ele>
        <time>2022-05-17T02:11:11.462Z</time>
      </trkpt>
      <trkpt lat="50.969208" lon="5.764786">
        <ele>59.349927</ele>
        <time>2022-05-17T02:11:17.678Z</time>
      </trkpt>
      <trkpt lat="50.969412" lon="5.764871">
        <ele>59.536980</ele>
        <time>2022-05-17T02:11:22.583Z</time>
      </trkpt>
      <trkpt lat="50.969461" lon="5.764900">
        <ele>59.583358</ele>
        <time>2022-05-17T02:11:23.808Z</time>
      </trkpt>
      <trkpt lat="50.969533" lon="5.764944">
        <ele>59.651780</ele>
        <time>2022-05-17T02:11:25.686Z</time>
      </trkpt>
      <trkpt lat="50.970188" lon="5.765469">
        <ele>60.233842</ele>
        <time>2022-05-17T02:11:42.397Z</time>
      </trkpt>
      <trkpt lat="50.970397" lon="5.765753">
        <ele>60.298060</ele>
        <time>2022-05-17T02:11:48.361Z</time>
      </trkpt>
      <trkpt lat="50.970431" lon="5.765827">
        <ele>60.311527</ele>
        <time>2022-05-17T02:11:49.697Z</time>
      </trkpt>
      <trkpt lat="50.970480" lon="5.765926">
        <ele>60.330039</ele>
        <time>2022-05-17T02:11:51.447Z</time>
      </trkpt>
      <trkpt lat="50.970747" lon="5.766105">
        <ele>60.397700</ele>
        <time>2022-05-17T02:11:57.555Z</time>
      </trkpt>
      <trkpt lat="50.970960" lon="5.766248">
        <ele>60.451687</ele>
        <time>2022-05-17T02:12:02.178Z</time>
      </trkpt>
      <trkpt lat="50.971317" lon="5.766410">
        <ele>60.538368</ele>
        <time>2022-05-17T02:12:09.768Z</time>
      </trkpt>
      <trkpt lat="50.971622" lon="5.766480">
        <ele>60.610312</ele>
        <time>2022-05-17T02:12:16.227Z</time>
      </trkpt>
      <trkpt lat="50.971925" lon="5.766549">
        <ele>60.585098</ele>
        <time>2022-05-17T02:12:22.696Z</time>
      </trkpt>
      <trkpt lat="50.972453" lon="5.766655">
        <ele>60.480794</ele>
        <time>2022-05-17T02:12:33.496Z</time>
      </trkpt>
      <trkpt lat="50.972983" lon="5.766761">
        <ele>60.376101</ele>
        <time>2022-05-17T02:12:44.064Z</time>
      </trkpt>
      <trkpt lat="50.973244" lon="5.766816">
        <ele>60.324500</ele>
        <time>2022-05-17T02:12:49.042Z</time>
      </trkpt>
      <trkpt lat="50.973771" lon="5.766927">
        <ele>59.972515</ele>
        <time>2022-05-17T02:12:58.582Z</time>
      </trkpt>
      <trkpt lat="50.974004" lon="5.766974">
        <ele>59.724234</ele>
        <time>2022-05-17T02:13:02.741Z</time>
      </trkpt>
      <trkpt lat="50.974015" lon="5.766884">
        <ele>59.663210</ele>
        <time>2022-05-17T02:13:03.715Z</time>
      </trkpt>
      <trkpt lat="50.974508" lon="5.766989">
        <ele>59.137399</ele>
        <time>2022-05-17T02:13:09.563Z</time>
      </trkpt>
      <trkpt lat="50.974500" lon="5.767073">
        <ele>59.080852</ele>
        <time>2022-05-17T02:13:10.456Z</time>
      </trkpt>
      <trkpt lat="50.975352" lon="5.767214">
        <ele>58.219257</ele>
        <time>2022-05-17T02:13:24.924Z</time>
      </trkpt>
      <trkpt lat="50.975651" lon="5.767213">
        <ele>57.972582</ele>
        <time>2022-05-17T02:13:30.092Z</time>
      </trkpt>
      <trkpt lat="50.976246" lon="5.767213">
        <ele>57.481708</ele>
        <time>2022-05-17T02:13:40.552Z</time>
      </trkpt>
      <trkpt lat="50.977569" lon="5.767201">
        <ele>56.660287</ele>
        <time>2022-05-17T02:14:05.219Z</time>
      </trkpt>
      <trkpt lat="50.977866" lon="5.767257">
        <ele>56.546477</ele>
        <time>2022-05-17T02:14:11.101Z</time>
      </trkpt>
      <trkpt lat="50.978150" lon="5.767416">
        <ele>56.431889</ele>
        <time>2022-05-17T02:14:16.879Z</time>
      </trkpt>
      <trkpt lat="50.978303" lon="5.767501">
        <ele>56.370209</ele>
        <time>2022-05-17T02:14:19.961Z</time>
      </trkpt>
      <trkpt lat="50.978424" lon="5.767556">
        <ele>56.322317</ele>
        <time>2022-05-17T02:14:22.301Z</time>
      </trkpt>
      <trkpt lat="50.978546" lon="5.767608">
        <ele>56.274250</ele>
        <time>2022-05-17T02:14:24.041Z</time>
      </trkpt>
      <trkpt lat="50.979195" lon="5.767756">
        <ele>56.047137</ele>
        <time>2022-05-17T02:14:32.581Z</time>
      </trkpt>
      <trkpt lat="50.979509" lon="5.767885">
        <ele>55.938870</ele>
        <time>2022-05-17T02:14:36.697Z</time>
      </trkpt>
      <trkpt lat="50.981506" lon="5.769073">
        <ele>55.720223</ele>
        <time>2022-05-17T02:15:07.515Z</time>
      </trkpt>
      <trkpt lat="50.981656" lon="5.769304">
        <ele>55.741086</ele>
        <time>2022-05-17T02:15:11.147Z</time>
      </trkpt>
      <trkpt lat="50.981708" lon="5.769319">
        <ele>55.746363</ele>
        <time>2022-05-17T02:15:12.064Z</time>
      </trkpt>
      <trkpt lat="50.981770" lon="5.769333">
        <ele>55.752616</ele>
        <time>2022-05-17T02:15:13.138Z</time>
      </trkpt>
      <trkpt lat="50.981903" lon="5.769209">
        <ele>55.768016</ele>
        <time>2022-05-17T02:15:15.891Z</time>
      </trkpt>
      <trkpt lat="50.983359" lon="5.769684">
        <ele>55.542436</ele>
        <time>2022-05-17T02:15:38.989Z</time>
      </trkpt>
      <trkpt lat="50.984451" lon="5.770093">
        <ele>54.604487</ele>
        <time>2022-05-17T02:15:52.368Z</time>
      </trkpt>
      <trkpt lat="50.984601" lon="5.770061">
        <ele>54.400412</ele>
        <time>2022-05-17T02:15:54.068Z</time>
      </trkpt>
      <trkpt lat="50.984809" lon="5.770029">
        <ele>54.118634</ele>
        <time>2022-05-17T02:15:56.561Z</time>
      </trkpt>
      <trkpt lat="50.985193" lon="5.770014">
        <ele>53.600695</ele>
        <time>2022-05-17T02:16:00.950Z</time>
      </trkpt>
      <trkpt lat="50.985343" lon="5.770012">
        <ele>53.398429</ele>
        <time>2022-05-17T02:16:02.631Z</time>
      </trkpt>
      <trkpt lat="50.985934" lon="5.769945">
        <ele>52.650212</ele>
        <time>2022-05-17T02:16:09.596Z</time>
      </trkpt>
      <trkpt lat="50.986469" lon="5.769994">
        <ele>52.013828</ele>
        <time>2022-05-17T02:16:15.803Z</time>
      </trkpt>
      <trkpt lat="50.987128" lon="5.770140">
        <ele>51.223671</ele>
        <time>2022-05-17T02:16:24.074Z</time>
      </trkpt>
      <trkpt lat="50.987388" lon="5.770293">
        <ele>50.894410</ele>
        <time>2022-05-17T02:16:27.440Z</time>
      </trkpt>
      <trkpt lat="50.987703" lon="5.770372">
        <ele>50.597035</ele>
        <time>2022-05-17T02:16:31.263Z</time>
      </trkpt>
      <trkpt lat="50.988614" lon="5.770871">
        <ele>49.702258</ele>
        <time>2022-05-17T02:16:42.866Z</time>
      </trkpt>
      <trkpt lat="50.988757" lon="5.771016">
        <ele>49.544734</ele>
        <time>2022-05-17T02:16:44.975Z</time>
      </trkpt>
      <trkpt lat="50.988856" lon="5.771050">
        <ele>49.450684</ele>
        <time>2022-05-17T02:16:46.282Z</time>
      </trkpt>
      <trkpt lat="50.989005" lon="5.770991">
        <ele>49.308098</ele>
        <time>2022-05-17T02:16:48.252Z</time>
      </trkpt>
      <trkpt lat="50.989309" lon="5.771193">
        <ele>49.058161</ele>
        <time>2022-05-17T02:16:52.797Z</time>
      </trkpt>
      <trkpt lat="50.989627" lon="5.771393">
        <ele>48.822831</ele>
        <time>2022-05-17T02:16:57.341Z</time>
      </trkpt>
      <trkpt lat="50.989833" lon="5.771545">
        <ele>48.666546</ele>
        <time>2022-05-17T02:17:00.231Z</time>
      </trkpt>
      <trkpt lat="50.990139" lon="5.771723">
        <ele>48.442325</ele>
        <time>2022-05-17T02:17:04.348Z</time>
      </trkpt>
      <trkpt lat="50.990520" lon="5.771808">
        <ele>48.177597</ele>
        <time>2022-05-17T02:17:09.315Z</time>
      </trkpt>
      <trkpt lat="50.990599" lon="5.771963">
        <ele>48.091217</ele>
        <time>2022-05-17T02:17:10.921Z</time>
      </trkpt>
      <trkpt lat="50.990667" lon="5.771931">
        <ele>48.042419</ele>
        <time>2022-05-17T02:17:11.801Z</time>
      </trkpt>
      <trkpt lat="50.990700" lon="5.771830">
        <ele>47.993133</ele>
        <time>2022-05-17T02:17:12.727Z</time>
      </trkpt>
      <trkpt lat="50.990733" lon="5.771830">
        <ele>47.969240</ele>
        <time>2022-05-17T02:17:13.156Z</time>
      </trkpt>
      <trkpt lat="50.990985" lon="5.771846">
        <ele>47.776055</ele>
        <time>2022-05-17T02:17:16.289Z</time>
      </trkpt>
      <trkpt lat="50.991307" lon="5.771975">
        <ele>47.521683</ele>
        <time>2022-05-17T02:17:20.356Z</time>
      </trkpt>
      <trkpt lat="50.991670" lon="5.772150">
        <ele>47.231107</ele>
        <time>2022-05-17T02:17:24.953Z</time>
      </trkpt>
      <trkpt lat="50.991726" lon="5.772172">
        <ele>47.186920</ele>
        <time>2022-05-17T02:17:25.640Z</time>
      </trkpt>
      <trkpt lat="50.992154" lon="5.772282">
        <ele>46.854812</ele>
        <time>2022-05-17T02:17:31.091Z</time>
      </trkpt>
      <trkpt lat="50.992218" lon="5.772293">
        <ele>46.805502</ele>
        <time>2022-05-17T02:17:31.950Z</time>
      </trkpt>
      <trkpt lat="50.992793" lon="5.772370">
        <ele>46.585187</ele>
        <time>2022-05-17T02:17:39.813Z</time>
      </trkpt>
      <trkpt lat="50.993357" lon="5.772365">
        <ele>46.552794</ele>
        <time>2022-05-17T02:17:48.091Z</time>
      </trkpt>
      <trkpt lat="50.993783" lon="5.772347">
        <ele>46.528319</ele>
        <time>2022-05-17T02:17:54.496Z</time>
      </trkpt>
      <trkpt lat="50.993870" lon="5.772340">
        <ele>46.523316</ele>
        <time>2022-05-17T02:17:55.720Z</time>
      </trkpt>
      <trkpt lat="50.993894" lon="5.772339">
        <ele>46.521937</ele>
        <time>2022-05-17T02:17:56.103Z</time>
      </trkpt>
      <trkpt lat="50.994460" lon="5.772320">
        <ele>46.471778</ele>
        <time>2022-05-17T02:18:05.328Z</time>
      </trkpt>
      <trkpt lat="50.995713" lon="5.772384">
        <ele>46.277995</ele>
        <time>2022-05-17T02:18:23.538Z</time>
      </trkpt>
      <trkpt lat="50.996944" lon="5.772690">
        <ele>45.894777</ele>
        <time>2022-05-17T02:18:39.659Z</time>
      </trkpt>
      <trkpt lat="50.998258" lon="5.773159">
        <ele>45.788357</ele>
        <time>2022-05-17T02:18:58.539Z</time>
      </trkpt>
      <trkpt lat="50.999818" lon="5.773719">
        <ele>46.854447</ele>
        <time>2022-05-17T02:19:27.164Z</time>
      </trkpt>
      <trkpt lat="51.001920" lon="5.774880">
        <ele>49.952906</ele>
        <time>2022-05-17T02:20:14.146Z</time>
      </trkpt>
      <trkpt lat="51.002555" lon="5.775308">
        <ele>50.885664</ele>
        <time>2022-05-17T02:20:28.010Z</time>
      </trkpt>
      <trkpt lat="51.003036" lon="5.775770">
        <ele>51.556482</ele>
        <time>2022-05-17T02:20:38.759Z</time>
      </trkpt>
      <trkpt lat="51.003576" lon="5.776516">
        <ele>51.950278</ele>
        <time>2022-05-17T02:20:51.490Z</time>
      </trkpt>
      <trkpt lat="51.003560" lon="5.776585">
        <ele>51.975746</ele>
        <time>2022-05-17T02:20:52.315Z</time>
      </trkpt>
      <trkpt lat="51.003874" lon="5.777078">
        <ele>52.218678</ele>
        <time>2022-05-17T02:21:02.180Z</time>
      </trkpt>
      <trkpt lat="51.004268" lon="5.777468">
        <ele>52.474146</ele>
        <time>2022-05-17T02:21:12.201Z</time>
      </trkpt>
      <trkpt lat="51.004770" lon="5.777670">
        <ele>52.337171</ele>
        <time>2022-05-17T02:21:22.639Z</time>
      </trkpt>
      <trkpt lat="51.005348" lon="5.778088">
        <ele>52.148406</ele>
        <time>2022-05-17T02:21:34.480Z</time>
      </trkpt>
      <trkpt lat="51.006620" lon="5.779429">
        <ele>51.721361</ele>
        <time>2022-05-17T02:22:02.807Z</time>
      </trkpt>
      <trkpt lat="51.006771" lon="5.779687">
        <ele>51.662333</ele>
        <time>2022-05-17T02:22:07.023Z</time>
      </trkpt>
      <trkpt lat="51.006860" lon="5.780133">
        <ele>51.583949</ele>
        <time>2022-05-17T02:22:12.727Z</time>
      </trkpt>
      <trkpt lat="51.006370" lon="5.780577">
        <ele>51.498217</ele>
        <time>2022-05-17T02:22:24.221Z</time>
      </trkpt>
      <trkpt lat="51.006243" lon="5.780860">
        <ele>51.539110</ele>
        <time>2022-05-17T02:22:28.746Z</time>
      </trkpt>
      <trkpt lat="51.005681" lon="5.785977">
        <ele>52.268760</ele>
        <time>2022-05-17T02:23:37.612Z</time>
      </trkpt>
      <trkpt lat="51.005248" lon="5.788078">
        <ele>52.927910</ele>
        <time>2022-05-17T02:24:08.577Z</time>
      </trkpt>
      <trkpt lat="51.004990" lon="5.789330">
        <ele>53.116231</ele>
        <time>2022-05-17T02:24:27.400Z</time>
      </trkpt>
      <trkpt lat="51.004606" lon="5.790959">
        <ele>53.141481</ele>
        <time>2022-05-17T02:24:50.022Z</time>
      </trkpt>
      <trkpt lat="51.007073" lon="5.791179">
        <ele>51.091829</ele>
        <time>2022-05-17T02:25:20.580Z</time>
      </trkpt>
      <trkpt lat="51.010260" lon="5.791442">
        <ele>47.407548</ele>
        <time>2022-05-17T02:25:58.464Z</time>
      </trkpt>
      <trkpt lat="51.014740" lon="5.791776">
        <ele>44.500168</ele>
        <time>2022-05-17T02:26:55.275Z</time>
      </trkpt>
      <trkpt lat="51.018550" lon="5.792092">
        <ele>45.799127</ele>
        <time>2022-05-17T02:28:00.666Z</time>
      </trkpt>
      <trkpt lat="51.018709" lon="5.792106">
        <ele>45.848228</ele>
        <time>2022-05-17T02:28:03.340Z</time>
      </trkpt>
      <trkpt lat="51.018769" lon="5.791226">
        <ele>46.002422</ele>
        <time>2022-05-17T02:28:14.027Z</time>
      </trkpt>
      <trkpt lat="51.018957" lon="5.788834">
        <ele>45.786218</ele>
        <time>2022-05-17T02:28:43.527Z</time>
      </trkpt>
      <trkpt lat="51.019040" lon="5.788431">
        <ele>45.741604</ele>
        <time>2022-05-17T02:28:49.194Z</time>
      </trkpt>
      <trkpt lat="51.019191" lon="5.787853">
        <ele>45.574415</ele>
        <time>2022-05-17T02:28:57.141Z</time>
      </trkpt>
      <trkpt lat="51.019449" lon="5.786842">
        <ele>45.282965</ele>
        <time>2022-05-17T02:29:10.076Z</time>
      </trkpt>
      <trkpt lat="51.019508" lon="5.786592">
        <ele>45.211636</ele>
        <time>2022-05-17T02:29:13.348Z</time>
      </trkpt>
      <trkpt lat="51.020500" lon="5.787370">
        <ele>44.345332</ele>
        <time>2022-05-17T02:29:32.966Z</time>
      </trkpt>
      <trkpt lat="51.020696" lon="5.787374">
        <ele>44.127798</ele>
        <time>2022-05-17T02:29:36.234Z</time>
      </trkpt>
      <trkpt lat="51.020856" lon="5.787222">
        <ele>43.920945</ele>
        <time>2022-05-17T02:29:39.328Z</time>
      </trkpt>
      <trkpt lat="51.022127" lon="5.785744">
        <ele>42.383250</ele>
        <time>2022-05-17T02:30:06.093Z</time>
      </trkpt>
      <trkpt lat="51.022202" lon="5.785647">
        <ele>42.303476</ele>
        <time>2022-05-17T02:30:07.751Z</time>
      </trkpt>
      <trkpt lat="51.022662" lon="5.785285">
        <ele>41.879979</ele>
        <time>2022-05-17T02:30:16.807Z</time>
      </trkpt>
      <trkpt lat="51.025180" lon="5.784180">
        <ele>40.811771</ele>
        <time>2022-05-17T02:31:06.932Z</time>
      </trkpt>
      <trkpt lat="51.025500" lon="5.783960">
        <ele>40.655723</ele>
        <time>2022-05-17T02:31:13.601Z</time>
      </trkpt>
      <trkpt lat="51.025672" lon="5.783721">
        <ele>40.553478</ele>
        <time>2022-05-17T02:31:17.874Z</time>
      </trkpt>
      <trkpt lat="51.026298" lon="5.785691">
        <ele>39.922977</ele>
        <time>2022-05-17T02:31:43.568Z</time>
      </trkpt>
      <trkpt lat="51.026910" lon="5.789114">
        <ele>38.728543</ele>
        <time>2022-05-17T02:32:25.292Z</time>
      </trkpt>
      <trkpt lat="51.026969" lon="5.789204">
        <ele>38.677536</ele>
        <time>2022-05-17T02:32:26.781Z</time>
      </trkpt>
      <trkpt lat="51.027004" lon="5.789640">
        <ele>38.505078</ele>
        <time>2022-05-17T02:32:30.460Z</time>
      </trkpt>
      <trkpt lat="51.027098" lon="5.789852">
        <ele>38.403306</ele>
        <time>2022-05-17T02:32:32.635Z</time>
      </trkpt>
      <trkpt lat="51.027152" lon="5.789887">
        <ele>38.366927</ele>
        <time>2022-05-17T02:32:33.395Z</time>
      </trkpt>
      <trkpt lat="51.027220" lon="5.789896">
        <ele>38.324360</ele>
        <time>2022-05-17T02:32:34.269Z</time>
      </trkpt>
      <trkpt lat="51.028734" lon="5.788095">
        <ele>36.157489</ele>
        <time>2022-05-17T02:33:06.425Z</time>
      </trkpt>
      <trkpt lat="51.028940" lon="5.787850">
        <ele>35.821018</ele>
        <time>2022-05-17T02:33:10.537Z</time>
      </trkpt>
      <trkpt lat="51.029770" lon="5.786960">
        <ele>34.454266</ele>
        <time>2022-05-17T02:33:26.909Z</time>
      </trkpt>
      <trkpt lat="51.032120" lon="5.785340">
        <ele>31.631160</ele>
        <time>2022-05-17T02:34:10.680Z</time>
      </trkpt>
      <trkpt lat="51.033054" lon="5.784912">
        <ele>31.486809</ele>
        <time>2022-05-17T02:34:28.766Z</time>
      </trkpt>
      <trkpt lat="51.034820" lon="5.784650">
        <ele>32.234758</ele>
        <time>2022-05-17T02:35:09.424Z</time>
      </trkpt>
      <trkpt lat="51.036018" lon="5.784590">
        <ele>32.900299</ele>
        <time>2022-05-17T02:35:38.522Z</time>
      </trkpt>
      <trkpt lat="51.036137" lon="5.784583">
        <ele>32.924728</ele>
        <time>2022-05-17T02:35:41.273Z</time>
      </trkpt>
      <trkpt lat="51.036771" lon="5.784571">
        <ele>33.054797</ele>
        <time>2022-05-17T02:35:54.631Z</time>
      </trkpt>
      <trkpt lat="51.039040" lon="5.784900">
        <ele>32.186458</ele>
        <time>2022-05-17T02:36:35.730Z</time>
      </trkpt>
      <trkpt lat="51.039814" lon="5.784939">
        <ele>32.421251</ele>
        <time>2022-05-17T02:36:51.585Z</time>
      </trkpt>
      <trkpt lat="51.040295" lon="5.784919">
        <ele>32.620272</ele>
        <time>2022-05-17T02:37:02.591Z</time>
      </trkpt>
      <trkpt lat="51.040475" lon="5.784915">
        <ele>32.694731</ele>
        <time>2022-05-17T02:37:06.887Z</time>
      </trkpt>
      <trkpt lat="51.041192" lon="5.784910">
        <ele>32.946668</ele>
        <time>2022-05-17T02:37:24.209Z</time>
      </trkpt>
      <trkpt lat="51.040987" lon="5.786349">
        <ele>33.175563</ele>
        <time>2022-05-17T02:37:39.655Z</time>
      </trkpt>
      <trkpt lat="51.040960" lon="5.786685">
        <ele>33.228112</ele>
        <time>2022-05-17T02:37:42.613Z</time>
      </trkpt>
      <trkpt lat="51.040934" lon="5.786839">
        <ele>33.252849</ele>
        <time>2022-05-17T02:37:44.027Z</time>
      </trkpt>
      <trkpt lat="51.041035" lon="5.786912">
        <ele>33.280221</ele>
        <time>2022-05-17T02:37:45.528Z</time>
      </trkpt>
      <trkpt lat="51.041251" lon="5.786996">
        <ele>33.286876</ele>
        <time>2022-05-17T02:37:48.525Z</time>
      </trkpt>
      <trkpt lat="51.041345" lon="5.787001">
        <ele>33.204794</ele>
        <time>2022-05-17T02:37:49.761Z</time>
      </trkpt>
      <trkpt lat="51.042095" lon="5.786780">
        <ele>32.539111</ele>
        <time>2022-05-17T02:37:59.217Z</time>
      </trkpt>
      <trkpt lat="51.042593" lon="5.786819">
        <ele>32.103968</ele>
        <time>2022-05-17T02:38:05.149Z</time>
      </trkpt>
      <trkpt lat="51.043051" lon="5.786997">
        <ele>31.729909</ele>
        <time>2022-05-17T02:38:10.879Z</time>
      </trkpt>
      <trkpt lat="51.043257" lon="5.787145">
        <ele>31.651208</ele>
        <time>2022-05-17T02:38:13.748Z</time>
      </trkpt>
      <trkpt lat="51.043579" lon="5.787433">
        <ele>31.522587</ele>
        <time>2022-05-17T02:38:18.582Z</time>
      </trkpt>
      <trkpt lat="51.043916" lon="5.787856">
        <ele>31.373118</ele>
        <time>2022-05-17T02:38:24.399Z</time>
      </trkpt>
      <trkpt lat="51.044000" lon="5.787998">
        <ele>31.330438</ele>
        <time>2022-05-17T02:38:26.115Z</time>
      </trkpt>
      <trkpt lat="51.044096" lon="5.788202">
        <ele>31.274658</ele>
        <time>2022-05-17T02:38:28.390Z</time>
      </trkpt>
      <trkpt lat="51.044984" lon="5.790255">
        <ele>31.639230</ele>
        <time>2022-05-17T02:38:53.299Z</time>
      </trkpt>
      <trkpt lat="51.045262" lon="5.790893">
        <ele>31.856547</ele>
        <time>2022-05-17T02:39:02.212Z</time>
      </trkpt>
      <trkpt lat="51.045435" lon="5.791326">
        <ele>31.999365</ele>
        <time>2022-05-17T02:39:08.045Z</time>
      </trkpt>
      <trkpt lat="51.045453" lon="5.791389">
        <ele>32.018516</ele>
        <time>2022-05-17T02:39:08.826Z</time>
      </trkpt>
      <trkpt lat="51.045581" lon="5.792037">
        <ele>32.206492</ele>
        <time>2022-05-17T02:39:16.292Z</time>
      </trkpt>
      <trkpt lat="51.045744" lon="5.793071">
        <ele>32.501507</ele>
        <time>2022-05-17T02:39:27.644Z</time>
      </trkpt>
      <trkpt lat="51.046249" lon="5.796282">
        <ele>32.625021</ele>
        <time>2022-05-17T02:39:58.016Z</time>
      </trkpt>
      <trkpt lat="51.046428" lon="5.797424">
        <ele>32.576784</ele>
        <time>2022-05-17T02:40:08.735Z</time>
      </trkpt>
      <trkpt lat="51.046456" lon="5.797608">
        <ele>32.568807</ele>
        <time>2022-05-17T02:40:10.529Z</time>
      </trkpt>
      <trkpt lat="51.046470" lon="5.797700">
        <ele>32.564819</ele>
        <time>2022-05-17T02:40:11.424Z</time>
      </trkpt>
      <trkpt lat="51.046483" lon="5.797783">
        <ele>32.561215</ele>
        <time>2022-05-17T02:40:12.233Z</time>
      </trkpt>
      <trkpt lat="51.046974" lon="5.800735">
        <ele>32.403597</ele>
        <time>2022-05-17T02:40:39.908Z</time>
      </trkpt>
      <trkpt lat="51.047177" lon="5.801378">
        <ele>32.358336</ele>
        <time>2022-05-17T02:40:46.375Z</time>
      </trkpt>
      <trkpt lat="51.047291" lon="5.801730">
        <ele>32.333429</ele>
        <time>2022-05-17T02:40:49.937Z</time>
      </trkpt>
      <trkpt lat="51.047540" lon="5.802370">
        <ele>32.332120</ele>
        <time>2022-05-17T02:40:57.108Z</time>
      </trkpt>
      <trkpt lat="51.047559" lon="5.802383">
        <ele>32.333822</ele>
        <time>2022-05-17T02:40:57.415Z</time>
      </trkpt>
      <trkpt lat="51.047540" lon="5.802370">
        <ele>32.335524</ele>
        <time>2022-05-17T02:40:57.715Z</time>
      </trkpt>
      <trkpt lat="51.047291" lon="5.801730">
        <ele>32.374468</ele>
        <time>2022-05-17T02:41:04.563Z</time>
      </trkpt>
      <trkpt lat="51.047177" lon="5.801378">
        <ele>32.394957</ele>
        <time>2022-05-17T02:41:08.415Z</time>
      </trkpt>
      <trkpt lat="51.046974" lon="5.800735">
        <ele>32.432187</ele>
        <time>2022-05-17T02:41:15.461Z</time>
      </trkpt>
      <trkpt lat="51.046779" lon="5.799562">
        <ele>32.361251</ele>
        <time>2022-05-17T02:41:27.411Z</time>
      </trkpt>
      <trkpt lat="51.046974" lon="5.800735">
        <ele>32.188143</ele>
        <time>2022-05-17T02:41:38.110Z</time>
      </trkpt>
      <trkpt lat="51.047177" lon="5.801378">
        <ele>32.085486</ele>
        <time>2022-05-17T02:41:44.106Z</time>
      </trkpt>
      <trkpt lat="51.047291" lon="5.801730">
        <ele>31.984807</ele>
        <time>2022-05-17T02:41:47.315Z</time>
      </trkpt>
      <trkpt lat="51.047540" lon="5.802370">
        <ele>31.663723</ele>
        <time>2022-05-17T02:41:53.481Z</time>
      </trkpt>
      <trkpt lat="51.047720" lon="5.802500">
        <ele>31.529577</ele>
        <time>2022-05-17T02:41:55.980Z</time>
      </trkpt>
      <trkpt lat="51.053339" lon="5.805411">
        <ele>27.749394</ele>
        <time>2022-05-17T02:43:11.697Z</time>
      </trkpt>
      <trkpt lat="51.054337" lon="5.805942">
        <ele>27.831709</ele>
        <time>2022-05-17T02:43:26.818Z</time>
      </trkpt>
      <trkpt lat="51.054398" lon="5.805859">
        <ele>27.882656</ele>
        <time>2022-05-17T02:43:28.022Z</time>
      </trkpt>
      <trkpt lat="51.054479" lon="5.805859">
        <ele>27.934067</ele>
        <time>2022-05-17T02:43:29.398Z</time>
      </trkpt>
      <trkpt lat="51.055748" lon="5.806534">
        <ele>28.784831</ele>
        <time>2022-05-17T02:43:55.098Z</time>
      </trkpt>
      <trkpt lat="51.056721" lon="5.806848">
        <ele>29.421258</ele>
        <time>2022-05-17T02:44:14.250Z</time>
      </trkpt>
      <trkpt lat="51.057028" lon="5.806737">
        <ele>29.623073</ele>
        <time>2022-05-17T02:44:19.192Z</time>
      </trkpt>
      <trkpt lat="51.057293" lon="5.806583">
        <ele>29.774901</ele>
        <time>2022-05-17T02:44:23.028Z</time>
      </trkpt>
      <trkpt lat="51.057447" lon="5.806505">
        <ele>29.709357</ele>
        <time>2022-05-17T02:44:25.072Z</time>
      </trkpt>
      <trkpt lat="51.058948" lon="5.805741">
        <ele>29.070227</ele>
        <time>2022-05-17T02:44:45.701Z</time>
      </trkpt>
      <trkpt lat="51.060172" lon="5.805121">
        <ele>29.269573</ele>
        <time>2022-05-17T02:45:12.568Z</time>
      </trkpt>
      <trkpt lat="51.061677" lon="5.804789">
        <ele>29.475197</ele>
        <time>2022-05-17T02:45:45.732Z</time>
      </trkpt>
      <trkpt lat="51.062776" lon="5.804228">
        <ele>29.444443</ele>
        <time>2022-05-17T02:46:08.169Z</time>
      </trkpt>
      <trkpt lat="51.063348" lon="5.804977">
        <ele>29.158435</ele>
        <time>2022-05-17T02:46:22.118Z</time>
      </trkpt>
      <trkpt lat="51.063616" lon="5.805607">
        <ele>28.973845</ele>
        <time>2022-05-17T02:46:30.986Z</time>
      </trkpt>
      <trkpt lat="51.064062" lon="5.806760">
        <ele>28.728599</ele>
        <time>2022-05-17T02:46:46.831Z</time>
      </trkpt>
      <trkpt lat="51.064310" lon="5.807400">
        <ele>28.611895</ele>
        <time>2022-05-17T02:46:55.664Z</time>
      </trkpt>
      <trkpt lat="51.065189" lon="5.808313">
        <ele>28.433224</ele>
        <time>2022-05-17T02:47:17.110Z</time>
      </trkpt>
      <trkpt lat="51.065254" lon="5.808402">
        <ele>28.433496</ele>
        <time>2022-05-17T02:47:18.907Z</time>
      </trkpt>
      <trkpt lat="51.065270" lon="5.808593">
        <ele>28.433881</ele>
        <time>2022-05-17T02:47:21.426Z</time>
      </trkpt>
      <trkpt lat="51.065275" lon="5.808780">
        <ele>28.434255</ele>
        <time>2022-05-17T02:47:23.348Z</time>
      </trkpt>
      <trkpt lat="51.065641" lon="5.808885">
        <ele>28.435437</ele>
        <time>2022-05-17T02:47:29.116Z</time>
      </trkpt>
      <trkpt lat="51.066681" lon="5.809729">
        <ele>28.281075</ele>
        <time>2022-05-17T02:47:45.735Z</time>
      </trkpt>
      <trkpt lat="51.067038" lon="5.809884">
        <ele>28.131219</ele>
        <time>2022-05-17T02:47:50.670Z</time>
      </trkpt>
      <trkpt lat="51.067828" lon="5.810028">
        <ele>27.809206</ele>
        <time>2022-05-17T02:48:01.086Z</time>
      </trkpt>
      <trkpt lat="51.068316" lon="5.809946">
        <ele>27.695369</ele>
        <time>2022-05-17T02:48:07.633Z</time>
      </trkpt>
      <trkpt lat="51.069236" lon="5.809296">
        <ele>27.637074</ele>
        <time>2022-05-17T02:48:22.381Z</time>
      </trkpt>
      <trkpt lat="51.069973" lon="5.808895">
        <ele>27.597703</ele>
        <time>2022-05-17T02:48:34.748Z</time>
      </trkpt>
      <trkpt lat="51.072979" lon="5.808083">
        <ele>27.286879</ele>
        <time>2022-05-17T02:49:18.692Z</time>
      </trkpt>
      <trkpt lat="51.073419" lon="5.808036">
        <ele>27.188239</ele>
        <time>2022-05-17T02:49:24.664Z</time>
      </trkpt>
      <trkpt lat="51.073904" lon="5.808098">
        <ele>27.018608</ele>
        <time>2022-05-17T02:49:31.181Z</time>
      </trkpt>
      <trkpt lat="51.074472" lon="5.808328">
        <ele>26.814277</ele>
        <time>2022-05-17T02:49:39.181Z</time>
      </trkpt>
      <trkpt lat="51.074843" lon="5.808598">
        <ele>26.672054</ele>
        <time>2022-05-17T02:49:44.798Z</time>
      </trkpt>
      <trkpt lat="51.075196" lon="5.808931">
        <ele>26.592447</ele>
        <time>2022-05-17T02:49:52.710Z</time>
      </trkpt>
      <trkpt lat="51.076145" lon="5.810239">
        <ele>26.522844</ele>
        <time>2022-05-17T02:50:17.733Z</time>
      </trkpt>
      <trkpt lat="51.076510" lon="5.810611">
        <ele>26.517853</ele>
        <time>2022-05-17T02:50:26.783Z</time>
      </trkpt>
      <trkpt lat="51.076795" lon="5.810809">
        <ele>26.556166</ele>
        <time>2022-05-17T02:50:33.255Z</time>
      </trkpt>
      <trkpt lat="51.078859" lon="5.811937">
        <ele>26.847926</ele>
        <time>2022-05-17T02:51:18.377Z</time>
      </trkpt>
      <trkpt lat="51.079121" lon="5.811988">
        <ele>26.887987</ele>
        <time>2022-05-17T02:51:23.826Z</time>
      </trkpt>
      <trkpt lat="51.079376" lon="5.812037">
        <ele>26.926971</ele>
        <time>2022-05-17T02:51:29.099Z</time>
      </trkpt>
      <trkpt lat="51.080146" lon="5.811951">
        <ele>27.158009</ele>
        <time>2022-05-17T02:51:45.491Z</time>
      </trkpt>
      <trkpt lat="51.080512" lon="5.811998">
        <ele>27.355383</ele>
        <time>2022-05-17T02:51:53.677Z</time>
      </trkpt>
      <trkpt lat="51.080942" lon="5.812208">
        <ele>27.597154</ele>
        <time>2022-05-17T02:52:04.283Z</time>
      </trkpt>
      <trkpt lat="51.081521" lon="5.812679">
        <ele>27.946667</ele>
        <time>2022-05-17T02:52:19.014Z</time>
      </trkpt>
      <trkpt lat="51.081608" lon="5.812857">
        <ele>27.972287</ele>
        <time>2022-05-17T02:52:22.147Z</time>
      </trkpt>
      <trkpt lat="51.081617" lon="5.813103">
        <ele>27.981316</ele>
        <time>2022-05-17T02:52:25.429Z</time>
      </trkpt>
      <trkpt lat="51.081693" lon="5.813146">
        <ele>27.986020</ele>
        <time>2022-05-17T02:52:27.244Z</time>
      </trkpt>
      <trkpt lat="51.081829" lon="5.813265">
        <ele>27.995071</ele>
        <time>2022-05-17T02:52:30.519Z</time>
      </trkpt>
      <trkpt lat="51.082042" lon="5.813074">
        <ele>28.009329</ele>
        <time>2022-05-17T02:52:35.743Z</time>
      </trkpt>
      <trkpt lat="51.081955" lon="5.812429">
        <ele>28.033499</ele>
        <time>2022-05-17T02:52:42.114Z</time>
      </trkpt>
      <trkpt lat="51.082324" lon="5.810869">
        <ele>27.893333</ele>
        <time>2022-05-17T02:52:56.626Z</time>
      </trkpt>
      <trkpt lat="51.082558" lon="5.810234">
        <ele>27.689675</ele>
        <time>2022-05-17T02:53:02.419Z</time>
      </trkpt>
      <trkpt lat="51.084199" lon="5.807614">
        <ele>27.009687</ele>
        <time>2022-05-17T02:53:34.143Z</time>
      </trkpt>
      <trkpt lat="51.085059" lon="5.806017">
        <ele>27.194652</ele>
        <time>2022-05-17T02:53:54.893Z</time>
      </trkpt>
      <trkpt lat="51.085510" lon="5.805312">
        <ele>27.377001</ele>
        <time>2022-05-17T02:54:05.333Z</time>
      </trkpt>
      <trkpt lat="51.086972" lon="5.803765">
        <ele>27.865049</ele>
        <time>2022-05-17T02:54:33.309Z</time>
      </trkpt>
      <trkpt lat="51.087860" lon="5.802837">
        <ele>28.169549</ele>
        <time>2022-05-17T02:54:49.946Z</time>
      </trkpt>
      <trkpt lat="51.089502" lon="5.801148">
        <ele>28.780684</ele>
        <time>2022-05-17T02:55:21.793Z</time>
      </trkpt>
      <trkpt lat="51.090002" lon="5.800749">
        <ele>28.969249</ele>
        <time>2022-05-17T02:55:30.956Z</time>
      </trkpt>
      <trkpt lat="51.090252" lon="5.800672">
        <ele>29.055099</ele>
        <time>2022-05-17T02:55:35.127Z</time>
      </trkpt>
      <trkpt lat="51.091296" lon="5.800651">
        <ele>28.848762</ele>
        <time>2022-05-17T02:55:51.424Z</time>
      </trkpt>
      <trkpt lat="51.091607" lon="5.800471">
        <ele>28.772250</ele>
        <time>2022-05-17T02:55:55.835Z</time>
      </trkpt>
      <trkpt lat="51.091832" lon="5.800160">
        <ele>28.703358</ele>
        <time>2022-05-17T02:55:59.542Z</time>
      </trkpt>
      <trkpt lat="51.092115" lon="5.799672">
        <ele>28.498767</ele>
        <time>2022-05-17T02:56:04.490Z</time>
      </trkpt>
      <trkpt lat="51.093030" lon="5.798139">
        <ele>27.566568</ele>
        <time>2022-05-17T02:56:21.174Z</time>
      </trkpt>
      <trkpt lat="51.093283" lon="5.797711">
        <ele>27.489699</ele>
        <time>2022-05-17T02:56:26.134Z</time>
      </trkpt>
      <trkpt lat="51.093562" lon="5.797129">
        <ele>27.818860</ele>
        <time>2022-05-17T02:56:35.901Z</time>
      </trkpt>
      <trkpt lat="51.093677" lon="5.797120">
        <ele>27.901279</ele>
        <time>2022-05-17T02:56:38.657Z</time>
      </trkpt>
      <trkpt lat="51.093698" lon="5.797035">
        <ele>27.942343</ele>
        <time>2022-05-17T02:56:40.019Z</time>
      </trkpt>
      <trkpt lat="51.093801" lon="5.796561">
        <ele>28.167833</ele>
        <time>2022-05-17T02:56:47.866Z</time>
      </trkpt>
      <trkpt lat="51.093815" lon="5.796490">
        <ele>28.201289</ele>
        <time>2022-05-17T02:56:49.071Z</time>
      </trkpt>
      <trkpt lat="51.093637" lon="5.796374">
        <ele>28.338964</ele>
        <time>2022-05-17T02:56:53.917Z</time>
      </trkpt>
      <trkpt lat="51.094072" lon="5.794536">
        <ele>29.237695</ele>
        <time>2022-05-17T02:57:24.818Z</time>
      </trkpt>
      <trkpt lat="51.094707" lon="5.794720">
        <ele>29.713220</ele>
        <time>2022-05-17T02:57:39.289Z</time>
      </trkpt>
      <trkpt lat="51.094813" lon="5.794756">
        <ele>29.793073</ele>
        <time>2022-05-17T02:57:41.676Z</time>
      </trkpt>
      <trkpt lat="51.095188" lon="5.794881">
        <ele>30.006144</ele>
        <time>2022-05-17T02:57:49.765Z</time>
      </trkpt>
      <trkpt lat="51.095672" lon="5.795026">
        <ele>29.982563</ele>
        <time>2022-05-17T02:57:59.574Z</time>
      </trkpt>
      <trkpt lat="51.095750" lon="5.795051">
        <ele>29.978753</ele>
        <time>2022-05-17T02:58:01.172Z</time>
      </trkpt>
      <trkpt lat="51.096271" lon="5.795212">
        <ele>29.953340</ele>
        <time>2022-05-17T02:58:11.514Z</time>
      </trkpt>
      <trkpt lat="51.096250" lon="5.795414">
        <ele>29.947183</ele>
        <time>2022-05-17T02:58:13.962Z</time>
      </trkpt>
      <trkpt lat="51.096322" lon="5.795561">
        <ele>29.941577</ele>
        <time>2022-05-17T02:58:16.296Z</time>
      </trkpt>
      <trkpt lat="51.096412" lon="5.795578">
        <ele>29.937238</ele>
        <time>2022-05-17T02:58:18.080Z</time>
      </trkpt>
      <trkpt lat="51.096685" lon="5.795130">
        <ele>29.908125</ele>
        <time>2022-05-17T02:58:26.101Z</time>
      </trkpt>
      <trkpt lat="51.096782" lon="5.794955">
        <ele>29.888541</ele>
        <time>2022-05-17T02:58:29.021Z</time>
      </trkpt>
      <trkpt lat="51.096892" lon="5.794568">
        <ele>29.852901</ele>
        <time>2022-05-17T02:58:34.481Z</time>
      </trkpt>
      <trkpt lat="51.096912" lon="5.794564">
        <ele>29.850208</ele>
        <time>2022-05-17T02:58:34.858Z</time>
      </trkpt>
      <trkpt lat="51.096951" lon="5.794480">
        <ele>29.841443</ele>
        <time>2022-05-17T02:58:36.158Z</time>
      </trkpt>
      <trkpt lat="51.097004" lon="5.794392">
        <ele>29.831213</ele>
        <time>2022-05-17T02:58:37.678Z</time>
      </trkpt>
      <trkpt lat="51.097117" lon="5.794069">
        <ele>29.800192</ele>
        <time>2022-05-17T02:58:42.231Z</time>
      </trkpt>
      <trkpt lat="51.097175" lon="5.793664">
        <ele>29.765340</ele>
        <time>2022-05-17T02:58:47.295Z</time>
      </trkpt>
      <trkpt lat="51.097238" lon="5.791247">
        <ele>29.429715</ele>
        <time>2022-05-17T02:59:16.859Z</time>
      </trkpt>
      <trkpt lat="51.097250" lon="5.790788">
        <ele>29.349110</ele>
        <time>2022-05-17T02:59:22.453Z</time>
      </trkpt>
      <trkpt lat="51.097283" lon="5.789371">
        <ele>29.075441</ele>
        <time>2022-05-17T02:59:39.447Z</time>
      </trkpt>
      <trkpt lat="51.098487" lon="5.789441">
        <ele>28.635592</ele>
        <time>2022-05-17T03:00:01.792Z</time>
      </trkpt>
      <trkpt lat="51.098580" lon="5.789445">
        <ele>28.601628</ele>
        <time>2022-05-17T03:00:03.674Z</time>
      </trkpt>
      <trkpt lat="51.099033" lon="5.789465">
        <ele>28.494644</ele>
        <time>2022-05-17T03:00:12.580Z</time>
      </trkpt>
      <trkpt lat="51.099489" lon="5.789376">
        <ele>28.437602</ele>
        <time>2022-05-17T03:00:21.535Z</time>
      </trkpt>
      <trkpt lat="51.099500" lon="5.789374">
        <ele>28.436227</ele>
        <time>2022-05-17T03:00:21.764Z</time>
      </trkpt>
      <trkpt lat="51.099541" lon="5.789368">
        <ele>28.431115</ele>
        <time>2022-05-17T03:00:22.547Z</time>
      </trkpt>
      <trkpt lat="51.099586" lon="5.789361">
        <ele>28.425501</ele>
        <time>2022-05-17T03:00:23.421Z</time>
      </trkpt>
      <trkpt lat="51.099581" lon="5.789293">
        <ele>28.420163</ele>
        <time>2022-05-17T03:00:24.133Z</time>
      </trkpt>
      <trkpt lat="51.099539" lon="5.789075">
        <ele>28.402383</ele>
        <time>2022-05-17T03:00:26.108Z</time>
      </trkpt>
      <trkpt lat="51.099491" lon="5.788485">
        <ele>28.355996</ele>
        <time>2022-05-17T03:00:31.491Z</time>
      </trkpt>
      <trkpt lat="51.099517" lon="5.788323">
        <ele>28.342958</ele>
        <time>2022-05-17T03:00:32.995Z</time>
      </trkpt>
      <trkpt lat="51.099557" lon="5.788284">
        <ele>28.337135</ele>
        <time>2022-05-17T03:00:33.657Z</time>
      </trkpt>
      <trkpt lat="51.099581" lon="5.788197">
        <ele>28.329726</ele>
        <time>2022-05-17T03:00:34.603Z</time>
      </trkpt>
      <trkpt lat="51.099684" lon="5.788187">
        <ele>28.316913</ele>
        <time>2022-05-17T03:00:36.049Z</time>
      </trkpt>
      <trkpt lat="51.099769" lon="5.788160">
        <ele>28.306151</ele>
        <time>2022-05-17T03:00:37.284Z</time>
      </trkpt>
      <trkpt lat="51.099890" lon="5.788033">
        <ele>28.286682</ele>
        <time>2022-05-17T03:00:39.451Z</time>
      </trkpt>
      <trkpt lat="51.099913" lon="5.788026">
        <ele>28.283451</ele>
        <time>2022-05-17T03:00:39.829Z</time>
      </trkpt>
      <trkpt lat="51.100084" lon="5.787974">
        <ele>28.259435</ele>
        <time>2022-05-17T03:00:42.360Z</time>
      </trkpt>
      <trkpt lat="51.100302" lon="5.787924">
        <ele>28.229051</ele>
        <time>2022-05-17T03:00:45.758Z</time>
      </trkpt>
      <trkpt lat="51.100925" lon="5.787794">
        <ele>28.142371</ele>
        <time>2022-05-17T03:00:55.193Z</time>
      </trkpt>
      <trkpt lat="51.101565" lon="5.787663">
        <ele>28.053354</ele>
        <time>2022-05-17T03:01:03.795Z</time>
      </trkpt>
      <trkpt lat="51.101821" lon="5.787604">
        <ele>28.057764</ele>
        <time>2022-05-17T03:01:07.261Z</time>
      </trkpt>
      <trkpt lat="51.102353" lon="5.787481">
        <ele>28.067012</ele>
        <time>2022-05-17T03:01:15.299Z</time>
      </trkpt>
      <trkpt lat="51.102498" lon="5.787447">
        <ele>28.069533</ele>
        <time>2022-05-17T03:01:18.326Z</time>
      </trkpt>
      <trkpt lat="51.102689" lon="5.787438">
        <ele>28.072820</ele>
        <time>2022-05-17T03:01:21.307Z</time>
      </trkpt>
      <trkpt lat="51.103099" lon="5.787732">
        <ele>28.080556</ele>
        <time>2022-05-17T03:01:28.214Z</time>
      </trkpt>
      <trkpt lat="51.103144" lon="5.787795">
        <ele>28.081586</ele>
        <time>2022-05-17T03:01:29.434Z</time>
      </trkpt>
      <trkpt lat="51.103215" lon="5.787895">
        <ele>28.083217</ele>
        <time>2022-05-17T03:01:31.316Z</time>
      </trkpt>
      <trkpt lat="51.103366" lon="5.787372">
        <ele>28.222989</ele>
        <time>2022-05-17T03:01:38.886Z</time>
      </trkpt>
      <trkpt lat="51.103434" lon="5.787134">
        <ele>28.298716</ele>
        <time>2022-05-17T03:01:42.488Z</time>
      </trkpt>
      <trkpt lat="51.103654" lon="5.786373">
        <ele>28.541344</ele>
        <time>2022-05-17T03:01:54.228Z</time>
      </trkpt>
      <trkpt lat="51.103792" lon="5.785633">
        <ele>28.764905</ele>
        <time>2022-05-17T03:02:05.369Z</time>
      </trkpt>
      <trkpt lat="51.103873" lon="5.785093">
        <ele>28.930698</ele>
        <time>2022-05-17T03:02:13.084Z</time>
      </trkpt>
      <trkpt lat="51.103917" lon="5.783801">
        <ele>29.463571</ele>
        <time>2022-05-17T03:02:31.389Z</time>
      </trkpt>
      <trkpt lat="51.104471" lon="5.784271">
        <ele>29.875269</ele>
        <time>2022-05-17T03:02:42.501Z</time>
      </trkpt>
      <trkpt lat="51.104995" lon="5.783077">
        <ele>30.510675</ele>
        <time>2022-05-17T03:02:58.416Z</time>
      </trkpt>
      <trkpt lat="51.105130" lon="5.782896">
        <ele>30.637178</ele>
        <time>2022-05-17T03:03:01.349Z</time>
      </trkpt>
      <trkpt lat="51.105642" lon="5.782633">
        <ele>31.022828</ele>
        <time>2022-05-17T03:03:11.677Z</time>
      </trkpt>
      <trkpt lat="51.106238" lon="5.782604">
        <ele>31.381570</ele>
        <time>2022-05-17T03:03:22.336Z</time>
      </trkpt>
      <trkpt lat="51.106931" lon="5.782593">
        <ele>31.371717</ele>
        <time>2022-05-17T03:03:32.920Z</time>
      </trkpt>
      <trkpt lat="51.107652" lon="5.782522">
        <ele>31.361446</ele>
        <time>2022-05-17T03:03:43.400Z</time>
      </trkpt>
      <trkpt lat="51.108048" lon="5.782569">
        <ele>31.291713</ele>
        <time>2022-05-17T03:03:48.770Z</time>
      </trkpt>
      <trkpt lat="51.108788" lon="5.783167">
        <ele>30.786809</ele>
        <time>2022-05-17T03:03:59.025Z</time>
      </trkpt>
      <trkpt lat="51.109323" lon="5.783476">
        <ele>30.440537</ele>
        <time>2022-05-17T03:04:06.247Z</time>
      </trkpt>
      <trkpt lat="51.109587" lon="5.783602">
        <ele>30.272845</ele>
        <time>2022-05-17T03:04:10.133Z</time>
      </trkpt>
      <trkpt lat="51.109718" lon="5.783659">
        <ele>30.256382</ele>
        <time>2022-05-17T03:04:12.024Z</time>
      </trkpt>
      <trkpt lat="51.109907" lon="5.783749">
        <ele>30.245590</ele>
        <time>2022-05-17T03:04:14.961Z</time>
      </trkpt>
      <trkpt lat="51.110083" lon="5.783852">
        <ele>30.235332</ele>
        <time>2022-05-17T03:04:17.635Z</time>
      </trkpt>
      <trkpt lat="51.110819" lon="5.784435">
        <ele>30.190363</ele>
        <time>2022-05-17T03:04:29.602Z</time>
      </trkpt>
      <trkpt lat="51.111484" lon="5.785047">
        <ele>30.181131</ele>
        <time>2022-05-17T03:04:41.394Z</time>
      </trkpt>
      <trkpt lat="51.111722" lon="5.785290">
        <ele>30.197016</ele>
        <time>2022-05-17T03:04:45.831Z</time>
      </trkpt>
      <trkpt lat="51.111983" lon="5.785512">
        <ele>30.213641</ele>
        <time>2022-05-17T03:04:50.366Z</time>
      </trkpt>
      <trkpt lat="51.113094" lon="5.786068">
        <ele>30.296279</ele>
        <time>2022-05-17T03:05:07.519Z</time>
      </trkpt>
      <trkpt lat="51.113663" lon="5.786713">
        <ele>30.385555</ele>
        <time>2022-05-17T03:05:18.570Z</time>
      </trkpt>
      <trkpt lat="51.113868" lon="5.786871">
        <ele>30.414668</ele>
        <time>2022-05-17T03:05:22.242Z</time>
      </trkpt>
      <trkpt lat="51.114354" lon="5.786924">
        <ele>30.476941</ele>
        <time>2022-05-17T03:05:29.903Z</time>
      </trkpt>
      <trkpt lat="51.114476" lon="5.786901">
        <ele>30.492646</ele>
        <time>2022-05-17T03:05:32.380Z</time>
      </trkpt>
      <trkpt lat="51.114606" lon="5.786888">
        <ele>30.454278</ele>
        <time>2022-05-17T03:05:34.964Z</time>
      </trkpt>
      <trkpt lat="51.115638" lon="5.786839">
        <ele>30.059327</ele>
        <time>2022-05-17T03:05:48.981Z</time>
      </trkpt>
      <trkpt lat="51.116092" lon="5.786693">
        <ele>29.882153</ele>
        <time>2022-05-17T03:05:55.027Z</time>
      </trkpt>
      <trkpt lat="51.116488" lon="5.786580">
        <ele>29.719122</ele>
        <time>2022-05-17T03:06:00.233Z</time>
      </trkpt>
      <trkpt lat="51.116803" lon="5.786572">
        <ele>29.584708</ele>
        <time>2022-05-17T03:06:04.286Z</time>
      </trkpt>
      <trkpt lat="51.118045" lon="5.786937">
        <ele>29.045860</ele>
        <time>2022-05-17T03:06:21.225Z</time>
      </trkpt>
      <trkpt lat="51.118722" lon="5.786670">
        <ele>29.168780</ele>
        <time>2022-05-17T03:06:32.114Z</time>
      </trkpt>
      <trkpt lat="51.119941" lon="5.787218">
        <ele>29.362787</ele>
        <time>2022-05-17T03:06:52.641Z</time>
      </trkpt>
      <trkpt lat="51.120606" lon="5.787592">
        <ele>29.289407</ele>
        <time>2022-05-17T03:07:03.310Z</time>
      </trkpt>
      <trkpt lat="51.121987" lon="5.788658">
        <ele>29.123532</ele>
        <time>2022-05-17T03:07:24.351Z</time>
      </trkpt>
      <trkpt lat="51.122471" lon="5.788904">
        <ele>29.065359</ele>
        <time>2022-05-17T03:07:31.189Z</time>
      </trkpt>
      <trkpt lat="51.122781" lon="5.788922">
        <ele>29.029838</ele>
        <time>2022-05-17T03:07:35.611Z</time>
      </trkpt>
      <trkpt lat="51.123022" lon="5.788914">
        <ele>29.002235</ele>
        <time>2022-05-17T03:07:39.339Z</time>
      </trkpt>
      <trkpt lat="51.123307" lon="5.789122">
        <ele>29.100230</ele>
        <time>2022-05-17T03:07:44.646Z</time>
      </trkpt>
      <trkpt lat="51.123411" lon="5.789110">
        <ele>29.171846</ele>
        <time>2022-05-17T03:07:46.461Z</time>
      </trkpt>
      <trkpt lat="51.123153" lon="5.788130">
        <ele>29.629964</ele>
        <time>2022-05-17T03:07:58.291Z</time>
      </trkpt>
      <trkpt lat="51.123116" lon="5.786717">
        <ele>30.231184</ele>
        <time>2022-05-17T03:08:14.478Z</time>
      </trkpt>
      <trkpt lat="51.123072" lon="5.785232">
        <ele>30.584684</ele>
        <time>2022-05-17T03:08:30.863Z</time>
      </trkpt>
      <trkpt lat="51.122839" lon="5.784661">
        <ele>30.746629</ele>
        <time>2022-05-17T03:08:37.597Z</time>
      </trkpt>
      <trkpt lat="51.122808" lon="5.784364">
        <ele>30.818221</ele>
        <time>2022-05-17T03:08:41.344Z</time>
      </trkpt>
      <trkpt lat="51.122943" lon="5.783563">
        <ele>30.817422</ele>
        <time>2022-05-17T03:08:51.476Z</time>
      </trkpt>
      <trkpt lat="51.123822" lon="5.778584">
        <ele>29.745832</ele>
        <time>2022-05-17T03:09:53.248Z</time>
      </trkpt>
      <trkpt lat="51.123900" lon="5.778140">
        <ele>29.647598</ele>
        <time>2022-05-17T03:09:58.569Z</time>
      </trkpt>
      <trkpt lat="51.124397" lon="5.776014">
        <ele>29.173752</ele>
        <time>2022-05-17T03:10:25.140Z</time>
      </trkpt>
      <trkpt lat="51.124811" lon="5.773727">
        <ele>29.277165</ele>
        <time>2022-05-17T03:10:56.578Z</time>
      </trkpt>
      <trkpt lat="51.125097" lon="5.772942">
        <ele>29.315668</ele>
        <time>2022-05-17T03:11:08.647Z</time>
      </trkpt>
      <trkpt lat="51.126514" lon="5.769986">
        <ele>28.947660</ele>
        <time>2022-05-17T03:11:54.674Z</time>
      </trkpt>
      <trkpt lat="51.126796" lon="5.769664">
        <ele>28.824685</ele>
        <time>2022-05-17T03:12:01.166Z</time>
      </trkpt>
      <trkpt lat="51.127439" lon="5.769262">
        <ele>28.579849</ele>
        <time>2022-05-17T03:12:13.982Z</time>
      </trkpt>
      <trkpt lat="51.127818" lon="5.769096">
        <ele>28.355311</ele>
        <time>2022-05-17T03:12:21.185Z</time>
      </trkpt>
      <trkpt lat="51.130886" lon="5.768178">
        <ele>26.496133</ele>
        <time>2022-05-17T03:13:17.752Z</time>
      </trkpt>
      <trkpt lat="51.131926" lon="5.767646">
        <ele>26.627285</ele>
        <time>2022-05-17T03:13:39.863Z</time>
      </trkpt>
      <trkpt lat="51.132598" lon="5.767378">
        <ele>26.802465</ele>
        <time>2022-05-17T03:13:55.054Z</time>
      </trkpt>
      <trkpt lat="51.133977" lon="5.767138">
        <ele>27.999564</ele>
        <time>2022-05-17T03:14:27.923Z</time>
      </trkpt>
      <trkpt lat="51.134089" lon="5.764011">
        <ele>29.784642</ele>
        <time>2022-05-17T03:15:16.662Z</time>
      </trkpt>
      <trkpt lat="51.134573" lon="5.760665">
        <ele>30.626791</ele>
        <time>2022-05-17T03:16:02.479Z</time>
      </trkpt>
      <trkpt lat="51.134851" lon="5.759335">
        <ele>30.706572</ele>
        <time>2022-05-17T03:16:20.581Z</time>
      </trkpt>
      <trkpt lat="51.135232" lon="5.757918">
        <ele>30.776848</ele>
        <time>2022-05-17T03:16:40.350Z</time>
      </trkpt>
      <trkpt lat="51.135256" lon="5.757787">
        <ele>30.782091</ele>
        <time>2022-05-17T03:16:42.100Z</time>
      </trkpt>
      <trkpt lat="51.135214" lon="5.757508">
        <ele>30.791740</ele>
        <time>2022-05-17T03:16:45.684Z</time>
      </trkpt>
      <trkpt lat="51.135342" lon="5.757331">
        <ele>30.800822</ele>
        <time>2022-05-17T03:16:49.101Z</time>
      </trkpt>
      <trkpt lat="51.135564" lon="5.756997">
        <ele>30.817184</ele>
        <time>2022-05-17T03:16:55.213Z</time>
      </trkpt>
      <trkpt lat="51.136456" lon="5.755650">
        <ele>30.854360</ele>
        <time>2022-05-17T03:17:20.376Z</time>
      </trkpt>
      <trkpt lat="51.137258" lon="5.754446">
        <ele>30.681586</ele>
        <time>2022-05-17T03:17:42.635Z</time>
      </trkpt>
      <trkpt lat="51.138668" lon="5.752336">
        <ele>29.872847</ele>
        <time>2022-05-17T03:18:18.451Z</time>
      </trkpt>
      <trkpt lat="51.138869" lon="5.752035">
        <ele>29.728108</ele>
        <time>2022-05-17T03:18:23.336Z</time>
      </trkpt>
      <trkpt lat="51.140688" lon="5.749238">
        <ele>29.243156</ele>
        <time>2022-05-17T03:19:11.776Z</time>
      </trkpt>
      <trkpt lat="51.141756" lon="5.747652">
        <ele>29.696037</ele>
        <time>2022-05-17T03:19:44.478Z</time>
      </trkpt>
      <trkpt lat="51.141964" lon="5.747343">
        <ele>29.835540</ele>
        <time>2022-05-17T03:19:51.045Z</time>
      </trkpt>
      <trkpt lat="51.143188" lon="5.745504">
        <ele>30.500935</ele>
        <time>2022-05-17T03:20:28.103Z</time>
      </trkpt>
      <trkpt lat="51.143550" lon="5.744961">
        <ele>30.550265</ele>
        <time>2022-05-17T03:20:37.986Z</time>
      </trkpt>
      <trkpt lat="51.143909" lon="5.744423">
        <ele>30.599164</ele>
        <time>2022-05-17T03:20:47.863Z</time>
      </trkpt>
      <trkpt lat="51.143869" lon="5.744352">
        <ele>30.605105</ele>
        <time>2022-05-17T03:20:49.088Z</time>
      </trkpt>
      <trkpt lat="51.144016" lon="5.743989">
        <ele>30.632004</ele>
        <time>2022-05-17T03:20:53.089Z</time>
      </trkpt>
      <trkpt lat="51.144258" lon="5.743777">
        <ele>30.704010</ele>
        <time>2022-05-17T03:20:57.219Z</time>
      </trkpt>
      <trkpt lat="51.144331" lon="5.743668">
        <ele>30.735517</ele>
        <time>2022-05-17T03:20:58.769Z</time>
      </trkpt>
      <trkpt lat="51.144474" lon="5.743448">
        <ele>30.798120</ele>
        <time>2022-05-17T03:21:01.916Z</time>
      </trkpt>
      <trkpt lat="51.145015" lon="5.742616">
        <ele>31.034917</ele>
        <time>2022-05-17T03:21:14.097Z</time>
      </trkpt>
      <trkpt lat="51.145244" lon="5.742250">
        <ele>31.137065</ele>
        <time>2022-05-17T03:21:19.437Z</time>
      </trkpt>
      <trkpt lat="51.145381" lon="5.742074">
        <ele>31.192490</ele>
        <time>2022-05-17T03:21:22.466Z</time>
      </trkpt>
      <trkpt lat="51.145508" lon="5.741910">
        <ele>31.205456</ele>
        <time>2022-05-17T03:21:25.243Z</time>
      </trkpt>
      <trkpt lat="51.145594" lon="5.741908">
        <ele>31.205456</ele>
        <time>2022-05-17T03:21:26.770Z</time>
      </trkpt>
      <trkpt lat="51.145653" lon="5.741818">
        <ele>31.205456</ele>
        <time>2022-05-17T03:21:28.149Z</time>
      </trkpt>
      <trkpt lat="51.145660" lon="5.741691">
        <ele>31.205456</ele>
        <time>2022-05-17T03:21:29.495Z</time>
      </trkpt>
      <trkpt lat="51.145557" lon="5.741559">
        <ele>31.205456</ele>
        <time>2022-05-17T03:21:31.774Z</time>
      </trkpt>
      <trkpt lat="51.145556" lon="5.741490">
        <ele>31.205456</ele>
        <time>2022-05-17T03:21:32.536Z</time>
      </trkpt>
      <trkpt lat="51.145555" lon="5.741402">
        <ele>31.205456</ele>
        <time>2022-05-17T03:21:33.494Z</time>
      </trkpt>
      <trkpt lat="51.145563" lon="5.739865">
        <ele>31.205456</ele>
        <time>2022-05-17T03:21:54.729Z</time>
      </trkpt>
      <trkpt lat="51.145481" lon="5.739865">
        <ele>31.205456</ele>
        <time>2022-05-17T03:21:56.539Z</time>
      </trkpt>
      <trkpt lat="51.145404" lon="5.739632">
        <ele>31.205456</ele>
        <time>2022-05-17T03:21:59.974Z</time>
      </trkpt>
    </trkseg>
  </trk>
</gpx>